<?xml version="1.0" encoding="UTF-8" standalone="no" ?>
<gpx xmlns="http://www.topografix.com/GPX/1/1" xmlns:xsi="http://www.w3.org/2001/XMLSchema-instance" xsi:schemaLocation="http://www.topografix.com/GPX/1/1 http://www.topografix.com/GPX/1/1/gpx.xsd" version="1.1" creator="VisuGPX - https://www.visugpx.com">
  <metadata>
    <name>DOMMARTIN CHARNAY CHATILLON</name>
    <desc><![CDATA[roylant, pas trop cassant, ni trop tecnique. qq portion d\'enrobé!]]></desc>
  </metadata>
  <trk>
    <name><![CDATA[DOMMARTIN CHARNAY CHATILLON]]></name>
    <trkseg>
      <trkpt lat="45.84687" lon="4.72557">
        <ele>229.41</ele>
        <time>2013-09-14T07:06:04Z</time>
      </trkpt>
      <trkpt lat="45.84688" lon="4.72555">
        <ele>229.41</ele>
        <time>2013-09-14T07:06:05Z</time>
      </trkpt>
      <trkpt lat="45.84689" lon="4.72553">
        <ele>232.78</ele>
        <time>2013-09-14T07:06:10Z</time>
      </trkpt>
      <trkpt lat="45.8469" lon="4.72552">
        <ele>237.58</ele>
        <time>2013-09-14T07:06:13Z</time>
      </trkpt>
      <trkpt lat="45.8469" lon="4.72551">
        <ele>240.47</ele>
        <time>2013-09-14T07:06:15Z</time>
      </trkpt>
      <trkpt lat="45.84691" lon="4.72549">
        <ele>244.79</ele>
        <time>2013-09-14T07:06:18Z</time>
      </trkpt>
      <trkpt lat="45.84691" lon="4.72547">
        <ele>248.16</ele>
        <time>2013-09-14T07:06:21Z</time>
      </trkpt>
      <trkpt lat="45.84691" lon="4.72546">
        <ele>251.52</ele>
        <time>2013-09-14T07:06:24Z</time>
      </trkpt>
      <trkpt lat="45.84689" lon="4.72545">
        <ele>255.37</ele>
        <time>2013-09-14T07:06:28Z</time>
      </trkpt>
      <trkpt lat="45.84689" lon="4.72545">
        <ele>257.29</ele>
        <time>2013-09-14T07:06:30Z</time>
      </trkpt>
      <trkpt lat="45.8469" lon="4.72544">
        <ele>261.62</ele>
        <time>2013-09-14T07:06:34Z</time>
      </trkpt>
      <trkpt lat="45.84692" lon="4.72543">
        <ele>264.98</ele>
        <time>2013-09-14T07:06:39Z</time>
      </trkpt>
      <trkpt lat="45.84693" lon="4.72542">
        <ele>268.83</ele>
        <time>2013-09-14T07:06:45Z</time>
      </trkpt>
      <trkpt lat="45.84693" lon="4.72542">
        <ele>271.71</ele>
        <time>2013-09-14T07:06:51Z</time>
      </trkpt>
      <trkpt lat="45.84694" lon="4.72542">
        <ele>272.19</ele>
        <time>2013-09-14T07:06:52Z</time>
      </trkpt>
      <trkpt lat="45.84695" lon="4.72545">
        <ele>275.07</ele>
        <time>2013-09-14T07:07:01Z</time>
      </trkpt>
      <trkpt lat="45.84696" lon="4.72546">
        <ele>277.48</ele>
        <time>2013-09-14T07:07:09Z</time>
      </trkpt>
      <trkpt lat="45.84692" lon="4.72548">
        <ele>280.84</ele>
        <time>2013-09-14T07:07:28Z</time>
      </trkpt>
      <trkpt lat="45.84696" lon="4.7255">
        <ele>280.84</ele>
        <time>2013-09-14T07:07:52Z</time>
      </trkpt>
      <trkpt lat="45.84696" lon="4.7255">
        <ele>280.84</ele>
        <time>2013-09-14T07:08:22Z</time>
      </trkpt>
      <trkpt lat="45.84696" lon="4.7255">
        <ele>280.84</ele>
        <time>2013-09-14T07:08:25Z</time>
      </trkpt>
      <trkpt lat="45.84699" lon="4.72546">
        <ele>281.32</ele>
        <time>2013-09-14T07:08:34Z</time>
      </trkpt>
      <trkpt lat="45.84699" lon="4.72546">
        <ele>281.32</ele>
        <time>2013-09-14T07:08:49Z</time>
      </trkpt>
      <trkpt lat="45.84699" lon="4.72546">
        <ele>276.04</ele>
        <time>2013-09-14T07:09:02Z</time>
      </trkpt>
      <trkpt lat="45.84699" lon="4.72546">
        <ele>287.09</ele>
        <time>2013-09-14T07:09:03Z</time>
      </trkpt>
      <trkpt lat="45.84699" lon="4.72546">
        <ele>282.28</ele>
        <time>2013-09-14T07:09:04Z</time>
      </trkpt>
      <trkpt lat="45.84699" lon="4.72546">
        <ele>279.4</ele>
        <time>2013-09-14T07:09:05Z</time>
      </trkpt>
      <trkpt lat="45.84699" lon="4.72546">
        <ele>279.88</ele>
        <time>2013-09-14T07:09:06Z</time>
      </trkpt>
      <trkpt lat="45.84699" lon="4.72545">
        <ele>283.25</ele>
        <time>2013-09-14T07:09:14Z</time>
      </trkpt>
      <trkpt lat="45.84699" lon="4.72545">
        <ele>280.84</ele>
        <time>2013-09-14T07:09:29Z</time>
      </trkpt>
      <trkpt lat="45.84699" lon="4.72545">
        <ele>281.8</ele>
        <time>2013-09-14T07:09:47Z</time>
      </trkpt>
      <trkpt lat="45.84699" lon="4.72545">
        <ele>278.44</ele>
        <time>2013-09-14T07:09:49Z</time>
      </trkpt>
      <trkpt lat="45.84699" lon="4.72545">
        <ele>278.92</ele>
        <time>2013-09-14T07:09:50Z</time>
      </trkpt>
      <trkpt lat="45.84699" lon="4.72546">
        <ele>277.48</ele>
        <time>2013-09-14T07:09:52Z</time>
      </trkpt>
      <trkpt lat="45.84699" lon="4.72546">
        <ele>281.8</ele>
        <time>2013-09-14T07:09:53Z</time>
      </trkpt>
      <trkpt lat="45.84699" lon="4.72546">
        <ele>285.17</ele>
        <time>2013-09-14T07:09:56Z</time>
      </trkpt>
      <trkpt lat="45.84699" lon="4.72546">
        <ele>281.8</ele>
        <time>2013-09-14T07:09:57Z</time>
      </trkpt>
      <trkpt lat="45.84699" lon="4.72544">
        <ele>281.32</ele>
        <time>2013-09-14T07:09:59Z</time>
      </trkpt>
      <trkpt lat="45.84692" lon="4.72542">
        <ele>280.36</ele>
        <time>2013-09-14T07:10:04Z</time>
      </trkpt>
      <trkpt lat="45.84675" lon="4.72541">
        <ele>278.44</ele>
        <time>2013-09-14T07:10:12Z</time>
      </trkpt>
      <trkpt lat="45.84642" lon="4.72538">
        <ele>275.07</ele>
        <time>2013-09-14T07:10:18Z</time>
      </trkpt>
      <trkpt lat="45.84627" lon="4.72537">
        <ele>273.63</ele>
        <time>2013-09-14T07:10:21Z</time>
      </trkpt>
      <trkpt lat="45.84622" lon="4.72538">
        <ele>273.15</ele>
        <time>2013-09-14T07:10:22Z</time>
      </trkpt>
      <trkpt lat="45.84617" lon="4.72536">
        <ele>272.67</ele>
        <time>2013-09-14T07:10:23Z</time>
      </trkpt>
      <trkpt lat="45.84614" lon="4.72531">
        <ele>273.15</ele>
        <time>2013-09-14T07:10:24Z</time>
      </trkpt>
      <trkpt lat="45.84612" lon="4.72525">
        <ele>272.67</ele>
        <time>2013-09-14T07:10:25Z</time>
      </trkpt>
      <trkpt lat="45.84613" lon="4.72518">
        <ele>273.15</ele>
        <time>2013-09-14T07:10:26Z</time>
      </trkpt>
      <trkpt lat="45.84614" lon="4.72512">
        <ele>274.11</ele>
        <time>2013-09-14T07:10:27Z</time>
      </trkpt>
      <trkpt lat="45.84614" lon="4.72486">
        <ele>276.04</ele>
        <time>2013-09-14T07:10:34Z</time>
      </trkpt>
      <trkpt lat="45.84585" lon="4.72455">
        <ele>274.59</ele>
        <time>2013-09-14T07:10:44Z</time>
      </trkpt>
      <trkpt lat="45.84567" lon="4.72436">
        <ele>272.19</ele>
        <time>2013-09-14T07:10:49Z</time>
      </trkpt>
      <trkpt lat="45.84563" lon="4.72435">
        <ele>272.19</ele>
        <time>2013-09-14T07:10:50Z</time>
      </trkpt>
      <trkpt lat="45.84558" lon="4.72435">
        <ele>271.23</ele>
        <time>2013-09-14T07:10:51Z</time>
      </trkpt>
      <trkpt lat="45.84554" lon="4.72436">
        <ele>270.75</ele>
        <time>2013-09-14T07:10:52Z</time>
      </trkpt>
      <trkpt lat="45.84551" lon="4.72437">
        <ele>270.27</ele>
        <time>2013-09-14T07:10:53Z</time>
      </trkpt>
      <trkpt lat="45.84549" lon="4.72435">
        <ele>270.27</ele>
        <time>2013-09-14T07:10:54Z</time>
      </trkpt>
      <trkpt lat="45.84547" lon="4.72433">
        <ele>269.79</ele>
        <time>2013-09-14T07:10:55Z</time>
      </trkpt>
      <trkpt lat="45.84527" lon="4.72412">
        <ele>267.38</ele>
        <time>2013-09-14T07:11:04Z</time>
      </trkpt>
      <trkpt lat="45.84526" lon="4.72406">
        <ele>267.38</ele>
        <time>2013-09-14T07:11:08Z</time>
      </trkpt>
      <trkpt lat="45.84543" lon="4.7239">
        <ele>268.35</ele>
        <time>2013-09-14T07:11:17Z</time>
      </trkpt>
      <trkpt lat="45.84562" lon="4.7237">
        <ele>270.75</ele>
        <time>2013-09-14T07:11:26Z</time>
      </trkpt>
      <trkpt lat="45.84579" lon="4.7235">
        <ele>272.67</ele>
        <time>2013-09-14T07:11:35Z</time>
      </trkpt>
      <trkpt lat="45.84603" lon="4.72331">
        <ele>275.07</ele>
        <time>2013-09-14T07:11:46Z</time>
      </trkpt>
      <trkpt lat="45.84629" lon="4.72324">
        <ele>277.48</ele>
        <time>2013-09-14T07:11:58Z</time>
      </trkpt>
      <trkpt lat="45.84647" lon="4.72322">
        <ele>279.88</ele>
        <time>2013-09-14T07:12:08Z</time>
      </trkpt>
      <trkpt lat="45.84669" lon="4.72319">
        <ele>280.84</ele>
        <time>2013-09-14T07:12:19Z</time>
      </trkpt>
      <trkpt lat="45.84676" lon="4.72317">
        <ele>280.84</ele>
        <time>2013-09-14T07:12:22Z</time>
      </trkpt>
      <trkpt lat="45.847" lon="4.72311">
        <ele>283.25</ele>
        <time>2013-09-14T07:12:33Z</time>
      </trkpt>
      <trkpt lat="45.84719" lon="4.72313">
        <ele>283.73</ele>
        <time>2013-09-14T07:12:42Z</time>
      </trkpt>
      <trkpt lat="45.84736" lon="4.72314">
        <ele>283.73</ele>
        <time>2013-09-14T07:12:50Z</time>
      </trkpt>
      <trkpt lat="45.84758" lon="4.72311">
        <ele>285.17</ele>
        <time>2013-09-14T07:12:58Z</time>
      </trkpt>
      <trkpt lat="45.84771" lon="4.72307">
        <ele>285.17</ele>
        <time>2013-09-14T07:13:03Z</time>
      </trkpt>
      <trkpt lat="45.84776" lon="4.72305">
        <ele>286.13</ele>
        <time>2013-09-14T07:13:05Z</time>
      </trkpt>
      <trkpt lat="45.84785" lon="4.72296">
        <ele>286.13</ele>
        <time>2013-09-14T07:13:09Z</time>
      </trkpt>
      <trkpt lat="45.84814" lon="4.72259">
        <ele>287.57</ele>
        <time>2013-09-14T07:13:22Z</time>
      </trkpt>
      <trkpt lat="45.84846" lon="4.72238">
        <ele>288.53</ele>
        <time>2013-09-14T07:13:34Z</time>
      </trkpt>
      <trkpt lat="45.84885" lon="4.72212">
        <ele>287.57</ele>
        <time>2013-09-14T07:13:46Z</time>
      </trkpt>
      <trkpt lat="45.84888" lon="4.7221">
        <ele>287.57</ele>
        <time>2013-09-14T07:13:47Z</time>
      </trkpt>
      <trkpt lat="45.84892" lon="4.72208">
        <ele>286.61</ele>
        <time>2013-09-14T07:13:48Z</time>
      </trkpt>
      <trkpt lat="45.84897" lon="4.72206">
        <ele>286.61</ele>
        <time>2013-09-14T07:13:49Z</time>
      </trkpt>
      <trkpt lat="45.84901" lon="4.72204">
        <ele>286.61</ele>
        <time>2013-09-14T07:13:50Z</time>
      </trkpt>
      <trkpt lat="45.84906" lon="4.72203">
        <ele>287.09</ele>
        <time>2013-09-14T07:13:51Z</time>
      </trkpt>
      <trkpt lat="45.8491" lon="4.72203">
        <ele>286.61</ele>
        <time>2013-09-14T07:13:52Z</time>
      </trkpt>
      <trkpt lat="45.84915" lon="4.72203">
        <ele>286.61</ele>
        <time>2013-09-14T07:13:53Z</time>
      </trkpt>
      <trkpt lat="45.8492" lon="4.72204">
        <ele>286.61</ele>
        <time>2013-09-14T07:13:54Z</time>
      </trkpt>
      <trkpt lat="45.84962" lon="4.72214">
        <ele>286.13</ele>
        <time>2013-09-14T07:14:03Z</time>
      </trkpt>
      <trkpt lat="45.84994" lon="4.72219">
        <ele>285.17</ele>
        <time>2013-09-14T07:14:10Z</time>
      </trkpt>
      <trkpt lat="45.85021" lon="4.72222">
        <ele>284.69</ele>
        <time>2013-09-14T07:14:16Z</time>
      </trkpt>
      <trkpt lat="45.85025" lon="4.72223">
        <ele>285.17</ele>
        <time>2013-09-14T07:14:17Z</time>
      </trkpt>
      <trkpt lat="45.85066" lon="4.72224">
        <ele>284.69</ele>
        <time>2013-09-14T07:14:26Z</time>
      </trkpt>
      <trkpt lat="45.8507" lon="4.72224">
        <ele>285.17</ele>
        <time>2013-09-14T07:14:27Z</time>
      </trkpt>
      <trkpt lat="45.85074" lon="4.72224">
        <ele>284.69</ele>
        <time>2013-09-14T07:14:28Z</time>
      </trkpt>
      <trkpt lat="45.85079" lon="4.72225">
        <ele>285.17</ele>
        <time>2013-09-14T07:14:29Z</time>
      </trkpt>
      <trkpt lat="45.85083" lon="4.72225">
        <ele>285.17</ele>
        <time>2013-09-14T07:14:30Z</time>
      </trkpt>
      <trkpt lat="45.85109" lon="4.72228">
        <ele>285.65</ele>
        <time>2013-09-14T07:14:37Z</time>
      </trkpt>
      <trkpt lat="45.85149" lon="4.72238">
        <ele>285.65</ele>
        <time>2013-09-14T07:14:47Z</time>
      </trkpt>
      <trkpt lat="45.8517" lon="4.72265">
        <ele>287.57</ele>
        <time>2013-09-14T07:14:55Z</time>
      </trkpt>
      <trkpt lat="45.85196" lon="4.72286">
        <ele>289.01</ele>
        <time>2013-09-14T07:15:04Z</time>
      </trkpt>
      <trkpt lat="45.85216" lon="4.72294">
        <ele>288.53</ele>
        <time>2013-09-14T07:15:09Z</time>
      </trkpt>
      <trkpt lat="45.85251" lon="4.72301">
        <ele>287.09</ele>
        <time>2013-09-14T07:15:16Z</time>
      </trkpt>
      <trkpt lat="45.85261" lon="4.72302">
        <ele>287.57</ele>
        <time>2013-09-14T07:15:18Z</time>
      </trkpt>
      <trkpt lat="45.85266" lon="4.72301">
        <ele>287.09</ele>
        <time>2013-09-14T07:15:19Z</time>
      </trkpt>
      <trkpt lat="45.85271" lon="4.72299">
        <ele>287.09</ele>
        <time>2013-09-14T07:15:20Z</time>
      </trkpt>
      <trkpt lat="45.85276" lon="4.72296">
        <ele>287.09</ele>
        <time>2013-09-14T07:15:21Z</time>
      </trkpt>
      <trkpt lat="45.8528" lon="4.72292">
        <ele>286.13</ele>
        <time>2013-09-14T07:15:22Z</time>
      </trkpt>
      <trkpt lat="45.85285" lon="4.72286">
        <ele>286.13</ele>
        <time>2013-09-14T07:15:23Z</time>
      </trkpt>
      <trkpt lat="45.85288" lon="4.72281">
        <ele>285.65</ele>
        <time>2013-09-14T07:15:24Z</time>
      </trkpt>
      <trkpt lat="45.85291" lon="4.72274">
        <ele>285.65</ele>
        <time>2013-09-14T07:15:25Z</time>
      </trkpt>
      <trkpt lat="45.85294" lon="4.72267">
        <ele>284.69</ele>
        <time>2013-09-14T07:15:26Z</time>
      </trkpt>
      <trkpt lat="45.85297" lon="4.72259">
        <ele>284.21</ele>
        <time>2013-09-14T07:15:27Z</time>
      </trkpt>
      <trkpt lat="45.85301" lon="4.72252">
        <ele>283.73</ele>
        <time>2013-09-14T07:15:28Z</time>
      </trkpt>
      <trkpt lat="45.85305" lon="4.72246">
        <ele>283.25</ele>
        <time>2013-09-14T07:15:29Z</time>
      </trkpt>
      <trkpt lat="45.85309" lon="4.72242">
        <ele>283.25</ele>
        <time>2013-09-14T07:15:30Z</time>
      </trkpt>
      <trkpt lat="45.85315" lon="4.7224">
        <ele>282.28</ele>
        <time>2013-09-14T07:15:31Z</time>
      </trkpt>
      <trkpt lat="45.85321" lon="4.72238">
        <ele>281.8</ele>
        <time>2013-09-14T07:15:32Z</time>
      </trkpt>
      <trkpt lat="45.85327" lon="4.72237">
        <ele>281.8</ele>
        <time>2013-09-14T07:15:33Z</time>
      </trkpt>
      <trkpt lat="45.85334" lon="4.72237">
        <ele>281.8</ele>
        <time>2013-09-14T07:15:34Z</time>
      </trkpt>
      <trkpt lat="45.85341" lon="4.72237">
        <ele>281.32</ele>
        <time>2013-09-14T07:15:35Z</time>
      </trkpt>
      <trkpt lat="45.85348" lon="4.72238">
        <ele>280.84</ele>
        <time>2013-09-14T07:15:36Z</time>
      </trkpt>
      <trkpt lat="45.85421" lon="4.72257">
        <ele>278.44</ele>
        <time>2013-09-14T07:15:46Z</time>
      </trkpt>
      <trkpt lat="45.85427" lon="4.72259">
        <ele>277.96</ele>
        <time>2013-09-14T07:15:47Z</time>
      </trkpt>
      <trkpt lat="45.85434" lon="4.7226">
        <ele>278.44</ele>
        <time>2013-09-14T07:15:48Z</time>
      </trkpt>
      <trkpt lat="45.85441" lon="4.72261">
        <ele>278.44</ele>
        <time>2013-09-14T07:15:49Z</time>
      </trkpt>
      <trkpt lat="45.85489" lon="4.72257">
        <ele>279.4</ele>
        <time>2013-09-14T07:15:57Z</time>
      </trkpt>
      <trkpt lat="45.85544" lon="4.7225">
        <ele>280.84</ele>
        <time>2013-09-14T07:16:09Z</time>
      </trkpt>
      <trkpt lat="45.85589" lon="4.72235">
        <ele>281.8</ele>
        <time>2013-09-14T07:16:19Z</time>
      </trkpt>
      <trkpt lat="45.85643" lon="4.72207">
        <ele>282.77</ele>
        <time>2013-09-14T07:16:32Z</time>
      </trkpt>
      <trkpt lat="45.85689" lon="4.72176">
        <ele>283.73</ele>
        <time>2013-09-14T07:16:44Z</time>
      </trkpt>
      <trkpt lat="45.85737" lon="4.72162">
        <ele>283.25</ele>
        <time>2013-09-14T07:16:54Z</time>
      </trkpt>
      <trkpt lat="45.85741" lon="4.72161">
        <ele>283.73</ele>
        <time>2013-09-14T07:16:55Z</time>
      </trkpt>
      <trkpt lat="45.85755" lon="4.7216">
        <ele>283.73</ele>
        <time>2013-09-14T07:16:58Z</time>
      </trkpt>
      <trkpt lat="45.85759" lon="4.7216">
        <ele>283.73</ele>
        <time>2013-09-14T07:16:59Z</time>
      </trkpt>
      <trkpt lat="45.85798" lon="4.72166">
        <ele>285.17</ele>
        <time>2013-09-14T07:17:10Z</time>
      </trkpt>
      <trkpt lat="45.85801" lon="4.72163">
        <ele>285.17</ele>
        <time>2013-09-14T07:17:11Z</time>
      </trkpt>
      <trkpt lat="45.85803" lon="4.72159">
        <ele>285.17</ele>
        <time>2013-09-14T07:17:12Z</time>
      </trkpt>
      <trkpt lat="45.85804" lon="4.72154">
        <ele>284.21</ele>
        <time>2013-09-14T07:17:13Z</time>
      </trkpt>
      <trkpt lat="45.85806" lon="4.72147">
        <ele>283.73</ele>
        <time>2013-09-14T07:17:14Z</time>
      </trkpt>
      <trkpt lat="45.85807" lon="4.7214">
        <ele>283.25</ele>
        <time>2013-09-14T07:17:15Z</time>
      </trkpt>
      <trkpt lat="45.8582" lon="4.72086">
        <ele>279.4</ele>
        <time>2013-09-14T07:17:22Z</time>
      </trkpt>
      <trkpt lat="45.85825" lon="4.72061">
        <ele>278.44</ele>
        <time>2013-09-14T07:17:25Z</time>
      </trkpt>
      <trkpt lat="45.85834" lon="4.72021">
        <ele>275.07</ele>
        <time>2013-09-14T07:17:30Z</time>
      </trkpt>
      <trkpt lat="45.85837" lon="4.72004">
        <ele>273.15</ele>
        <time>2013-09-14T07:17:32Z</time>
      </trkpt>
      <trkpt lat="45.85844" lon="4.71979">
        <ele>269.31</ele>
        <time>2013-09-14T07:17:35Z</time>
      </trkpt>
      <trkpt lat="45.85849" lon="4.71952">
        <ele>266.42</ele>
        <time>2013-09-14T07:17:38Z</time>
      </trkpt>
      <trkpt lat="45.85852" lon="4.71922">
        <ele>262.58</ele>
        <time>2013-09-14T07:17:41Z</time>
      </trkpt>
      <trkpt lat="45.85852" lon="4.71911">
        <ele>261.14</ele>
        <time>2013-09-14T07:17:42Z</time>
      </trkpt>
      <trkpt lat="45.85852" lon="4.71877">
        <ele>256.81</ele>
        <time>2013-09-14T07:17:45Z</time>
      </trkpt>
      <trkpt lat="45.85855" lon="4.71867">
        <ele>256.33</ele>
        <time>2013-09-14T07:17:46Z</time>
      </trkpt>
      <trkpt lat="45.85859" lon="4.7186">
        <ele>254.89</ele>
        <time>2013-09-14T07:17:47Z</time>
      </trkpt>
      <trkpt lat="45.85866" lon="4.71856">
        <ele>254.41</ele>
        <time>2013-09-14T07:17:48Z</time>
      </trkpt>
      <trkpt lat="45.85873" lon="4.71856">
        <ele>253.44</ele>
        <time>2013-09-14T07:17:49Z</time>
      </trkpt>
      <trkpt lat="45.85879" lon="4.71859">
        <ele>252.48</ele>
        <time>2013-09-14T07:17:50Z</time>
      </trkpt>
      <trkpt lat="45.85886" lon="4.7186">
        <ele>252</ele>
        <time>2013-09-14T07:17:51Z</time>
      </trkpt>
      <trkpt lat="45.85892" lon="4.71859">
        <ele>251.52</ele>
        <time>2013-09-14T07:17:52Z</time>
      </trkpt>
      <trkpt lat="45.85897" lon="4.71855">
        <ele>251.04</ele>
        <time>2013-09-14T07:17:53Z</time>
      </trkpt>
      <trkpt lat="45.85901" lon="4.71849">
        <ele>250.56</ele>
        <time>2013-09-14T07:17:54Z</time>
      </trkpt>
      <trkpt lat="45.85904" lon="4.71843">
        <ele>250.56</ele>
        <time>2013-09-14T07:17:55Z</time>
      </trkpt>
      <trkpt lat="45.85906" lon="4.71836">
        <ele>249.6</ele>
        <time>2013-09-14T07:17:56Z</time>
      </trkpt>
      <trkpt lat="45.85909" lon="4.71824">
        <ele>249.6</ele>
        <time>2013-09-14T07:17:58Z</time>
      </trkpt>
      <trkpt lat="45.8591" lon="4.71818">
        <ele>249.6</ele>
        <time>2013-09-14T07:17:59Z</time>
      </trkpt>
      <trkpt lat="45.85909" lon="4.71812">
        <ele>249.12</ele>
        <time>2013-09-14T07:18:00Z</time>
      </trkpt>
      <trkpt lat="45.85907" lon="4.71807">
        <ele>249.12</ele>
        <time>2013-09-14T07:18:01Z</time>
      </trkpt>
      <trkpt lat="45.85903" lon="4.71802">
        <ele>248.16</ele>
        <time>2013-09-14T07:18:02Z</time>
      </trkpt>
      <trkpt lat="45.85898" lon="4.71798">
        <ele>247.68</ele>
        <time>2013-09-14T07:18:03Z</time>
      </trkpt>
      <trkpt lat="45.85893" lon="4.71794">
        <ele>247.2</ele>
        <time>2013-09-14T07:18:04Z</time>
      </trkpt>
      <trkpt lat="45.85888" lon="4.71789">
        <ele>246.72</ele>
        <time>2013-09-14T07:18:05Z</time>
      </trkpt>
      <trkpt lat="45.85884" lon="4.71782">
        <ele>245.75</ele>
        <time>2013-09-14T07:18:06Z</time>
      </trkpt>
      <trkpt lat="45.85882" lon="4.71773">
        <ele>245.75</ele>
        <time>2013-09-14T07:18:07Z</time>
      </trkpt>
      <trkpt lat="45.85883" lon="4.71764">
        <ele>244.79</ele>
        <time>2013-09-14T07:18:08Z</time>
      </trkpt>
      <trkpt lat="45.85885" lon="4.71756">
        <ele>244.79</ele>
        <time>2013-09-14T07:18:09Z</time>
      </trkpt>
      <trkpt lat="45.85889" lon="4.71749">
        <ele>244.31</ele>
        <time>2013-09-14T07:18:10Z</time>
      </trkpt>
      <trkpt lat="45.85892" lon="4.71741">
        <ele>242.87</ele>
        <time>2013-09-14T07:18:11Z</time>
      </trkpt>
      <trkpt lat="45.85895" lon="4.71734">
        <ele>242.87</ele>
        <time>2013-09-14T07:18:12Z</time>
      </trkpt>
      <trkpt lat="45.85899" lon="4.71721">
        <ele>241.91</ele>
        <time>2013-09-14T07:18:14Z</time>
      </trkpt>
      <trkpt lat="45.859" lon="4.71714">
        <ele>241.43</ele>
        <time>2013-09-14T07:18:15Z</time>
      </trkpt>
      <trkpt lat="45.85899" lon="4.71707">
        <ele>240.95</ele>
        <time>2013-09-14T07:18:16Z</time>
      </trkpt>
      <trkpt lat="45.85899" lon="4.71699">
        <ele>239.99</ele>
        <time>2013-09-14T07:18:17Z</time>
      </trkpt>
      <trkpt lat="45.85897" lon="4.71692">
        <ele>239.51</ele>
        <time>2013-09-14T07:18:18Z</time>
      </trkpt>
      <trkpt lat="45.85895" lon="4.71684">
        <ele>238.54</ele>
        <time>2013-09-14T07:18:19Z</time>
      </trkpt>
      <trkpt lat="45.85893" lon="4.71676">
        <ele>238.06</ele>
        <time>2013-09-14T07:18:20Z</time>
      </trkpt>
      <trkpt lat="45.8589" lon="4.71669">
        <ele>236.62</ele>
        <time>2013-09-14T07:18:21Z</time>
      </trkpt>
      <trkpt lat="45.85887" lon="4.71661">
        <ele>236.14</ele>
        <time>2013-09-14T07:18:22Z</time>
      </trkpt>
      <trkpt lat="45.8588" lon="4.71638">
        <ele>234.7</ele>
        <time>2013-09-14T07:18:25Z</time>
      </trkpt>
      <trkpt lat="45.85872" lon="4.71612">
        <ele>232.3</ele>
        <time>2013-09-14T07:18:29Z</time>
      </trkpt>
      <trkpt lat="45.85869" lon="4.71606">
        <ele>231.33</ele>
        <time>2013-09-14T07:18:30Z</time>
      </trkpt>
      <trkpt lat="45.85865" lon="4.7159">
        <ele>230.37</ele>
        <time>2013-09-14T07:18:33Z</time>
      </trkpt>
      <trkpt lat="45.85867" lon="4.71586">
        <ele>229.89</ele>
        <time>2013-09-14T07:18:34Z</time>
      </trkpt>
      <trkpt lat="45.8587" lon="4.71586">
        <ele>229.41</ele>
        <time>2013-09-14T07:18:35Z</time>
      </trkpt>
      <trkpt lat="45.85873" lon="4.71588">
        <ele>228.45</ele>
        <time>2013-09-14T07:18:36Z</time>
      </trkpt>
      <trkpt lat="45.85876" lon="4.71593">
        <ele>227.97</ele>
        <time>2013-09-14T07:18:37Z</time>
      </trkpt>
      <trkpt lat="45.85879" lon="4.71598">
        <ele>227.01</ele>
        <time>2013-09-14T07:18:38Z</time>
      </trkpt>
      <trkpt lat="45.85883" lon="4.71602">
        <ele>226.53</ele>
        <time>2013-09-14T07:18:39Z</time>
      </trkpt>
      <trkpt lat="45.85887" lon="4.71605">
        <ele>226.05</ele>
        <time>2013-09-14T07:18:40Z</time>
      </trkpt>
      <trkpt lat="45.85903" lon="4.71617">
        <ele>222.68</ele>
        <time>2013-09-14T07:18:43Z</time>
      </trkpt>
      <trkpt lat="45.85927" lon="4.71631">
        <ele>218.84</ele>
        <time>2013-09-14T07:18:47Z</time>
      </trkpt>
      <trkpt lat="45.85952" lon="4.71647">
        <ele>215.47</ele>
        <time>2013-09-14T07:18:51Z</time>
      </trkpt>
      <trkpt lat="45.85963" lon="4.71652">
        <ele>213.55</ele>
        <time>2013-09-14T07:18:53Z</time>
      </trkpt>
      <trkpt lat="45.85967" lon="4.71652">
        <ele>213.55</ele>
        <time>2013-09-14T07:18:54Z</time>
      </trkpt>
      <trkpt lat="45.85972" lon="4.71649">
        <ele>213.07</ele>
        <time>2013-09-14T07:18:55Z</time>
      </trkpt>
      <trkpt lat="45.85978" lon="4.71644">
        <ele>212.11</ele>
        <time>2013-09-14T07:18:56Z</time>
      </trkpt>
      <trkpt lat="45.85982" lon="4.71637">
        <ele>212.11</ele>
        <time>2013-09-14T07:18:57Z</time>
      </trkpt>
      <trkpt lat="45.85986" lon="4.7163">
        <ele>211.15</ele>
        <time>2013-09-14T07:18:58Z</time>
      </trkpt>
      <trkpt lat="45.85997" lon="4.71611">
        <ele>209.22</ele>
        <time>2013-09-14T07:19:01Z</time>
      </trkpt>
      <trkpt lat="45.86002" lon="4.7161">
        <ele>209.22</ele>
        <time>2013-09-14T07:19:02Z</time>
      </trkpt>
      <trkpt lat="45.86008" lon="4.71612">
        <ele>208.26</ele>
        <time>2013-09-14T07:19:03Z</time>
      </trkpt>
      <trkpt lat="45.86013" lon="4.71617">
        <ele>208.74</ele>
        <time>2013-09-14T07:19:04Z</time>
      </trkpt>
      <trkpt lat="45.86018" lon="4.71622">
        <ele>208.26</ele>
        <time>2013-09-14T07:19:05Z</time>
      </trkpt>
      <trkpt lat="45.86023" lon="4.71628">
        <ele>208.26</ele>
        <time>2013-09-14T07:19:06Z</time>
      </trkpt>
      <trkpt lat="45.8604" lon="4.71637">
        <ele>206.82</ele>
        <time>2013-09-14T07:19:10Z</time>
      </trkpt>
      <trkpt lat="45.86043" lon="4.71633">
        <ele>207.3</ele>
        <time>2013-09-14T07:19:11Z</time>
      </trkpt>
      <trkpt lat="45.86046" lon="4.71628">
        <ele>206.82</ele>
        <time>2013-09-14T07:19:12Z</time>
      </trkpt>
      <trkpt lat="45.86068" lon="4.71576">
        <ele>206.34</ele>
        <time>2013-09-14T07:19:21Z</time>
      </trkpt>
      <trkpt lat="45.8607" lon="4.71571">
        <ele>206.82</ele>
        <time>2013-09-14T07:19:22Z</time>
      </trkpt>
      <trkpt lat="45.86079" lon="4.71545">
        <ele>206.34</ele>
        <time>2013-09-14T07:19:28Z</time>
      </trkpt>
      <trkpt lat="45.86078" lon="4.71543">
        <ele>206.34</ele>
        <time>2013-09-14T07:19:37Z</time>
      </trkpt>
      <trkpt lat="45.86078" lon="4.71543">
        <ele>205.86</ele>
        <time>2013-09-14T07:19:54Z</time>
      </trkpt>
      <trkpt lat="45.8608" lon="4.71538">
        <ele>206.82</ele>
        <time>2013-09-14T07:19:58Z</time>
      </trkpt>
      <trkpt lat="45.86094" lon="4.71508">
        <ele>206.34</ele>
        <time>2013-09-14T07:20:06Z</time>
      </trkpt>
      <trkpt lat="45.86105" lon="4.71478">
        <ele>206.82</ele>
        <time>2013-09-14T07:20:12Z</time>
      </trkpt>
      <trkpt lat="45.86107" lon="4.71472">
        <ele>206.34</ele>
        <time>2013-09-14T07:20:13Z</time>
      </trkpt>
      <trkpt lat="45.86114" lon="4.71457">
        <ele>206.82</ele>
        <time>2013-09-14T07:20:16Z</time>
      </trkpt>
      <trkpt lat="45.86123" lon="4.71437">
        <ele>206.82</ele>
        <time>2013-09-14T07:20:21Z</time>
      </trkpt>
      <trkpt lat="45.86123" lon="4.71431">
        <ele>206.34</ele>
        <time>2013-09-14T07:20:22Z</time>
      </trkpt>
      <trkpt lat="45.86122" lon="4.71425">
        <ele>206.34</ele>
        <time>2013-09-14T07:20:23Z</time>
      </trkpt>
      <trkpt lat="45.86121" lon="4.71418">
        <ele>206.82</ele>
        <time>2013-09-14T07:20:24Z</time>
      </trkpt>
      <trkpt lat="45.86121" lon="4.71412">
        <ele>206.34</ele>
        <time>2013-09-14T07:20:25Z</time>
      </trkpt>
      <trkpt lat="45.8612" lon="4.71405">
        <ele>206.82</ele>
        <time>2013-09-14T07:20:26Z</time>
      </trkpt>
      <trkpt lat="45.8611" lon="4.71331">
        <ele>206.34</ele>
        <time>2013-09-14T07:20:38Z</time>
      </trkpt>
      <trkpt lat="45.86101" lon="4.71285">
        <ele>206.82</ele>
        <time>2013-09-14T07:20:45Z</time>
      </trkpt>
      <trkpt lat="45.86099" lon="4.71279">
        <ele>206.82</ele>
        <time>2013-09-14T07:20:46Z</time>
      </trkpt>
      <trkpt lat="45.86084" lon="4.71244">
        <ele>206.34</ele>
        <time>2013-09-14T07:20:54Z</time>
      </trkpt>
      <trkpt lat="45.86084" lon="4.71238">
        <ele>205.86</ele>
        <time>2013-09-14T07:20:55Z</time>
      </trkpt>
      <trkpt lat="45.86084" lon="4.71219">
        <ele>205.86</ele>
        <time>2013-09-14T07:20:58Z</time>
      </trkpt>
      <trkpt lat="45.86085" lon="4.71213">
        <ele>206.34</ele>
        <time>2013-09-14T07:20:59Z</time>
      </trkpt>
      <trkpt lat="45.86088" lon="4.71201">
        <ele>206.82</ele>
        <time>2013-09-14T07:21:01Z</time>
      </trkpt>
      <trkpt lat="45.86089" lon="4.71191">
        <ele>206.82</ele>
        <time>2013-09-14T07:21:03Z</time>
      </trkpt>
      <trkpt lat="45.86089" lon="4.71185">
        <ele>206.34</ele>
        <time>2013-09-14T07:21:04Z</time>
      </trkpt>
      <trkpt lat="45.86093" lon="4.71148">
        <ele>205.86</ele>
        <time>2013-09-14T07:21:11Z</time>
      </trkpt>
      <trkpt lat="45.86096" lon="4.71144">
        <ele>205.86</ele>
        <time>2013-09-14T07:21:12Z</time>
      </trkpt>
      <trkpt lat="45.86103" lon="4.71135">
        <ele>205.86</ele>
        <time>2013-09-14T07:21:14Z</time>
      </trkpt>
      <trkpt lat="45.86106" lon="4.71131">
        <ele>205.86</ele>
        <time>2013-09-14T07:21:15Z</time>
      </trkpt>
      <trkpt lat="45.86113" lon="4.71121">
        <ele>205.86</ele>
        <time>2013-09-14T07:21:17Z</time>
      </trkpt>
      <trkpt lat="45.86116" lon="4.71115">
        <ele>205.38</ele>
        <time>2013-09-14T07:21:18Z</time>
      </trkpt>
      <trkpt lat="45.86138" lon="4.71066">
        <ele>205.38</ele>
        <time>2013-09-14T07:21:26Z</time>
      </trkpt>
      <trkpt lat="45.86142" lon="4.71062">
        <ele>204.9</ele>
        <time>2013-09-14T07:21:27Z</time>
      </trkpt>
      <trkpt lat="45.86146" lon="4.71058">
        <ele>204.9</ele>
        <time>2013-09-14T07:21:28Z</time>
      </trkpt>
      <trkpt lat="45.8615" lon="4.71055">
        <ele>204.9</ele>
        <time>2013-09-14T07:21:29Z</time>
      </trkpt>
      <trkpt lat="45.86155" lon="4.71053">
        <ele>204.9</ele>
        <time>2013-09-14T07:21:30Z</time>
      </trkpt>
      <trkpt lat="45.8616" lon="4.71052">
        <ele>204.9</ele>
        <time>2013-09-14T07:21:31Z</time>
      </trkpt>
      <trkpt lat="45.86175" lon="4.71048">
        <ele>204.42</ele>
        <time>2013-09-14T07:21:34Z</time>
      </trkpt>
      <trkpt lat="45.8618" lon="4.71046">
        <ele>204.9</ele>
        <time>2013-09-14T07:21:35Z</time>
      </trkpt>
      <trkpt lat="45.86184" lon="4.71043">
        <ele>204.9</ele>
        <time>2013-09-14T07:21:36Z</time>
      </trkpt>
      <trkpt lat="45.86219" lon="4.71005">
        <ele>205.86</ele>
        <time>2013-09-14T07:21:46Z</time>
      </trkpt>
      <trkpt lat="45.86232" lon="4.70998">
        <ele>204.9</ele>
        <time>2013-09-14T07:21:50Z</time>
      </trkpt>
      <trkpt lat="45.86236" lon="4.71">
        <ele>204.42</ele>
        <time>2013-09-14T07:21:51Z</time>
      </trkpt>
      <trkpt lat="45.8624" lon="4.71003">
        <ele>204.42</ele>
        <time>2013-09-14T07:21:52Z</time>
      </trkpt>
      <trkpt lat="45.86243" lon="4.71008">
        <ele>205.38</ele>
        <time>2013-09-14T07:21:53Z</time>
      </trkpt>
      <trkpt lat="45.86247" lon="4.71012">
        <ele>204.42</ele>
        <time>2013-09-14T07:21:54Z</time>
      </trkpt>
      <trkpt lat="45.86255" lon="4.7102">
        <ele>204.42</ele>
        <time>2013-09-14T07:21:56Z</time>
      </trkpt>
      <trkpt lat="45.86262" lon="4.71027">
        <ele>204.9</ele>
        <time>2013-09-14T07:21:58Z</time>
      </trkpt>
      <trkpt lat="45.86266" lon="4.71029">
        <ele>204.42</ele>
        <time>2013-09-14T07:21:59Z</time>
      </trkpt>
      <trkpt lat="45.86271" lon="4.7103">
        <ele>204.42</ele>
        <time>2013-09-14T07:22:00Z</time>
      </trkpt>
      <trkpt lat="45.86276" lon="4.71029">
        <ele>204.9</ele>
        <time>2013-09-14T07:22:01Z</time>
      </trkpt>
      <trkpt lat="45.86281" lon="4.71029">
        <ele>204.42</ele>
        <time>2013-09-14T07:22:02Z</time>
      </trkpt>
      <trkpt lat="45.86327" lon="4.71026">
        <ele>203.94</ele>
        <time>2013-09-14T07:22:11Z</time>
      </trkpt>
      <trkpt lat="45.86338" lon="4.71027">
        <ele>203.94</ele>
        <time>2013-09-14T07:22:13Z</time>
      </trkpt>
      <trkpt lat="45.8636" lon="4.71026">
        <ele>203.46</ele>
        <time>2013-09-14T07:22:17Z</time>
      </trkpt>
      <trkpt lat="45.86365" lon="4.71024">
        <ele>202.98</ele>
        <time>2013-09-14T07:22:18Z</time>
      </trkpt>
      <trkpt lat="45.86375" lon="4.71019">
        <ele>203.46</ele>
        <time>2013-09-14T07:22:20Z</time>
      </trkpt>
      <trkpt lat="45.86394" lon="4.71008">
        <ele>202.49</ele>
        <time>2013-09-14T07:22:24Z</time>
      </trkpt>
      <trkpt lat="45.86399" lon="4.71006">
        <ele>202.49</ele>
        <time>2013-09-14T07:22:25Z</time>
      </trkpt>
      <trkpt lat="45.86404" lon="4.71004">
        <ele>202.98</ele>
        <time>2013-09-14T07:22:26Z</time>
      </trkpt>
      <trkpt lat="45.86427" lon="4.7099">
        <ele>202.49</ele>
        <time>2013-09-14T07:22:31Z</time>
      </trkpt>
      <trkpt lat="45.86455" lon="4.70982">
        <ele>202.49</ele>
        <time>2013-09-14T07:22:37Z</time>
      </trkpt>
      <trkpt lat="45.86459" lon="4.70982">
        <ele>202.49</ele>
        <time>2013-09-14T07:22:38Z</time>
      </trkpt>
      <trkpt lat="45.86464" lon="4.70983">
        <ele>202.49</ele>
        <time>2013-09-14T07:22:39Z</time>
      </trkpt>
      <trkpt lat="45.86473" lon="4.70987">
        <ele>202.49</ele>
        <time>2013-09-14T07:22:41Z</time>
      </trkpt>
      <trkpt lat="45.86477" lon="4.70987">
        <ele>202.01</ele>
        <time>2013-09-14T07:22:42Z</time>
      </trkpt>
      <trkpt lat="45.8648" lon="4.70986">
        <ele>202.49</ele>
        <time>2013-09-14T07:22:43Z</time>
      </trkpt>
      <trkpt lat="45.86484" lon="4.70983">
        <ele>202.49</ele>
        <time>2013-09-14T07:22:44Z</time>
      </trkpt>
      <trkpt lat="45.86486" lon="4.70977">
        <ele>202.98</ele>
        <time>2013-09-14T07:22:45Z</time>
      </trkpt>
      <trkpt lat="45.86488" lon="4.7097">
        <ele>202.49</ele>
        <time>2013-09-14T07:22:46Z</time>
      </trkpt>
      <trkpt lat="45.86488" lon="4.70964">
        <ele>202.49</ele>
        <time>2013-09-14T07:22:47Z</time>
      </trkpt>
      <trkpt lat="45.86489" lon="4.70958">
        <ele>202.49</ele>
        <time>2013-09-14T07:22:48Z</time>
      </trkpt>
      <trkpt lat="45.8649" lon="4.70935">
        <ele>202.98</ele>
        <time>2013-09-14T07:22:52Z</time>
      </trkpt>
      <trkpt lat="45.86492" lon="4.7093">
        <ele>202.01</ele>
        <time>2013-09-14T07:22:53Z</time>
      </trkpt>
      <trkpt lat="45.86494" lon="4.70925">
        <ele>202.49</ele>
        <time>2013-09-14T07:22:54Z</time>
      </trkpt>
      <trkpt lat="45.86513" lon="4.70901">
        <ele>202.98</ele>
        <time>2013-09-14T07:23:01Z</time>
      </trkpt>
      <trkpt lat="45.86513" lon="4.70898">
        <ele>202.98</ele>
        <time>2013-09-14T07:23:02Z</time>
      </trkpt>
      <trkpt lat="45.86514" lon="4.70892">
        <ele>202.49</ele>
        <time>2013-09-14T07:23:04Z</time>
      </trkpt>
      <trkpt lat="45.86513" lon="4.70888">
        <ele>202.49</ele>
        <time>2013-09-14T07:23:05Z</time>
      </trkpt>
      <trkpt lat="45.86493" lon="4.70845">
        <ele>202.01</ele>
        <time>2013-09-14T07:23:15Z</time>
      </trkpt>
      <trkpt lat="45.8649" lon="4.70842">
        <ele>202.49</ele>
        <time>2013-09-14T07:23:16Z</time>
      </trkpt>
      <trkpt lat="45.86486" lon="4.70839">
        <ele>202.49</ele>
        <time>2013-09-14T07:23:17Z</time>
      </trkpt>
      <trkpt lat="45.86482" lon="4.70836">
        <ele>202.49</ele>
        <time>2013-09-14T07:23:18Z</time>
      </trkpt>
      <trkpt lat="45.86478" lon="4.70834">
        <ele>202.49</ele>
        <time>2013-09-14T07:23:19Z</time>
      </trkpt>
      <trkpt lat="45.86474" lon="4.70832">
        <ele>202.98</ele>
        <time>2013-09-14T07:23:20Z</time>
      </trkpt>
      <trkpt lat="45.8647" lon="4.7083">
        <ele>202.98</ele>
        <time>2013-09-14T07:23:21Z</time>
      </trkpt>
      <trkpt lat="45.86466" lon="4.70828">
        <ele>202.49</ele>
        <time>2013-09-14T07:23:22Z</time>
      </trkpt>
      <trkpt lat="45.86462" lon="4.70826">
        <ele>202.49</ele>
        <time>2013-09-14T07:23:23Z</time>
      </trkpt>
      <trkpt lat="45.86457" lon="4.70824">
        <ele>202.49</ele>
        <time>2013-09-14T07:23:24Z</time>
      </trkpt>
      <trkpt lat="45.86453" lon="4.70821">
        <ele>202.98</ele>
        <time>2013-09-14T07:23:25Z</time>
      </trkpt>
      <trkpt lat="45.86415" lon="4.70793">
        <ele>203.46</ele>
        <time>2013-09-14T07:23:35Z</time>
      </trkpt>
      <trkpt lat="45.86404" lon="4.70784">
        <ele>202.98</ele>
        <time>2013-09-14T07:23:38Z</time>
      </trkpt>
      <trkpt lat="45.86401" lon="4.7078">
        <ele>202.98</ele>
        <time>2013-09-14T07:23:39Z</time>
      </trkpt>
      <trkpt lat="45.86372" lon="4.70746">
        <ele>203.46</ele>
        <time>2013-09-14T07:23:48Z</time>
      </trkpt>
      <trkpt lat="45.86329" lon="4.707">
        <ele>203.94</ele>
        <time>2013-09-14T07:23:59Z</time>
      </trkpt>
      <trkpt lat="45.86313" lon="4.70678">
        <ele>203.94</ele>
        <time>2013-09-14T07:24:04Z</time>
      </trkpt>
      <trkpt lat="45.86306" lon="4.7067">
        <ele>203.94</ele>
        <time>2013-09-14T07:24:06Z</time>
      </trkpt>
      <trkpt lat="45.86286" lon="4.70645">
        <ele>203.94</ele>
        <time>2013-09-14T07:24:12Z</time>
      </trkpt>
      <trkpt lat="45.86253" lon="4.70596">
        <ele>203.46</ele>
        <time>2013-09-14T07:24:23Z</time>
      </trkpt>
      <trkpt lat="45.86235" lon="4.7056">
        <ele>202.98</ele>
        <time>2013-09-14T07:24:30Z</time>
      </trkpt>
      <trkpt lat="45.86219" lon="4.70519">
        <ele>202.49</ele>
        <time>2013-09-14T07:24:39Z</time>
      </trkpt>
      <trkpt lat="45.86209" lon="4.70491">
        <ele>202.98</ele>
        <time>2013-09-14T07:24:45Z</time>
      </trkpt>
      <trkpt lat="45.86208" lon="4.70485">
        <ele>202.49</ele>
        <time>2013-09-14T07:24:46Z</time>
      </trkpt>
      <trkpt lat="45.86207" lon="4.70479">
        <ele>202.98</ele>
        <time>2013-09-14T07:24:47Z</time>
      </trkpt>
      <trkpt lat="45.86204" lon="4.70466">
        <ele>202.98</ele>
        <time>2013-09-14T07:24:49Z</time>
      </trkpt>
      <trkpt lat="45.86201" lon="4.70421">
        <ele>202.98</ele>
        <time>2013-09-14T07:24:58Z</time>
      </trkpt>
      <trkpt lat="45.86199" lon="4.70386">
        <ele>203.46</ele>
        <time>2013-09-14T07:25:06Z</time>
      </trkpt>
      <trkpt lat="45.86206" lon="4.70355">
        <ele>203.46</ele>
        <time>2013-09-14T07:25:11Z</time>
      </trkpt>
      <trkpt lat="45.86207" lon="4.70348">
        <ele>203.46</ele>
        <time>2013-09-14T07:25:12Z</time>
      </trkpt>
      <trkpt lat="45.86209" lon="4.70333">
        <ele>203.46</ele>
        <time>2013-09-14T07:25:14Z</time>
      </trkpt>
      <trkpt lat="45.86223" lon="4.70294">
        <ele>202.98</ele>
        <time>2013-09-14T07:25:22Z</time>
      </trkpt>
      <trkpt lat="45.86238" lon="4.70246">
        <ele>202.98</ele>
        <time>2013-09-14T07:25:31Z</time>
      </trkpt>
      <trkpt lat="45.8625" lon="4.70221">
        <ele>202.49</ele>
        <time>2013-09-14T07:25:36Z</time>
      </trkpt>
      <trkpt lat="45.86255" lon="4.70212">
        <ele>202.49</ele>
        <time>2013-09-14T07:25:38Z</time>
      </trkpt>
      <trkpt lat="45.86258" lon="4.70207">
        <ele>202.01</ele>
        <time>2013-09-14T07:25:39Z</time>
      </trkpt>
      <trkpt lat="45.86274" lon="4.70188">
        <ele>202.49</ele>
        <time>2013-09-14T07:25:44Z</time>
      </trkpt>
      <trkpt lat="45.86306" lon="4.70155">
        <ele>202.49</ele>
        <time>2013-09-14T07:25:54Z</time>
      </trkpt>
      <trkpt lat="45.86323" lon="4.70125">
        <ele>202.49</ele>
        <time>2013-09-14T07:26:01Z</time>
      </trkpt>
      <trkpt lat="45.86339" lon="4.70087">
        <ele>202.49</ele>
        <time>2013-09-14T07:26:09Z</time>
      </trkpt>
      <trkpt lat="45.86352" lon="4.70046">
        <ele>202.98</ele>
        <time>2013-09-14T07:26:17Z</time>
      </trkpt>
      <trkpt lat="45.86359" lon="4.69995">
        <ele>203.94</ele>
        <time>2013-09-14T07:26:26Z</time>
      </trkpt>
      <trkpt lat="45.8636" lon="4.6997">
        <ele>203.94</ele>
        <time>2013-09-14T07:26:30Z</time>
      </trkpt>
      <trkpt lat="45.86355" lon="4.69941">
        <ele>203.94</ele>
        <time>2013-09-14T07:26:35Z</time>
      </trkpt>
      <trkpt lat="45.86351" lon="4.69917">
        <ele>203.94</ele>
        <time>2013-09-14T07:26:39Z</time>
      </trkpt>
      <trkpt lat="45.86348" lon="4.69905">
        <ele>203.94</ele>
        <time>2013-09-14T07:26:41Z</time>
      </trkpt>
      <trkpt lat="45.86337" lon="4.69868">
        <ele>204.42</ele>
        <time>2013-09-14T07:26:47Z</time>
      </trkpt>
      <trkpt lat="45.86335" lon="4.69861">
        <ele>204.42</ele>
        <time>2013-09-14T07:26:48Z</time>
      </trkpt>
      <trkpt lat="45.86333" lon="4.69855">
        <ele>204.42</ele>
        <time>2013-09-14T07:26:49Z</time>
      </trkpt>
      <trkpt lat="45.8633" lon="4.69849">
        <ele>204.42</ele>
        <time>2013-09-14T07:26:50Z</time>
      </trkpt>
      <trkpt lat="45.86327" lon="4.69844">
        <ele>203.94</ele>
        <time>2013-09-14T07:26:51Z</time>
      </trkpt>
      <trkpt lat="45.86324" lon="4.69838">
        <ele>203.94</ele>
        <time>2013-09-14T07:26:52Z</time>
      </trkpt>
      <trkpt lat="45.8632" lon="4.69834">
        <ele>203.94</ele>
        <time>2013-09-14T07:26:53Z</time>
      </trkpt>
      <trkpt lat="45.86311" lon="4.69829">
        <ele>203.94</ele>
        <time>2013-09-14T07:26:55Z</time>
      </trkpt>
      <trkpt lat="45.86307" lon="4.69827">
        <ele>203.94</ele>
        <time>2013-09-14T07:26:56Z</time>
      </trkpt>
      <trkpt lat="45.86302" lon="4.69827">
        <ele>203.94</ele>
        <time>2013-09-14T07:26:57Z</time>
      </trkpt>
      <trkpt lat="45.86291" lon="4.69827">
        <ele>204.42</ele>
        <time>2013-09-14T07:26:59Z</time>
      </trkpt>
      <trkpt lat="45.86282" lon="4.69831">
        <ele>203.94</ele>
        <time>2013-09-14T07:27:01Z</time>
      </trkpt>
      <trkpt lat="45.86263" lon="4.69839">
        <ele>203.94</ele>
        <time>2013-09-14T07:27:05Z</time>
      </trkpt>
      <trkpt lat="45.86258" lon="4.6984">
        <ele>204.42</ele>
        <time>2013-09-14T07:27:06Z</time>
      </trkpt>
      <trkpt lat="45.8623" lon="4.69852">
        <ele>204.42</ele>
        <time>2013-09-14T07:27:12Z</time>
      </trkpt>
      <trkpt lat="45.86226" lon="4.69855">
        <ele>204.42</ele>
        <time>2013-09-14T07:27:13Z</time>
      </trkpt>
      <trkpt lat="45.86185" lon="4.69894">
        <ele>205.86</ele>
        <time>2013-09-14T07:27:24Z</time>
      </trkpt>
      <trkpt lat="45.86178" lon="4.699">
        <ele>205.86</ele>
        <time>2013-09-14T07:27:26Z</time>
      </trkpt>
      <trkpt lat="45.86146" lon="4.69923">
        <ele>205.38</ele>
        <time>2013-09-14T07:27:34Z</time>
      </trkpt>
      <trkpt lat="45.86124" lon="4.69936">
        <ele>205.86</ele>
        <time>2013-09-14T07:27:39Z</time>
      </trkpt>
      <trkpt lat="45.86082" lon="4.69948">
        <ele>206.34</ele>
        <time>2013-09-14T07:27:49Z</time>
      </trkpt>
      <trkpt lat="45.86077" lon="4.69948">
        <ele>206.34</ele>
        <time>2013-09-14T07:27:50Z</time>
      </trkpt>
      <trkpt lat="45.86038" lon="4.69946">
        <ele>206.34</ele>
        <time>2013-09-14T07:27:59Z</time>
      </trkpt>
      <trkpt lat="45.86014" lon="4.6994">
        <ele>205.38</ele>
        <time>2013-09-14T07:28:06Z</time>
      </trkpt>
      <trkpt lat="45.85992" lon="4.69937">
        <ele>205.38</ele>
        <time>2013-09-14T07:28:11Z</time>
      </trkpt>
      <trkpt lat="45.85988" lon="4.69936">
        <ele>205.38</ele>
        <time>2013-09-14T07:28:12Z</time>
      </trkpt>
      <trkpt lat="45.85975" lon="4.69927">
        <ele>205.38</ele>
        <time>2013-09-14T07:28:15Z</time>
      </trkpt>
      <trkpt lat="45.85971" lon="4.69924">
        <ele>205.38</ele>
        <time>2013-09-14T07:28:16Z</time>
      </trkpt>
      <trkpt lat="45.85943" lon="4.69892">
        <ele>205.38</ele>
        <time>2013-09-14T07:28:23Z</time>
      </trkpt>
      <trkpt lat="45.85935" lon="4.69882">
        <ele>205.38</ele>
        <time>2013-09-14T07:28:25Z</time>
      </trkpt>
      <trkpt lat="45.85928" lon="4.69872">
        <ele>205.38</ele>
        <time>2013-09-14T07:28:27Z</time>
      </trkpt>
      <trkpt lat="45.85924" lon="4.69868">
        <ele>204.9</ele>
        <time>2013-09-14T07:28:28Z</time>
      </trkpt>
      <trkpt lat="45.85908" lon="4.69849">
        <ele>204.9</ele>
        <time>2013-09-14T07:28:32Z</time>
      </trkpt>
      <trkpt lat="45.85904" lon="4.69845">
        <ele>204.9</ele>
        <time>2013-09-14T07:28:33Z</time>
      </trkpt>
      <trkpt lat="45.85885" lon="4.69821">
        <ele>205.38</ele>
        <time>2013-09-14T07:28:38Z</time>
      </trkpt>
      <trkpt lat="45.85881" lon="4.69818">
        <ele>205.38</ele>
        <time>2013-09-14T07:28:39Z</time>
      </trkpt>
      <trkpt lat="45.85877" lon="4.69817">
        <ele>205.38</ele>
        <time>2013-09-14T07:28:40Z</time>
      </trkpt>
      <trkpt lat="45.85872" lon="4.69818">
        <ele>205.86</ele>
        <time>2013-09-14T07:28:41Z</time>
      </trkpt>
      <trkpt lat="45.85869" lon="4.69819">
        <ele>205.38</ele>
        <time>2013-09-14T07:28:42Z</time>
      </trkpt>
      <trkpt lat="45.85865" lon="4.69819">
        <ele>205.38</ele>
        <time>2013-09-14T07:28:43Z</time>
      </trkpt>
      <trkpt lat="45.85862" lon="4.69819">
        <ele>205.86</ele>
        <time>2013-09-14T07:28:44Z</time>
      </trkpt>
      <trkpt lat="45.8585" lon="4.69821">
        <ele>205.38</ele>
        <time>2013-09-14T07:28:48Z</time>
      </trkpt>
      <trkpt lat="45.85844" lon="4.69823">
        <ele>202.01</ele>
        <time>2013-09-14T07:28:52Z</time>
      </trkpt>
      <trkpt lat="45.85844" lon="4.69823">
        <ele>203.46</ele>
        <time>2013-09-14T07:28:53Z</time>
      </trkpt>
      <trkpt lat="45.85844" lon="4.69821">
        <ele>205.38</ele>
        <time>2013-09-14T07:28:55Z</time>
      </trkpt>
      <trkpt lat="45.85839" lon="4.69818">
        <ele>205.38</ele>
        <time>2013-09-14T07:29:04Z</time>
      </trkpt>
      <trkpt lat="45.85839" lon="4.69818">
        <ele>205.38</ele>
        <time>2013-09-14T07:29:16Z</time>
      </trkpt>
      <trkpt lat="45.85839" lon="4.69818">
        <ele>204.9</ele>
        <time>2013-09-14T07:29:31Z</time>
      </trkpt>
      <trkpt lat="45.85839" lon="4.69818">
        <ele>204.9</ele>
        <time>2013-09-14T07:29:44Z</time>
      </trkpt>
      <trkpt lat="45.85839" lon="4.69819">
        <ele>204.9</ele>
        <time>2013-09-14T07:29:59Z</time>
      </trkpt>
      <trkpt lat="45.85839" lon="4.69819">
        <ele>205.38</ele>
        <time>2013-09-14T07:30:18Z</time>
      </trkpt>
      <trkpt lat="45.85839" lon="4.69819">
        <ele>205.38</ele>
        <time>2013-09-14T07:30:32Z</time>
      </trkpt>
      <trkpt lat="45.85839" lon="4.69819">
        <ele>205.38</ele>
        <time>2013-09-14T07:30:45Z</time>
      </trkpt>
      <trkpt lat="45.85839" lon="4.69819">
        <ele>204.9</ele>
        <time>2013-09-14T07:31:00Z</time>
      </trkpt>
      <trkpt lat="45.85839" lon="4.69819">
        <ele>204.9</ele>
        <time>2013-09-14T07:31:16Z</time>
      </trkpt>
      <trkpt lat="45.85839" lon="4.69819">
        <ele>204.42</ele>
        <time>2013-09-14T07:31:35Z</time>
      </trkpt>
      <trkpt lat="45.85837" lon="4.69819">
        <ele>204.9</ele>
        <time>2013-09-14T07:31:37Z</time>
      </trkpt>
      <trkpt lat="45.85836" lon="4.69818">
        <ele>204.9</ele>
        <time>2013-09-14T07:31:38Z</time>
      </trkpt>
      <trkpt lat="45.85834" lon="4.69816">
        <ele>204.42</ele>
        <time>2013-09-14T07:31:40Z</time>
      </trkpt>
      <trkpt lat="45.85832" lon="4.69816">
        <ele>204.9</ele>
        <time>2013-09-14T07:31:41Z</time>
      </trkpt>
      <trkpt lat="45.85831" lon="4.69814">
        <ele>204.42</ele>
        <time>2013-09-14T07:31:42Z</time>
      </trkpt>
      <trkpt lat="45.8583" lon="4.69812">
        <ele>204.9</ele>
        <time>2013-09-14T07:31:43Z</time>
      </trkpt>
      <trkpt lat="45.85829" lon="4.69809">
        <ele>204.42</ele>
        <time>2013-09-14T07:31:44Z</time>
      </trkpt>
      <trkpt lat="45.85828" lon="4.69806">
        <ele>204.9</ele>
        <time>2013-09-14T07:31:45Z</time>
      </trkpt>
      <trkpt lat="45.85823" lon="4.69768">
        <ele>204.9</ele>
        <time>2013-09-14T07:31:54Z</time>
      </trkpt>
      <trkpt lat="45.85817" lon="4.69712">
        <ele>205.38</ele>
        <time>2013-09-14T07:32:04Z</time>
      </trkpt>
      <trkpt lat="45.85816" lon="4.69706">
        <ele>205.38</ele>
        <time>2013-09-14T07:32:05Z</time>
      </trkpt>
      <trkpt lat="45.85816" lon="4.697">
        <ele>205.38</ele>
        <time>2013-09-14T07:32:06Z</time>
      </trkpt>
      <trkpt lat="45.85815" lon="4.69693">
        <ele>205.38</ele>
        <time>2013-09-14T07:32:07Z</time>
      </trkpt>
      <trkpt lat="45.85798" lon="4.69633">
        <ele>205.38</ele>
        <time>2013-09-14T07:32:17Z</time>
      </trkpt>
      <trkpt lat="45.85788" lon="4.69594">
        <ele>205.38</ele>
        <time>2013-09-14T07:32:23Z</time>
      </trkpt>
      <trkpt lat="45.85773" lon="4.69512">
        <ele>205.38</ele>
        <time>2013-09-14T07:32:35Z</time>
      </trkpt>
      <trkpt lat="45.85767" lon="4.69473">
        <ele>205.38</ele>
        <time>2013-09-14T07:32:41Z</time>
      </trkpt>
      <trkpt lat="45.85766" lon="4.69466">
        <ele>205.38</ele>
        <time>2013-09-14T07:32:42Z</time>
      </trkpt>
      <trkpt lat="45.85763" lon="4.69446">
        <ele>205.38</ele>
        <time>2013-09-14T07:32:45Z</time>
      </trkpt>
      <trkpt lat="45.85762" lon="4.69439">
        <ele>205.38</ele>
        <time>2013-09-14T07:32:46Z</time>
      </trkpt>
      <trkpt lat="45.85761" lon="4.69425">
        <ele>204.9</ele>
        <time>2013-09-14T07:32:48Z</time>
      </trkpt>
      <trkpt lat="45.85758" lon="4.69397">
        <ele>205.86</ele>
        <time>2013-09-14T07:32:52Z</time>
      </trkpt>
      <trkpt lat="45.85757" lon="4.69368">
        <ele>204.9</ele>
        <time>2013-09-14T07:32:56Z</time>
      </trkpt>
      <trkpt lat="45.85761" lon="4.69293">
        <ele>204.9</ele>
        <time>2013-09-14T07:33:07Z</time>
      </trkpt>
      <trkpt lat="45.85762" lon="4.69235">
        <ele>204.9</ele>
        <time>2013-09-14T07:33:18Z</time>
      </trkpt>
      <trkpt lat="45.85763" lon="4.6923">
        <ele>205.38</ele>
        <time>2013-09-14T07:33:25Z</time>
      </trkpt>
      <trkpt lat="45.85763" lon="4.69227">
        <ele>204.9</ele>
        <time>2013-09-14T07:33:34Z</time>
      </trkpt>
      <trkpt lat="45.85765" lon="4.6922">
        <ele>205.38</ele>
        <time>2013-09-14T07:33:39Z</time>
      </trkpt>
      <trkpt lat="45.85766" lon="4.69218">
        <ele>205.38</ele>
        <time>2013-09-14T07:33:40Z</time>
      </trkpt>
      <trkpt lat="45.85772" lon="4.69174">
        <ele>205.38</ele>
        <time>2013-09-14T07:33:49Z</time>
      </trkpt>
      <trkpt lat="45.85777" lon="4.69151">
        <ele>205.86</ele>
        <time>2013-09-14T07:33:53Z</time>
      </trkpt>
      <trkpt lat="45.85781" lon="4.69126">
        <ele>205.86</ele>
        <time>2013-09-14T07:33:57Z</time>
      </trkpt>
      <trkpt lat="45.85782" lon="4.6912">
        <ele>205.86</ele>
        <time>2013-09-14T07:33:58Z</time>
      </trkpt>
      <trkpt lat="45.85789" lon="4.69087">
        <ele>205.38</ele>
        <time>2013-09-14T07:34:03Z</time>
      </trkpt>
      <trkpt lat="45.8579" lon="4.6908">
        <ele>205.86</ele>
        <time>2013-09-14T07:34:04Z</time>
      </trkpt>
      <trkpt lat="45.85795" lon="4.69052">
        <ele>205.86</ele>
        <time>2013-09-14T07:34:08Z</time>
      </trkpt>
      <trkpt lat="45.85804" lon="4.68957">
        <ele>205.86</ele>
        <time>2013-09-14T07:34:21Z</time>
      </trkpt>
      <trkpt lat="45.85805" lon="4.6895">
        <ele>205.86</ele>
        <time>2013-09-14T07:34:22Z</time>
      </trkpt>
      <trkpt lat="45.85806" lon="4.68943">
        <ele>205.86</ele>
        <time>2013-09-14T07:34:23Z</time>
      </trkpt>
      <trkpt lat="45.85806" lon="4.68936">
        <ele>205.86</ele>
        <time>2013-09-14T07:34:24Z</time>
      </trkpt>
      <trkpt lat="45.85807" lon="4.6893">
        <ele>205.86</ele>
        <time>2013-09-14T07:34:25Z</time>
      </trkpt>
      <trkpt lat="45.85808" lon="4.68923">
        <ele>205.86</ele>
        <time>2013-09-14T07:34:26Z</time>
      </trkpt>
      <trkpt lat="45.85809" lon="4.68916">
        <ele>206.34</ele>
        <time>2013-09-14T07:34:27Z</time>
      </trkpt>
      <trkpt lat="45.85809" lon="4.6891">
        <ele>206.34</ele>
        <time>2013-09-14T07:34:28Z</time>
      </trkpt>
      <trkpt lat="45.85813" lon="4.68856">
        <ele>206.82</ele>
        <time>2013-09-14T07:34:37Z</time>
      </trkpt>
      <trkpt lat="45.85815" lon="4.68841">
        <ele>206.34</ele>
        <time>2013-09-14T07:34:43Z</time>
      </trkpt>
      <trkpt lat="45.85814" lon="4.68837">
        <ele>206.34</ele>
        <time>2013-09-14T07:34:53Z</time>
      </trkpt>
      <trkpt lat="45.85813" lon="4.68831">
        <ele>206.34</ele>
        <time>2013-09-14T07:34:59Z</time>
      </trkpt>
      <trkpt lat="45.85808" lon="4.68798">
        <ele>207.3</ele>
        <time>2013-09-14T07:35:09Z</time>
      </trkpt>
      <trkpt lat="45.85812" lon="4.68754">
        <ele>207.3</ele>
        <time>2013-09-14T07:35:17Z</time>
      </trkpt>
      <trkpt lat="45.85815" lon="4.68753">
        <ele>207.3</ele>
        <time>2013-09-14T07:35:18Z</time>
      </trkpt>
      <trkpt lat="45.85818" lon="4.68753">
        <ele>207.3</ele>
        <time>2013-09-14T07:35:19Z</time>
      </trkpt>
      <trkpt lat="45.85821" lon="4.68754">
        <ele>207.3</ele>
        <time>2013-09-14T07:35:20Z</time>
      </trkpt>
      <trkpt lat="45.85824" lon="4.68755">
        <ele>206.82</ele>
        <time>2013-09-14T07:35:21Z</time>
      </trkpt>
      <trkpt lat="45.85839" lon="4.68756">
        <ele>207.3</ele>
        <time>2013-09-14T07:35:27Z</time>
      </trkpt>
      <trkpt lat="45.8584" lon="4.68758">
        <ele>206.82</ele>
        <time>2013-09-14T07:35:28Z</time>
      </trkpt>
      <trkpt lat="45.85842" lon="4.6876">
        <ele>207.3</ele>
        <time>2013-09-14T07:35:29Z</time>
      </trkpt>
      <trkpt lat="45.85842" lon="4.68762">
        <ele>207.3</ele>
        <time>2013-09-14T07:35:30Z</time>
      </trkpt>
      <trkpt lat="45.85843" lon="4.68765">
        <ele>207.3</ele>
        <time>2013-09-14T07:35:31Z</time>
      </trkpt>
      <trkpt lat="45.85845" lon="4.68766">
        <ele>207.3</ele>
        <time>2013-09-14T07:35:32Z</time>
      </trkpt>
      <trkpt lat="45.85846" lon="4.68767">
        <ele>207.78</ele>
        <time>2013-09-14T07:35:33Z</time>
      </trkpt>
      <trkpt lat="45.85847" lon="4.68768">
        <ele>208.26</ele>
        <time>2013-09-14T07:35:34Z</time>
      </trkpt>
      <trkpt lat="45.85849" lon="4.68769">
        <ele>207.78</ele>
        <time>2013-09-14T07:35:35Z</time>
      </trkpt>
      <trkpt lat="45.85874" lon="4.68777">
        <ele>207.78</ele>
        <time>2013-09-14T07:35:45Z</time>
      </trkpt>
      <trkpt lat="45.85875" lon="4.68774">
        <ele>208.26</ele>
        <time>2013-09-14T07:35:47Z</time>
      </trkpt>
      <trkpt lat="45.85875" lon="4.68772">
        <ele>207.78</ele>
        <time>2013-09-14T07:35:48Z</time>
      </trkpt>
      <trkpt lat="45.85876" lon="4.68769">
        <ele>207.78</ele>
        <time>2013-09-14T07:35:49Z</time>
      </trkpt>
      <trkpt lat="45.85877" lon="4.68767">
        <ele>207.3</ele>
        <time>2013-09-14T07:35:56Z</time>
      </trkpt>
      <trkpt lat="45.85877" lon="4.68767">
        <ele>207.3</ele>
        <time>2013-09-14T07:36:17Z</time>
      </trkpt>
      <trkpt lat="45.85878" lon="4.68766">
        <ele>207.3</ele>
        <time>2013-09-14T07:36:28Z</time>
      </trkpt>
      <trkpt lat="45.85878" lon="4.68766">
        <ele>206.82</ele>
        <time>2013-09-14T07:36:45Z</time>
      </trkpt>
      <trkpt lat="45.85878" lon="4.68769">
        <ele>206.82</ele>
        <time>2013-09-14T07:36:49Z</time>
      </trkpt>
      <trkpt lat="45.85875" lon="4.68776">
        <ele>206.82</ele>
        <time>2013-09-14T07:36:58Z</time>
      </trkpt>
      <trkpt lat="45.85875" lon="4.68779">
        <ele>207.3</ele>
        <time>2013-09-14T07:36:59Z</time>
      </trkpt>
      <trkpt lat="45.85871" lon="4.68793">
        <ele>206.82</ele>
        <time>2013-09-14T07:37:02Z</time>
      </trkpt>
      <trkpt lat="45.8587" lon="4.68799">
        <ele>207.3</ele>
        <time>2013-09-14T07:37:03Z</time>
      </trkpt>
      <trkpt lat="45.85863" lon="4.6888">
        <ele>207.3</ele>
        <time>2013-09-14T07:37:15Z</time>
      </trkpt>
      <trkpt lat="45.85858" lon="4.68961">
        <ele>207.78</ele>
        <time>2013-09-14T07:37:27Z</time>
      </trkpt>
      <trkpt lat="45.85858" lon="4.68967">
        <ele>207.3</ele>
        <time>2013-09-14T07:37:28Z</time>
      </trkpt>
      <trkpt lat="45.85859" lon="4.68974">
        <ele>207.3</ele>
        <time>2013-09-14T07:37:29Z</time>
      </trkpt>
      <trkpt lat="45.8586" lon="4.6898">
        <ele>207.3</ele>
        <time>2013-09-14T07:37:30Z</time>
      </trkpt>
      <trkpt lat="45.85861" lon="4.68987">
        <ele>207.78</ele>
        <time>2013-09-14T07:37:31Z</time>
      </trkpt>
      <trkpt lat="45.85862" lon="4.68993">
        <ele>206.82</ele>
        <time>2013-09-14T07:37:32Z</time>
      </trkpt>
      <trkpt lat="45.85863" lon="4.69">
        <ele>207.3</ele>
        <time>2013-09-14T07:37:33Z</time>
      </trkpt>
      <trkpt lat="45.85866" lon="4.69012">
        <ele>207.3</ele>
        <time>2013-09-14T07:37:35Z</time>
      </trkpt>
      <trkpt lat="45.85867" lon="4.69018">
        <ele>206.34</ele>
        <time>2013-09-14T07:37:36Z</time>
      </trkpt>
      <trkpt lat="45.85868" lon="4.69022">
        <ele>206.82</ele>
        <time>2013-09-14T07:37:37Z</time>
      </trkpt>
      <trkpt lat="45.85869" lon="4.69026">
        <ele>207.3</ele>
        <time>2013-09-14T07:37:38Z</time>
      </trkpt>
      <trkpt lat="45.8587" lon="4.6903">
        <ele>206.82</ele>
        <time>2013-09-14T07:37:39Z</time>
      </trkpt>
      <trkpt lat="45.85871" lon="4.69033">
        <ele>206.82</ele>
        <time>2013-09-14T07:37:40Z</time>
      </trkpt>
      <trkpt lat="45.85873" lon="4.69037">
        <ele>206.82</ele>
        <time>2013-09-14T07:37:41Z</time>
      </trkpt>
      <trkpt lat="45.85876" lon="4.6904">
        <ele>206.82</ele>
        <time>2013-09-14T07:37:42Z</time>
      </trkpt>
      <trkpt lat="45.8588" lon="4.69044">
        <ele>207.3</ele>
        <time>2013-09-14T07:37:43Z</time>
      </trkpt>
      <trkpt lat="45.85883" lon="4.69048">
        <ele>207.3</ele>
        <time>2013-09-14T07:37:44Z</time>
      </trkpt>
      <trkpt lat="45.85886" lon="4.69053">
        <ele>207.3</ele>
        <time>2013-09-14T07:37:45Z</time>
      </trkpt>
      <trkpt lat="45.8589" lon="4.69058">
        <ele>207.3</ele>
        <time>2013-09-14T07:37:46Z</time>
      </trkpt>
      <trkpt lat="45.85894" lon="4.69063">
        <ele>207.3</ele>
        <time>2013-09-14T07:37:47Z</time>
      </trkpt>
      <trkpt lat="45.85898" lon="4.69068">
        <ele>207.3</ele>
        <time>2013-09-14T07:37:48Z</time>
      </trkpt>
      <trkpt lat="45.85902" lon="4.69072">
        <ele>207.3</ele>
        <time>2013-09-14T07:37:49Z</time>
      </trkpt>
      <trkpt lat="45.85906" lon="4.69076">
        <ele>207.78</ele>
        <time>2013-09-14T07:37:50Z</time>
      </trkpt>
      <trkpt lat="45.85959" lon="4.69096">
        <ele>207.78</ele>
        <time>2013-09-14T07:38:00Z</time>
      </trkpt>
      <trkpt lat="45.85964" lon="4.69097">
        <ele>207.78</ele>
        <time>2013-09-14T07:38:01Z</time>
      </trkpt>
      <trkpt lat="45.86023" lon="4.69093">
        <ele>207.3</ele>
        <time>2013-09-14T07:38:11Z</time>
      </trkpt>
      <trkpt lat="45.8609" lon="4.69085">
        <ele>208.26</ele>
        <time>2013-09-14T07:38:22Z</time>
      </trkpt>
      <trkpt lat="45.86095" lon="4.69084">
        <ele>208.74</ele>
        <time>2013-09-14T07:38:23Z</time>
      </trkpt>
      <trkpt lat="45.861" lon="4.69084">
        <ele>209.22</ele>
        <time>2013-09-14T07:38:24Z</time>
      </trkpt>
      <trkpt lat="45.86104" lon="4.69084">
        <ele>209.7</ele>
        <time>2013-09-14T07:38:25Z</time>
      </trkpt>
      <trkpt lat="45.8612" lon="4.69084">
        <ele>209.7</ele>
        <time>2013-09-14T07:38:32Z</time>
      </trkpt>
      <trkpt lat="45.86119" lon="4.6908">
        <ele>209.7</ele>
        <time>2013-09-14T07:38:43Z</time>
      </trkpt>
      <trkpt lat="45.86117" lon="4.69079">
        <ele>209.7</ele>
        <time>2013-09-14T07:38:44Z</time>
      </trkpt>
      <trkpt lat="45.86116" lon="4.69077">
        <ele>209.22</ele>
        <time>2013-09-14T07:38:45Z</time>
      </trkpt>
      <trkpt lat="45.86114" lon="4.69075">
        <ele>209.7</ele>
        <time>2013-09-14T07:38:46Z</time>
      </trkpt>
      <trkpt lat="45.86111" lon="4.69072">
        <ele>209.22</ele>
        <time>2013-09-14T07:38:47Z</time>
      </trkpt>
      <trkpt lat="45.86109" lon="4.69068">
        <ele>209.22</ele>
        <time>2013-09-14T07:38:48Z</time>
      </trkpt>
      <trkpt lat="45.86106" lon="4.69063">
        <ele>208.74</ele>
        <time>2013-09-14T07:38:49Z</time>
      </trkpt>
      <trkpt lat="45.86103" lon="4.69059">
        <ele>208.74</ele>
        <time>2013-09-14T07:38:50Z</time>
      </trkpt>
      <trkpt lat="45.86069" lon="4.68997">
        <ele>207.3</ele>
        <time>2013-09-14T07:39:02Z</time>
      </trkpt>
      <trkpt lat="45.86063" lon="4.68986">
        <ele>207.3</ele>
        <time>2013-09-14T07:39:04Z</time>
      </trkpt>
      <trkpt lat="45.86051" lon="4.68956">
        <ele>207.3</ele>
        <time>2013-09-14T07:39:09Z</time>
      </trkpt>
      <trkpt lat="45.86033" lon="4.68875">
        <ele>207.78</ele>
        <time>2013-09-14T07:39:22Z</time>
      </trkpt>
      <trkpt lat="45.86029" lon="4.6885">
        <ele>207.78</ele>
        <time>2013-09-14T07:39:26Z</time>
      </trkpt>
      <trkpt lat="45.86026" lon="4.68819">
        <ele>207.3</ele>
        <time>2013-09-14T07:39:31Z</time>
      </trkpt>
      <trkpt lat="45.86025" lon="4.68812">
        <ele>207.3</ele>
        <time>2013-09-14T07:39:32Z</time>
      </trkpt>
      <trkpt lat="45.86024" lon="4.68806">
        <ele>207.78</ele>
        <time>2013-09-14T07:39:33Z</time>
      </trkpt>
      <trkpt lat="45.86022" lon="4.688">
        <ele>207.78</ele>
        <time>2013-09-14T07:39:34Z</time>
      </trkpt>
      <trkpt lat="45.86021" lon="4.68794">
        <ele>207.78</ele>
        <time>2013-09-14T07:39:35Z</time>
      </trkpt>
      <trkpt lat="45.86019" lon="4.68789">
        <ele>207.78</ele>
        <time>2013-09-14T07:39:36Z</time>
      </trkpt>
      <trkpt lat="45.86016" lon="4.68784">
        <ele>207.3</ele>
        <time>2013-09-14T07:39:37Z</time>
      </trkpt>
      <trkpt lat="45.86014" lon="4.6878">
        <ele>207.3</ele>
        <time>2013-09-14T07:39:38Z</time>
      </trkpt>
      <trkpt lat="45.86013" lon="4.68775">
        <ele>207.78</ele>
        <time>2013-09-14T07:39:39Z</time>
      </trkpt>
      <trkpt lat="45.86006" lon="4.68725">
        <ele>207.78</ele>
        <time>2013-09-14T07:39:49Z</time>
      </trkpt>
      <trkpt lat="45.85996" lon="4.68689">
        <ele>208.26</ele>
        <time>2013-09-14T07:39:57Z</time>
      </trkpt>
      <trkpt lat="45.85998" lon="4.68686">
        <ele>208.26</ele>
        <time>2013-09-14T07:39:58Z</time>
      </trkpt>
      <trkpt lat="45.8602" lon="4.68648">
        <ele>209.22</ele>
        <time>2013-09-14T07:40:08Z</time>
      </trkpt>
      <trkpt lat="45.8602" lon="4.68615">
        <ele>212.59</ele>
        <time>2013-09-14T07:40:16Z</time>
      </trkpt>
      <trkpt lat="45.86023" lon="4.68591">
        <ele>214.03</ele>
        <time>2013-09-14T07:40:25Z</time>
      </trkpt>
      <trkpt lat="45.86028" lon="4.68568">
        <ele>216.43</ele>
        <time>2013-09-14T07:40:35Z</time>
      </trkpt>
      <trkpt lat="45.8603" lon="4.68567">
        <ele>216.91</ele>
        <time>2013-09-14T07:40:36Z</time>
      </trkpt>
      <trkpt lat="45.86031" lon="4.68567">
        <ele>217.4</ele>
        <time>2013-09-14T07:40:37Z</time>
      </trkpt>
      <trkpt lat="45.86033" lon="4.68566">
        <ele>217.4</ele>
        <time>2013-09-14T07:40:38Z</time>
      </trkpt>
      <trkpt lat="45.86035" lon="4.68565">
        <ele>217.4</ele>
        <time>2013-09-14T07:40:39Z</time>
      </trkpt>
      <trkpt lat="45.86037" lon="4.68565">
        <ele>218.36</ele>
        <time>2013-09-14T07:40:40Z</time>
      </trkpt>
      <trkpt lat="45.86039" lon="4.68564">
        <ele>217.88</ele>
        <time>2013-09-14T07:40:41Z</time>
      </trkpt>
      <trkpt lat="45.86041" lon="4.68564">
        <ele>217.88</ele>
        <time>2013-09-14T07:40:42Z</time>
      </trkpt>
      <trkpt lat="45.8606" lon="4.68567">
        <ele>221.24</ele>
        <time>2013-09-14T07:40:54Z</time>
      </trkpt>
      <trkpt lat="45.86073" lon="4.68573">
        <ele>223.64</ele>
        <time>2013-09-14T07:41:05Z</time>
      </trkpt>
      <trkpt lat="45.86087" lon="4.68581">
        <ele>226.05</ele>
        <time>2013-09-14T07:41:16Z</time>
      </trkpt>
      <trkpt lat="45.86094" lon="4.68588">
        <ele>226.53</ele>
        <time>2013-09-14T07:41:21Z</time>
      </trkpt>
      <trkpt lat="45.86095" lon="4.68589">
        <ele>227.01</ele>
        <time>2013-09-14T07:41:22Z</time>
      </trkpt>
      <trkpt lat="45.86097" lon="4.68589">
        <ele>227.49</ele>
        <time>2013-09-14T07:41:23Z</time>
      </trkpt>
      <trkpt lat="45.86098" lon="4.6859">
        <ele>227.49</ele>
        <time>2013-09-14T07:41:24Z</time>
      </trkpt>
      <trkpt lat="45.86099" lon="4.68591">
        <ele>227.49</ele>
        <time>2013-09-14T07:41:25Z</time>
      </trkpt>
      <trkpt lat="45.86101" lon="4.68592">
        <ele>227.49</ele>
        <time>2013-09-14T07:41:26Z</time>
      </trkpt>
      <trkpt lat="45.86102" lon="4.68593">
        <ele>228.45</ele>
        <time>2013-09-14T07:41:27Z</time>
      </trkpt>
      <trkpt lat="45.86112" lon="4.68608">
        <ele>229.41</ele>
        <time>2013-09-14T07:41:36Z</time>
      </trkpt>
      <trkpt lat="45.86127" lon="4.68625">
        <ele>230.85</ele>
        <time>2013-09-14T07:41:48Z</time>
      </trkpt>
      <trkpt lat="45.86143" lon="4.68658">
        <ele>230.85</ele>
        <time>2013-09-14T07:41:58Z</time>
      </trkpt>
      <trkpt lat="45.86171" lon="4.68714">
        <ele>230.85</ele>
        <time>2013-09-14T07:42:10Z</time>
      </trkpt>
      <trkpt lat="45.86176" lon="4.68724">
        <ele>230.37</ele>
        <time>2013-09-14T07:42:12Z</time>
      </trkpt>
      <trkpt lat="45.8618" lon="4.68735">
        <ele>230.37</ele>
        <time>2013-09-14T07:42:14Z</time>
      </trkpt>
      <trkpt lat="45.86217" lon="4.68813">
        <ele>229.89</ele>
        <time>2013-09-14T07:42:28Z</time>
      </trkpt>
      <trkpt lat="45.86241" lon="4.68874">
        <ele>229.41</ele>
        <time>2013-09-14T07:42:37Z</time>
      </trkpt>
      <trkpt lat="45.86297" lon="4.68982">
        <ele>226.53</ele>
        <time>2013-09-14T07:42:52Z</time>
      </trkpt>
      <trkpt lat="45.86318" lon="4.69033">
        <ele>223.16</ele>
        <time>2013-09-14T07:42:58Z</time>
      </trkpt>
      <trkpt lat="45.86321" lon="4.69041">
        <ele>222.68</ele>
        <time>2013-09-14T07:42:59Z</time>
      </trkpt>
      <trkpt lat="45.86335" lon="4.6907">
        <ele>221.72</ele>
        <time>2013-09-14T07:43:03Z</time>
      </trkpt>
      <trkpt lat="45.86339" lon="4.69075">
        <ele>221.72</ele>
        <time>2013-09-14T07:43:04Z</time>
      </trkpt>
      <trkpt lat="45.8635" lon="4.69091">
        <ele>222.2</ele>
        <time>2013-09-14T07:43:07Z</time>
      </trkpt>
      <trkpt lat="45.86353" lon="4.69096">
        <ele>222.2</ele>
        <time>2013-09-14T07:43:08Z</time>
      </trkpt>
      <trkpt lat="45.86355" lon="4.69102">
        <ele>222.2</ele>
        <time>2013-09-14T07:43:09Z</time>
      </trkpt>
      <trkpt lat="45.86369" lon="4.69137">
        <ele>223.64</ele>
        <time>2013-09-14T07:43:17Z</time>
      </trkpt>
      <trkpt lat="45.8637" lon="4.69137">
        <ele>224.12</ele>
        <time>2013-09-14T07:43:18Z</time>
      </trkpt>
      <trkpt lat="45.86372" lon="4.69136">
        <ele>224.12</ele>
        <time>2013-09-14T07:43:19Z</time>
      </trkpt>
      <trkpt lat="45.86374" lon="4.69136">
        <ele>224.61</ele>
        <time>2013-09-14T07:43:20Z</time>
      </trkpt>
      <trkpt lat="45.86376" lon="4.69135">
        <ele>225.09</ele>
        <time>2013-09-14T07:43:21Z</time>
      </trkpt>
      <trkpt lat="45.86378" lon="4.69133">
        <ele>224.61</ele>
        <time>2013-09-14T07:43:22Z</time>
      </trkpt>
      <trkpt lat="45.8638" lon="4.69132">
        <ele>225.09</ele>
        <time>2013-09-14T07:43:23Z</time>
      </trkpt>
      <trkpt lat="45.86382" lon="4.6913">
        <ele>225.09</ele>
        <time>2013-09-14T07:43:24Z</time>
      </trkpt>
      <trkpt lat="45.86384" lon="4.69129">
        <ele>225.09</ele>
        <time>2013-09-14T07:43:25Z</time>
      </trkpt>
      <trkpt lat="45.86386" lon="4.69127">
        <ele>225.57</ele>
        <time>2013-09-14T07:43:26Z</time>
      </trkpt>
      <trkpt lat="45.8641" lon="4.6911">
        <ele>226.53</ele>
        <time>2013-09-14T07:43:37Z</time>
      </trkpt>
      <trkpt lat="45.86434" lon="4.69093">
        <ele>227.97</ele>
        <time>2013-09-14T07:43:47Z</time>
      </trkpt>
      <trkpt lat="45.86463" lon="4.69078">
        <ele>229.41</ele>
        <time>2013-09-14T07:43:58Z</time>
      </trkpt>
      <trkpt lat="45.86489" lon="4.69073">
        <ele>229.89</ele>
        <time>2013-09-14T07:44:07Z</time>
      </trkpt>
      <trkpt lat="45.86525" lon="4.69052">
        <ele>230.85</ele>
        <time>2013-09-14T07:44:19Z</time>
      </trkpt>
      <trkpt lat="45.86552" lon="4.69036">
        <ele>231.81</ele>
        <time>2013-09-14T07:44:29Z</time>
      </trkpt>
      <trkpt lat="45.8658" lon="4.69015">
        <ele>233.74</ele>
        <time>2013-09-14T07:44:42Z</time>
      </trkpt>
      <trkpt lat="45.86602" lon="4.68999">
        <ele>235.18</ele>
        <time>2013-09-14T07:44:51Z</time>
      </trkpt>
      <trkpt lat="45.86617" lon="4.6899">
        <ele>235.66</ele>
        <time>2013-09-14T07:44:59Z</time>
      </trkpt>
      <trkpt lat="45.86627" lon="4.68982">
        <ele>236.14</ele>
        <time>2013-09-14T07:45:08Z</time>
      </trkpt>
      <trkpt lat="45.86636" lon="4.68979">
        <ele>237.1</ele>
        <time>2013-09-14T07:45:18Z</time>
      </trkpt>
      <trkpt lat="45.86638" lon="4.68979">
        <ele>236.62</ele>
        <time>2013-09-14T07:45:28Z</time>
      </trkpt>
      <trkpt lat="45.8664" lon="4.6898">
        <ele>237.1</ele>
        <time>2013-09-14T07:45:39Z</time>
      </trkpt>
      <trkpt lat="45.8664" lon="4.6898">
        <ele>237.1</ele>
        <time>2013-09-14T07:46:01Z</time>
      </trkpt>
      <trkpt lat="45.8664" lon="4.6898">
        <ele>237.1</ele>
        <time>2013-09-14T07:46:15Z</time>
      </trkpt>
      <trkpt lat="45.8664" lon="4.6898">
        <ele>237.1</ele>
        <time>2013-09-14T07:46:36Z</time>
      </trkpt>
      <trkpt lat="45.86641" lon="4.68981">
        <ele>237.1</ele>
        <time>2013-09-14T07:47:01Z</time>
      </trkpt>
      <trkpt lat="45.86641" lon="4.68981">
        <ele>236.62</ele>
        <time>2013-09-14T07:47:19Z</time>
      </trkpt>
      <trkpt lat="45.86641" lon="4.68981">
        <ele>236.62</ele>
        <time>2013-09-14T07:47:42Z</time>
      </trkpt>
      <trkpt lat="45.86641" lon="4.68981">
        <ele>236.62</ele>
        <time>2013-09-14T07:48:04Z</time>
      </trkpt>
      <trkpt lat="45.86641" lon="4.68981">
        <ele>237.58</ele>
        <time>2013-09-14T07:48:21Z</time>
      </trkpt>
      <trkpt lat="45.86641" lon="4.6898">
        <ele>236.62</ele>
        <time>2013-09-14T07:48:41Z</time>
      </trkpt>
      <trkpt lat="45.86641" lon="4.6898">
        <ele>237.1</ele>
        <time>2013-09-14T07:48:54Z</time>
      </trkpt>
      <trkpt lat="45.86643" lon="4.68975">
        <ele>237.1</ele>
        <time>2013-09-14T07:49:07Z</time>
      </trkpt>
      <trkpt lat="45.86644" lon="4.68973">
        <ele>237.58</ele>
        <time>2013-09-14T07:49:08Z</time>
      </trkpt>
      <trkpt lat="45.86644" lon="4.68972">
        <ele>237.58</ele>
        <time>2013-09-14T07:49:09Z</time>
      </trkpt>
      <trkpt lat="45.86645" lon="4.68967">
        <ele>238.54</ele>
        <time>2013-09-14T07:49:12Z</time>
      </trkpt>
      <trkpt lat="45.86647" lon="4.68968">
        <ele>238.54</ele>
        <time>2013-09-14T07:49:20Z</time>
      </trkpt>
      <trkpt lat="45.86647" lon="4.6897">
        <ele>238.54</ele>
        <time>2013-09-14T07:49:21Z</time>
      </trkpt>
      <trkpt lat="45.86648" lon="4.68972">
        <ele>239.02</ele>
        <time>2013-09-14T07:49:22Z</time>
      </trkpt>
      <trkpt lat="45.86648" lon="4.68974">
        <ele>239.02</ele>
        <time>2013-09-14T07:49:23Z</time>
      </trkpt>
      <trkpt lat="45.86649" lon="4.68977">
        <ele>238.54</ele>
        <time>2013-09-14T07:49:24Z</time>
      </trkpt>
      <trkpt lat="45.8665" lon="4.68979">
        <ele>239.02</ele>
        <time>2013-09-14T07:49:25Z</time>
      </trkpt>
      <trkpt lat="45.86651" lon="4.68982">
        <ele>239.02</ele>
        <time>2013-09-14T07:49:26Z</time>
      </trkpt>
      <trkpt lat="45.86652" lon="4.68985">
        <ele>239.02</ele>
        <time>2013-09-14T07:49:27Z</time>
      </trkpt>
      <trkpt lat="45.86653" lon="4.68988">
        <ele>239.02</ele>
        <time>2013-09-14T07:49:28Z</time>
      </trkpt>
      <trkpt lat="45.86654" lon="4.68991">
        <ele>239.02</ele>
        <time>2013-09-14T07:49:29Z</time>
      </trkpt>
      <trkpt lat="45.86655" lon="4.68995">
        <ele>239.02</ele>
        <time>2013-09-14T07:49:30Z</time>
      </trkpt>
      <trkpt lat="45.86665" lon="4.6904">
        <ele>239.02</ele>
        <time>2013-09-14T07:49:41Z</time>
      </trkpt>
      <trkpt lat="45.86667" lon="4.69045">
        <ele>238.54</ele>
        <time>2013-09-14T07:49:42Z</time>
      </trkpt>
      <trkpt lat="45.86688" lon="4.69117">
        <ele>237.1</ele>
        <time>2013-09-14T07:49:53Z</time>
      </trkpt>
      <trkpt lat="45.86711" lon="4.69206">
        <ele>235.66</ele>
        <time>2013-09-14T07:50:04Z</time>
      </trkpt>
      <trkpt lat="45.86732" lon="4.69305">
        <ele>233.74</ele>
        <time>2013-09-14T07:50:16Z</time>
      </trkpt>
      <trkpt lat="45.86751" lon="4.69404">
        <ele>230.37</ele>
        <time>2013-09-14T07:50:27Z</time>
      </trkpt>
      <trkpt lat="45.86761" lon="4.69451">
        <ele>229.89</ele>
        <time>2013-09-14T07:50:32Z</time>
      </trkpt>
      <trkpt lat="45.86769" lon="4.69478">
        <ele>229.89</ele>
        <time>2013-09-14T07:50:35Z</time>
      </trkpt>
      <trkpt lat="45.86773" lon="4.69487">
        <ele>229.41</ele>
        <time>2013-09-14T07:50:36Z</time>
      </trkpt>
      <trkpt lat="45.86829" lon="4.69604">
        <ele>227.49</ele>
        <time>2013-09-14T07:50:50Z</time>
      </trkpt>
      <trkpt lat="45.8687" lon="4.69677">
        <ele>227.01</ele>
        <time>2013-09-14T07:51:00Z</time>
      </trkpt>
      <trkpt lat="45.86943" lon="4.69772">
        <ele>226.53</ele>
        <time>2013-09-14T07:51:16Z</time>
      </trkpt>
      <trkpt lat="45.86982" lon="4.69861">
        <ele>226.05</ele>
        <time>2013-09-14T07:51:29Z</time>
      </trkpt>
      <trkpt lat="45.86999" lon="4.69915">
        <ele>225.57</ele>
        <time>2013-09-14T07:51:37Z</time>
      </trkpt>
      <trkpt lat="45.87" lon="4.69922">
        <ele>225.57</ele>
        <time>2013-09-14T07:51:38Z</time>
      </trkpt>
      <trkpt lat="45.87008" lon="4.69973">
        <ele>224.61</ele>
        <time>2013-09-14T07:51:45Z</time>
      </trkpt>
      <trkpt lat="45.87014" lon="4.69991">
        <ele>225.09</ele>
        <time>2013-09-14T07:51:49Z</time>
      </trkpt>
      <trkpt lat="45.87016" lon="4.69993">
        <ele>225.09</ele>
        <time>2013-09-14T07:51:50Z</time>
      </trkpt>
      <trkpt lat="45.87046" lon="4.70031">
        <ele>225.09</ele>
        <time>2013-09-14T07:52:01Z</time>
      </trkpt>
      <trkpt lat="45.8708" lon="4.70098">
        <ele>225.09</ele>
        <time>2013-09-14T07:52:13Z</time>
      </trkpt>
      <trkpt lat="45.87101" lon="4.70133">
        <ele>224.61</ele>
        <time>2013-09-14T07:52:20Z</time>
      </trkpt>
      <trkpt lat="45.87104" lon="4.70133">
        <ele>225.09</ele>
        <time>2013-09-14T07:52:21Z</time>
      </trkpt>
      <trkpt lat="45.87106" lon="4.70135">
        <ele>224.61</ele>
        <time>2013-09-14T07:52:22Z</time>
      </trkpt>
      <trkpt lat="45.87109" lon="4.70138">
        <ele>224.61</ele>
        <time>2013-09-14T07:52:23Z</time>
      </trkpt>
      <trkpt lat="45.87111" lon="4.70141">
        <ele>224.12</ele>
        <time>2013-09-14T07:52:24Z</time>
      </trkpt>
      <trkpt lat="45.87111" lon="4.70145">
        <ele>224.61</ele>
        <time>2013-09-14T07:52:25Z</time>
      </trkpt>
      <trkpt lat="45.87111" lon="4.70149">
        <ele>225.09</ele>
        <time>2013-09-14T07:52:26Z</time>
      </trkpt>
      <trkpt lat="45.87112" lon="4.70153">
        <ele>224.12</ele>
        <time>2013-09-14T07:52:27Z</time>
      </trkpt>
      <trkpt lat="45.87114" lon="4.70156">
        <ele>224.12</ele>
        <time>2013-09-14T07:52:28Z</time>
      </trkpt>
      <trkpt lat="45.87123" lon="4.70169">
        <ele>224.61</ele>
        <time>2013-09-14T07:52:31Z</time>
      </trkpt>
      <trkpt lat="45.8716" lon="4.70222">
        <ele>223.64</ele>
        <time>2013-09-14T07:52:43Z</time>
      </trkpt>
      <trkpt lat="45.87163" lon="4.70226">
        <ele>223.64</ele>
        <time>2013-09-14T07:52:44Z</time>
      </trkpt>
      <trkpt lat="45.87191" lon="4.70263">
        <ele>223.16</ele>
        <time>2013-09-14T07:52:52Z</time>
      </trkpt>
      <trkpt lat="45.87194" lon="4.70267">
        <ele>223.64</ele>
        <time>2013-09-14T07:52:53Z</time>
      </trkpt>
      <trkpt lat="45.87197" lon="4.70273">
        <ele>223.64</ele>
        <time>2013-09-14T07:52:54Z</time>
      </trkpt>
      <trkpt lat="45.87199" lon="4.70279">
        <ele>223.16</ele>
        <time>2013-09-14T07:52:55Z</time>
      </trkpt>
      <trkpt lat="45.87202" lon="4.70284">
        <ele>223.16</ele>
        <time>2013-09-14T07:52:56Z</time>
      </trkpt>
      <trkpt lat="45.87205" lon="4.70289">
        <ele>223.16</ele>
        <time>2013-09-14T07:52:57Z</time>
      </trkpt>
      <trkpt lat="45.87209" lon="4.70293">
        <ele>222.68</ele>
        <time>2013-09-14T07:52:58Z</time>
      </trkpt>
      <trkpt lat="45.8722" lon="4.70305">
        <ele>223.16</ele>
        <time>2013-09-14T07:53:01Z</time>
      </trkpt>
      <trkpt lat="45.87255" lon="4.70348">
        <ele>222.68</ele>
        <time>2013-09-14T07:53:11Z</time>
      </trkpt>
      <trkpt lat="45.87256" lon="4.70348">
        <ele>222.2</ele>
        <time>2013-09-14T07:53:12Z</time>
      </trkpt>
      <trkpt lat="45.87258" lon="4.7035">
        <ele>221.72</ele>
        <time>2013-09-14T07:53:13Z</time>
      </trkpt>
      <trkpt lat="45.8726" lon="4.70352">
        <ele>222.2</ele>
        <time>2013-09-14T07:53:14Z</time>
      </trkpt>
      <trkpt lat="45.87261" lon="4.70355">
        <ele>221.24</ele>
        <time>2013-09-14T07:53:15Z</time>
      </trkpt>
      <trkpt lat="45.87281" lon="4.70381">
        <ele>221.72</ele>
        <time>2013-09-14T07:53:23Z</time>
      </trkpt>
      <trkpt lat="45.87294" lon="4.70389">
        <ele>221.24</ele>
        <time>2013-09-14T07:53:28Z</time>
      </trkpt>
      <trkpt lat="45.87297" lon="4.7039">
        <ele>221.72</ele>
        <time>2013-09-14T07:53:29Z</time>
      </trkpt>
      <trkpt lat="45.873" lon="4.70389">
        <ele>222.2</ele>
        <time>2013-09-14T07:53:30Z</time>
      </trkpt>
      <trkpt lat="45.87344" lon="4.7038">
        <ele>222.68</ele>
        <time>2013-09-14T07:53:41Z</time>
      </trkpt>
      <trkpt lat="45.87406" lon="4.70369">
        <ele>222.68</ele>
        <time>2013-09-14T07:53:54Z</time>
      </trkpt>
      <trkpt lat="45.87449" lon="4.70361">
        <ele>222.2</ele>
        <time>2013-09-14T07:54:03Z</time>
      </trkpt>
      <trkpt lat="45.87454" lon="4.70361">
        <ele>222.2</ele>
        <time>2013-09-14T07:54:04Z</time>
      </trkpt>
      <trkpt lat="45.87473" lon="4.70361">
        <ele>222.68</ele>
        <time>2013-09-14T07:54:10Z</time>
      </trkpt>
      <trkpt lat="45.87521" lon="4.70372">
        <ele>222.68</ele>
        <time>2013-09-14T07:54:21Z</time>
      </trkpt>
      <trkpt lat="45.87577" lon="4.70389">
        <ele>223.16</ele>
        <time>2013-09-14T07:54:33Z</time>
      </trkpt>
      <trkpt lat="45.87612" lon="4.70396">
        <ele>223.16</ele>
        <time>2013-09-14T07:54:40Z</time>
      </trkpt>
      <trkpt lat="45.87652" lon="4.70392">
        <ele>223.16</ele>
        <time>2013-09-14T07:54:48Z</time>
      </trkpt>
      <trkpt lat="45.87656" lon="4.70392">
        <ele>222.68</ele>
        <time>2013-09-14T07:54:49Z</time>
      </trkpt>
      <trkpt lat="45.87661" lon="4.70391">
        <ele>224.12</ele>
        <time>2013-09-14T07:54:50Z</time>
      </trkpt>
      <trkpt lat="45.87665" lon="4.70389">
        <ele>223.64</ele>
        <time>2013-09-14T07:54:51Z</time>
      </trkpt>
      <trkpt lat="45.87669" lon="4.70387">
        <ele>223.64</ele>
        <time>2013-09-14T07:54:52Z</time>
      </trkpt>
      <trkpt lat="45.87674" lon="4.70386">
        <ele>224.12</ele>
        <time>2013-09-14T07:54:53Z</time>
      </trkpt>
      <trkpt lat="45.87678" lon="4.70385">
        <ele>223.16</ele>
        <time>2013-09-14T07:54:54Z</time>
      </trkpt>
      <trkpt lat="45.87734" lon="4.70374">
        <ele>224.61</ele>
        <time>2013-09-14T07:55:06Z</time>
      </trkpt>
      <trkpt lat="45.87781" lon="4.70366">
        <ele>225.57</ele>
        <time>2013-09-14T07:55:16Z</time>
      </trkpt>
      <trkpt lat="45.8783" lon="4.70376">
        <ele>227.49</ele>
        <time>2013-09-14T07:55:27Z</time>
      </trkpt>
      <trkpt lat="45.87869" lon="4.70374">
        <ele>229.41</ele>
        <time>2013-09-14T07:55:37Z</time>
      </trkpt>
      <trkpt lat="45.87905" lon="4.70371">
        <ele>231.81</ele>
        <time>2013-09-14T07:55:48Z</time>
      </trkpt>
      <trkpt lat="45.8794" lon="4.7037">
        <ele>234.7</ele>
        <time>2013-09-14T07:56:00Z</time>
      </trkpt>
      <trkpt lat="45.87951" lon="4.70367">
        <ele>236.14</ele>
        <time>2013-09-14T07:56:05Z</time>
      </trkpt>
      <trkpt lat="45.87952" lon="4.70364">
        <ele>236.14</ele>
        <time>2013-09-14T07:56:06Z</time>
      </trkpt>
      <trkpt lat="45.87953" lon="4.70361">
        <ele>236.62</ele>
        <time>2013-09-14T07:56:07Z</time>
      </trkpt>
      <trkpt lat="45.87954" lon="4.70357">
        <ele>236.62</ele>
        <time>2013-09-14T07:56:08Z</time>
      </trkpt>
      <trkpt lat="45.87954" lon="4.70353">
        <ele>236.14</ele>
        <time>2013-09-14T07:56:09Z</time>
      </trkpt>
      <trkpt lat="45.87955" lon="4.7035">
        <ele>237.1</ele>
        <time>2013-09-14T07:56:10Z</time>
      </trkpt>
      <trkpt lat="45.87959" lon="4.70318">
        <ele>238.06</ele>
        <time>2013-09-14T07:56:20Z</time>
      </trkpt>
      <trkpt lat="45.87964" lon="4.7028">
        <ele>238.54</ele>
        <time>2013-09-14T07:56:32Z</time>
      </trkpt>
      <trkpt lat="45.87973" lon="4.70237">
        <ele>238.06</ele>
        <time>2013-09-14T07:56:41Z</time>
      </trkpt>
      <trkpt lat="45.87976" lon="4.70232">
        <ele>238.06</ele>
        <time>2013-09-14T07:56:42Z</time>
      </trkpt>
      <trkpt lat="45.87984" lon="4.70218">
        <ele>238.06</ele>
        <time>2013-09-14T07:56:45Z</time>
      </trkpt>
      <trkpt lat="45.88019" lon="4.70189">
        <ele>236.14</ele>
        <time>2013-09-14T07:56:53Z</time>
      </trkpt>
      <trkpt lat="45.88024" lon="4.70184">
        <ele>236.14</ele>
        <time>2013-09-14T07:56:54Z</time>
      </trkpt>
      <trkpt lat="45.88028" lon="4.70178">
        <ele>236.62</ele>
        <time>2013-09-14T07:56:55Z</time>
      </trkpt>
      <trkpt lat="45.88031" lon="4.70172">
        <ele>235.66</ele>
        <time>2013-09-14T07:56:56Z</time>
      </trkpt>
      <trkpt lat="45.88034" lon="4.70167">
        <ele>236.14</ele>
        <time>2013-09-14T07:56:57Z</time>
      </trkpt>
      <trkpt lat="45.88049" lon="4.70135">
        <ele>236.14</ele>
        <time>2013-09-14T07:57:03Z</time>
      </trkpt>
      <trkpt lat="45.88069" lon="4.701">
        <ele>237.58</ele>
        <time>2013-09-14T07:57:12Z</time>
      </trkpt>
      <trkpt lat="45.88071" lon="4.70095">
        <ele>238.54</ele>
        <time>2013-09-14T07:57:14Z</time>
      </trkpt>
      <trkpt lat="45.88084" lon="4.7006">
        <ele>240.95</ele>
        <time>2013-09-14T07:57:28Z</time>
      </trkpt>
      <trkpt lat="45.88094" lon="4.7003">
        <ele>242.39</ele>
        <time>2013-09-14T07:57:40Z</time>
      </trkpt>
      <trkpt lat="45.88101" lon="4.69999">
        <ele>244.31</ele>
        <time>2013-09-14T07:57:52Z</time>
      </trkpt>
      <trkpt lat="45.88105" lon="4.6997">
        <ele>246.72</ele>
        <time>2013-09-14T07:58:03Z</time>
      </trkpt>
      <trkpt lat="45.88105" lon="4.69942">
        <ele>247.2</ele>
        <time>2013-09-14T07:58:13Z</time>
      </trkpt>
      <trkpt lat="45.88106" lon="4.69909">
        <ele>249.6</ele>
        <time>2013-09-14T07:58:25Z</time>
      </trkpt>
      <trkpt lat="45.88109" lon="4.69873">
        <ele>251.52</ele>
        <time>2013-09-14T07:58:38Z</time>
      </trkpt>
      <trkpt lat="45.88116" lon="4.69842">
        <ele>253.44</ele>
        <time>2013-09-14T07:58:51Z</time>
      </trkpt>
      <trkpt lat="45.88116" lon="4.69839">
        <ele>253.44</ele>
        <time>2013-09-14T07:58:52Z</time>
      </trkpt>
      <trkpt lat="45.88116" lon="4.69836">
        <ele>253.44</ele>
        <time>2013-09-14T07:58:53Z</time>
      </trkpt>
      <trkpt lat="45.88123" lon="4.698">
        <ele>255.37</ele>
        <time>2013-09-14T07:59:07Z</time>
      </trkpt>
      <trkpt lat="45.88128" lon="4.69767">
        <ele>255.85</ele>
        <time>2013-09-14T07:59:18Z</time>
      </trkpt>
      <trkpt lat="45.88139" lon="4.69711">
        <ele>257.29</ele>
        <time>2013-09-14T07:59:32Z</time>
      </trkpt>
      <trkpt lat="45.8815" lon="4.6966">
        <ele>258.25</ele>
        <time>2013-09-14T07:59:45Z</time>
      </trkpt>
      <trkpt lat="45.88157" lon="4.69614">
        <ele>258.73</ele>
        <time>2013-09-14T07:59:57Z</time>
      </trkpt>
      <trkpt lat="45.88164" lon="4.69565">
        <ele>261.62</ele>
        <time>2013-09-14T08:00:11Z</time>
      </trkpt>
      <trkpt lat="45.88168" lon="4.69524">
        <ele>263.54</ele>
        <time>2013-09-14T08:00:23Z</time>
      </trkpt>
      <trkpt lat="45.88171" lon="4.69484">
        <ele>264.5</ele>
        <time>2013-09-14T08:00:35Z</time>
      </trkpt>
      <trkpt lat="45.88175" lon="4.69446">
        <ele>266.9</ele>
        <time>2013-09-14T08:00:47Z</time>
      </trkpt>
      <trkpt lat="45.88182" lon="4.69403">
        <ele>269.31</ele>
        <time>2013-09-14T08:01:01Z</time>
      </trkpt>
      <trkpt lat="45.88188" lon="4.69375">
        <ele>270.27</ele>
        <time>2013-09-14T08:01:11Z</time>
      </trkpt>
      <trkpt lat="45.88197" lon="4.69334">
        <ele>273.63</ele>
        <time>2013-09-14T08:01:25Z</time>
      </trkpt>
      <trkpt lat="45.88204" lon="4.693">
        <ele>275.07</ele>
        <time>2013-09-14T08:01:37Z</time>
      </trkpt>
      <trkpt lat="45.88214" lon="4.69269">
        <ele>277.48</ele>
        <time>2013-09-14T08:01:49Z</time>
      </trkpt>
      <trkpt lat="45.88228" lon="4.69249">
        <ele>279.4</ele>
        <time>2013-09-14T08:01:59Z</time>
      </trkpt>
      <trkpt lat="45.88248" lon="4.69216">
        <ele>280.36</ele>
        <time>2013-09-14T08:02:14Z</time>
      </trkpt>
      <trkpt lat="45.88264" lon="4.69185">
        <ele>283.25</ele>
        <time>2013-09-14T08:02:28Z</time>
      </trkpt>
      <trkpt lat="45.8828" lon="4.69151">
        <ele>285.65</ele>
        <time>2013-09-14T08:02:42Z</time>
      </trkpt>
      <trkpt lat="45.88289" lon="4.69125">
        <ele>286.61</ele>
        <time>2013-09-14T08:02:53Z</time>
      </trkpt>
      <trkpt lat="45.883" lon="4.69088">
        <ele>288.05</ele>
        <time>2013-09-14T08:03:07Z</time>
      </trkpt>
      <trkpt lat="45.8831" lon="4.69062">
        <ele>288.53</ele>
        <time>2013-09-14T08:03:17Z</time>
      </trkpt>
      <trkpt lat="45.88319" lon="4.6903">
        <ele>290.46</ele>
        <time>2013-09-14T08:03:29Z</time>
      </trkpt>
      <trkpt lat="45.88328" lon="4.69004">
        <ele>292.38</ele>
        <time>2013-09-14T08:03:39Z</time>
      </trkpt>
      <trkpt lat="45.88335" lon="4.68973">
        <ele>293.34</ele>
        <time>2013-09-14T08:03:51Z</time>
      </trkpt>
      <trkpt lat="45.88337" lon="4.6894">
        <ele>295.74</ele>
        <time>2013-09-14T08:04:04Z</time>
      </trkpt>
      <trkpt lat="45.88341" lon="4.6891">
        <ele>297.67</ele>
        <time>2013-09-14T08:04:16Z</time>
      </trkpt>
      <trkpt lat="45.88344" lon="4.68878">
        <ele>300.07</ele>
        <time>2013-09-14T08:04:29Z</time>
      </trkpt>
      <trkpt lat="45.88346" lon="4.68848">
        <ele>301.99</ele>
        <time>2013-09-14T08:04:41Z</time>
      </trkpt>
      <trkpt lat="45.88346" lon="4.68838">
        <ele>303.43</ele>
        <time>2013-09-14T08:04:50Z</time>
      </trkpt>
      <trkpt lat="45.88346" lon="4.68838">
        <ele>303.91</ele>
        <time>2013-09-14T08:05:05Z</time>
      </trkpt>
      <trkpt lat="45.88346" lon="4.68838">
        <ele>303.91</ele>
        <time>2013-09-14T08:05:23Z</time>
      </trkpt>
      <trkpt lat="45.88346" lon="4.68838">
        <ele>303.43</ele>
        <time>2013-09-14T08:05:39Z</time>
      </trkpt>
      <trkpt lat="45.88346" lon="4.68838">
        <ele>303.43</ele>
        <time>2013-09-14T08:05:51Z</time>
      </trkpt>
      <trkpt lat="45.88346" lon="4.68838">
        <ele>303.43</ele>
        <time>2013-09-14T08:06:11Z</time>
      </trkpt>
      <trkpt lat="45.88346" lon="4.68838">
        <ele>300.07</ele>
        <time>2013-09-14T08:06:35Z</time>
      </trkpt>
      <trkpt lat="45.88346" lon="4.68838">
        <ele>303.43</ele>
        <time>2013-09-14T08:06:36Z</time>
      </trkpt>
      <trkpt lat="45.88346" lon="4.68838">
        <ele>303.43</ele>
        <time>2013-09-14T08:06:56Z</time>
      </trkpt>
      <trkpt lat="45.88347" lon="4.68836">
        <ele>303.91</ele>
        <time>2013-09-14T08:07:19Z</time>
      </trkpt>
      <trkpt lat="45.8835" lon="4.68835">
        <ele>303.91</ele>
        <time>2013-09-14T08:07:21Z</time>
      </trkpt>
      <trkpt lat="45.88351" lon="4.68834">
        <ele>303.43</ele>
        <time>2013-09-14T08:07:22Z</time>
      </trkpt>
      <trkpt lat="45.88353" lon="4.68834">
        <ele>302.95</ele>
        <time>2013-09-14T08:07:23Z</time>
      </trkpt>
      <trkpt lat="45.88378" lon="4.68824">
        <ele>303.43</ele>
        <time>2013-09-14T08:07:34Z</time>
      </trkpt>
      <trkpt lat="45.88395" lon="4.68795">
        <ele>304.39</ele>
        <time>2013-09-14T08:07:45Z</time>
      </trkpt>
      <trkpt lat="45.88393" lon="4.68774">
        <ele>306.32</ele>
        <time>2013-09-14T08:07:53Z</time>
      </trkpt>
      <trkpt lat="45.88392" lon="4.68741">
        <ele>308.72</ele>
        <time>2013-09-14T08:08:06Z</time>
      </trkpt>
      <trkpt lat="45.88379" lon="4.68726">
        <ele>311.12</ele>
        <time>2013-09-14T08:08:17Z</time>
      </trkpt>
      <trkpt lat="45.88359" lon="4.68704">
        <ele>312.09</ele>
        <time>2013-09-14T08:08:31Z</time>
      </trkpt>
      <trkpt lat="45.88338" lon="4.68684">
        <ele>314.49</ele>
        <time>2013-09-14T08:08:44Z</time>
      </trkpt>
      <trkpt lat="45.88319" lon="4.68666">
        <ele>315.93</ele>
        <time>2013-09-14T08:08:56Z</time>
      </trkpt>
      <trkpt lat="45.88301" lon="4.68649">
        <ele>318.33</ele>
        <time>2013-09-14T08:09:08Z</time>
      </trkpt>
      <trkpt lat="45.88285" lon="4.68635">
        <ele>320.26</ele>
        <time>2013-09-14T08:09:19Z</time>
      </trkpt>
      <trkpt lat="45.88264" lon="4.68618">
        <ele>323.62</ele>
        <time>2013-09-14T08:09:34Z</time>
      </trkpt>
      <trkpt lat="45.88249" lon="4.68611">
        <ele>325.06</ele>
        <time>2013-09-14T08:09:44Z</time>
      </trkpt>
      <trkpt lat="45.88232" lon="4.68604">
        <ele>326.5</ele>
        <time>2013-09-14T08:09:54Z</time>
      </trkpt>
      <trkpt lat="45.88211" lon="4.68594">
        <ele>328.91</ele>
        <time>2013-09-14T08:10:07Z</time>
      </trkpt>
      <trkpt lat="45.88189" lon="4.68589">
        <ele>330.35</ele>
        <time>2013-09-14T08:10:20Z</time>
      </trkpt>
      <trkpt lat="45.8817" lon="4.68583">
        <ele>331.79</ele>
        <time>2013-09-14T08:10:32Z</time>
      </trkpt>
      <trkpt lat="45.88153" lon="4.68576">
        <ele>333.23</ele>
        <time>2013-09-14T08:10:42Z</time>
      </trkpt>
      <trkpt lat="45.88131" lon="4.68569">
        <ele>335.16</ele>
        <time>2013-09-14T08:10:55Z</time>
      </trkpt>
      <trkpt lat="45.88108" lon="4.6856">
        <ele>337.08</ele>
        <time>2013-09-14T08:11:08Z</time>
      </trkpt>
      <trkpt lat="45.88091" lon="4.68553">
        <ele>337.56</ele>
        <time>2013-09-14T08:11:18Z</time>
      </trkpt>
      <trkpt lat="45.88072" lon="4.68547">
        <ele>339.96</ele>
        <time>2013-09-14T08:11:29Z</time>
      </trkpt>
      <trkpt lat="45.88057" lon="4.68542">
        <ele>341.41</ele>
        <time>2013-09-14T08:11:38Z</time>
      </trkpt>
      <trkpt lat="45.88038" lon="4.68537">
        <ele>343.33</ele>
        <time>2013-09-14T08:11:51Z</time>
      </trkpt>
      <trkpt lat="45.88016" lon="4.68534">
        <ele>344.77</ele>
        <time>2013-09-14T08:12:03Z</time>
      </trkpt>
      <trkpt lat="45.8799" lon="4.68531">
        <ele>345.73</ele>
        <time>2013-09-14T08:12:16Z</time>
      </trkpt>
      <trkpt lat="45.87964" lon="4.6853">
        <ele>346.69</ele>
        <time>2013-09-14T08:12:28Z</time>
      </trkpt>
      <trkpt lat="45.87939" lon="4.68534">
        <ele>346.69</ele>
        <time>2013-09-14T08:12:37Z</time>
      </trkpt>
      <trkpt lat="45.87906" lon="4.68535">
        <ele>347.65</ele>
        <time>2013-09-14T08:12:49Z</time>
      </trkpt>
      <trkpt lat="45.87879" lon="4.68526">
        <ele>349.58</ele>
        <time>2013-09-14T08:13:01Z</time>
      </trkpt>
      <trkpt lat="45.87857" lon="4.68515">
        <ele>351.5</ele>
        <time>2013-09-14T08:13:12Z</time>
      </trkpt>
      <trkpt lat="45.87828" lon="4.68505">
        <ele>352.46</ele>
        <time>2013-09-14T08:13:26Z</time>
      </trkpt>
      <trkpt lat="45.87802" lon="4.68492">
        <ele>353.9</ele>
        <time>2013-09-14T08:13:39Z</time>
      </trkpt>
      <trkpt lat="45.87776" lon="4.68478">
        <ele>354.86</ele>
        <time>2013-09-14T08:13:52Z</time>
      </trkpt>
      <trkpt lat="45.87758" lon="4.68465">
        <ele>356.31</ele>
        <time>2013-09-14T08:14:03Z</time>
      </trkpt>
      <trkpt lat="45.87735" lon="4.68452">
        <ele>357.75</ele>
        <time>2013-09-14T08:14:16Z</time>
      </trkpt>
      <trkpt lat="45.87715" lon="4.68441">
        <ele>360.15</ele>
        <time>2013-09-14T08:14:28Z</time>
      </trkpt>
      <trkpt lat="45.87695" lon="4.68431">
        <ele>362.07</ele>
        <time>2013-09-14T08:14:40Z</time>
      </trkpt>
      <trkpt lat="45.87679" lon="4.68422">
        <ele>363.52</ele>
        <time>2013-09-14T08:14:50Z</time>
      </trkpt>
      <trkpt lat="45.87658" lon="4.68412">
        <ele>365.92</ele>
        <time>2013-09-14T08:15:03Z</time>
      </trkpt>
      <trkpt lat="45.8764" lon="4.68403">
        <ele>367.36</ele>
        <time>2013-09-14T08:15:14Z</time>
      </trkpt>
      <trkpt lat="45.87623" lon="4.68394">
        <ele>368.8</ele>
        <time>2013-09-14T08:15:25Z</time>
      </trkpt>
      <trkpt lat="45.87618" lon="4.68391">
        <ele>368.8</ele>
        <time>2013-09-14T08:15:29Z</time>
      </trkpt>
      <trkpt lat="45.87618" lon="4.68389">
        <ele>368.8</ele>
        <time>2013-09-14T08:15:30Z</time>
      </trkpt>
      <trkpt lat="45.87618" lon="4.68386">
        <ele>368.8</ele>
        <time>2013-09-14T08:15:32Z</time>
      </trkpt>
      <trkpt lat="45.87619" lon="4.68384">
        <ele>369.76</ele>
        <time>2013-09-14T08:15:33Z</time>
      </trkpt>
      <trkpt lat="45.87621" lon="4.68385">
        <ele>369.28</ele>
        <time>2013-09-14T08:15:34Z</time>
      </trkpt>
      <trkpt lat="45.87622" lon="4.68385">
        <ele>369.76</ele>
        <time>2013-09-14T08:15:35Z</time>
      </trkpt>
      <trkpt lat="45.87624" lon="4.68386">
        <ele>369.76</ele>
        <time>2013-09-14T08:15:36Z</time>
      </trkpt>
      <trkpt lat="45.87628" lon="4.68389">
        <ele>369.76</ele>
        <time>2013-09-14T08:15:44Z</time>
      </trkpt>
      <trkpt lat="45.87629" lon="4.68391">
        <ele>369.76</ele>
        <time>2013-09-14T08:15:53Z</time>
      </trkpt>
      <trkpt lat="45.87629" lon="4.68391">
        <ele>370.24</ele>
        <time>2013-09-14T08:16:15Z</time>
      </trkpt>
      <trkpt lat="45.87629" lon="4.68391">
        <ele>369.76</ele>
        <time>2013-09-14T08:16:49Z</time>
      </trkpt>
      <trkpt lat="45.87629" lon="4.68392">
        <ele>369.76</ele>
        <time>2013-09-14T08:17:23Z</time>
      </trkpt>
      <trkpt lat="45.87629" lon="4.68391">
        <ele>370.24</ele>
        <time>2013-09-14T08:17:57Z</time>
      </trkpt>
      <trkpt lat="45.87629" lon="4.68391">
        <ele>368.8</ele>
        <time>2013-09-14T08:18:31Z</time>
      </trkpt>
      <trkpt lat="45.87629" lon="4.68391">
        <ele>369.28</ele>
        <time>2013-09-14T08:19:05Z</time>
      </trkpt>
      <trkpt lat="45.87629" lon="4.68392">
        <ele>369.28</ele>
        <time>2013-09-14T08:19:40Z</time>
      </trkpt>
      <trkpt lat="45.87629" lon="4.68392">
        <ele>369.28</ele>
        <time>2013-09-14T08:20:10Z</time>
      </trkpt>
      <trkpt lat="45.87629" lon="4.68389">
        <ele>369.28</ele>
        <time>2013-09-14T08:20:28Z</time>
      </trkpt>
      <trkpt lat="45.87632" lon="4.68387">
        <ele>369.28</ele>
        <time>2013-09-14T08:20:48Z</time>
      </trkpt>
      <trkpt lat="45.87634" lon="4.68387">
        <ele>369.76</ele>
        <time>2013-09-14T08:20:49Z</time>
      </trkpt>
      <trkpt lat="45.87635" lon="4.68387">
        <ele>369.76</ele>
        <time>2013-09-14T08:20:50Z</time>
      </trkpt>
      <trkpt lat="45.87656" lon="4.68381">
        <ele>370.24</ele>
        <time>2013-09-14T08:21:02Z</time>
      </trkpt>
      <trkpt lat="45.87684" lon="4.68379">
        <ele>370.73</ele>
        <time>2013-09-14T08:21:14Z</time>
      </trkpt>
      <trkpt lat="45.87715" lon="4.68373">
        <ele>370.73</ele>
        <time>2013-09-14T08:21:27Z</time>
      </trkpt>
      <trkpt lat="45.8772" lon="4.68373">
        <ele>371.21</ele>
        <time>2013-09-14T08:21:33Z</time>
      </trkpt>
      <trkpt lat="45.87722" lon="4.68372">
        <ele>371.21</ele>
        <time>2013-09-14T08:21:35Z</time>
      </trkpt>
      <trkpt lat="45.87724" lon="4.68372">
        <ele>371.69</ele>
        <time>2013-09-14T08:21:36Z</time>
      </trkpt>
      <trkpt lat="45.87741" lon="4.68366">
        <ele>371.69</ele>
        <time>2013-09-14T08:21:47Z</time>
      </trkpt>
      <trkpt lat="45.87743" lon="4.68366">
        <ele>371.69</ele>
        <time>2013-09-14T08:21:48Z</time>
      </trkpt>
      <trkpt lat="45.87765" lon="4.68349">
        <ele>373.13</ele>
        <time>2013-09-14T08:22:00Z</time>
      </trkpt>
      <trkpt lat="45.87788" lon="4.68338">
        <ele>375.53</ele>
        <time>2013-09-14T08:22:11Z</time>
      </trkpt>
      <trkpt lat="45.87812" lon="4.68327">
        <ele>377.94</ele>
        <time>2013-09-14T08:22:23Z</time>
      </trkpt>
      <trkpt lat="45.87835" lon="4.68312">
        <ele>379.86</ele>
        <time>2013-09-14T08:22:35Z</time>
      </trkpt>
      <trkpt lat="45.87858" lon="4.68301">
        <ele>380.34</ele>
        <time>2013-09-14T08:22:45Z</time>
      </trkpt>
      <trkpt lat="45.87886" lon="4.68288">
        <ele>382.26</ele>
        <time>2013-09-14T08:22:58Z</time>
      </trkpt>
      <trkpt lat="45.87913" lon="4.68274">
        <ele>382.26</ele>
        <time>2013-09-14T08:23:09Z</time>
      </trkpt>
      <trkpt lat="45.87927" lon="4.68254">
        <ele>382.26</ele>
        <time>2013-09-14T08:23:18Z</time>
      </trkpt>
      <trkpt lat="45.87939" lon="4.68248">
        <ele>381.3</ele>
        <time>2013-09-14T08:23:22Z</time>
      </trkpt>
      <trkpt lat="45.87941" lon="4.68245">
        <ele>381.78</ele>
        <time>2013-09-14T08:23:23Z</time>
      </trkpt>
      <trkpt lat="45.87944" lon="4.68224">
        <ele>382.26</ele>
        <time>2013-09-14T08:23:29Z</time>
      </trkpt>
      <trkpt lat="45.87944" lon="4.68221">
        <ele>382.26</ele>
        <time>2013-09-14T08:23:36Z</time>
      </trkpt>
      <trkpt lat="45.87943" lon="4.6822">
        <ele>381.3</ele>
        <time>2013-09-14T08:23:46Z</time>
      </trkpt>
      <trkpt lat="45.87944" lon="4.68184">
        <ele>380.82</ele>
        <time>2013-09-14T08:23:57Z</time>
      </trkpt>
      <trkpt lat="45.8795" lon="4.68129">
        <ele>377.45</ele>
        <time>2013-09-14T08:24:04Z</time>
      </trkpt>
      <trkpt lat="45.87953" lon="4.681">
        <ele>376.01</ele>
        <time>2013-09-14T08:24:07Z</time>
      </trkpt>
      <trkpt lat="45.87958" lon="4.68055">
        <ele>372.17</ele>
        <time>2013-09-14T08:24:11Z</time>
      </trkpt>
      <trkpt lat="45.87963" lon="4.67994">
        <ele>368.8</ele>
        <time>2013-09-14T08:24:16Z</time>
      </trkpt>
      <trkpt lat="45.87967" lon="4.67956">
        <ele>366.88</ele>
        <time>2013-09-14T08:24:19Z</time>
      </trkpt>
      <trkpt lat="45.87974" lon="4.67876">
        <ele>366.4</ele>
        <time>2013-09-14T08:24:27Z</time>
      </trkpt>
      <trkpt lat="45.87975" lon="4.67834">
        <ele>368.32</ele>
        <time>2013-09-14T08:24:33Z</time>
      </trkpt>
      <trkpt lat="45.87974" lon="4.6783">
        <ele>368.8</ele>
        <time>2013-09-14T08:24:34Z</time>
      </trkpt>
      <trkpt lat="45.87972" lon="4.67828">
        <ele>369.28</ele>
        <time>2013-09-14T08:24:35Z</time>
      </trkpt>
      <trkpt lat="45.87969" lon="4.67827">
        <ele>369.76</ele>
        <time>2013-09-14T08:24:36Z</time>
      </trkpt>
      <trkpt lat="45.87965" lon="4.67826">
        <ele>369.28</ele>
        <time>2013-09-14T08:24:37Z</time>
      </trkpt>
      <trkpt lat="45.87962" lon="4.67825">
        <ele>369.28</ele>
        <time>2013-09-14T08:24:38Z</time>
      </trkpt>
      <trkpt lat="45.87935" lon="4.67802">
        <ele>370.24</ele>
        <time>2013-09-14T08:24:47Z</time>
      </trkpt>
      <trkpt lat="45.87932" lon="4.67795">
        <ele>370.73</ele>
        <time>2013-09-14T08:24:49Z</time>
      </trkpt>
      <trkpt lat="45.87938" lon="4.67775">
        <ele>372.65</ele>
        <time>2013-09-14T08:24:56Z</time>
      </trkpt>
      <trkpt lat="45.87939" lon="4.67771">
        <ele>373.13</ele>
        <time>2013-09-14T08:24:57Z</time>
      </trkpt>
      <trkpt lat="45.8794" lon="4.67768">
        <ele>373.13</ele>
        <time>2013-09-14T08:24:58Z</time>
      </trkpt>
      <trkpt lat="45.87941" lon="4.67754">
        <ele>374.09</ele>
        <time>2013-09-14T08:25:02Z</time>
      </trkpt>
      <trkpt lat="45.8794" lon="4.67751">
        <ele>374.09</ele>
        <time>2013-09-14T08:25:03Z</time>
      </trkpt>
      <trkpt lat="45.87939" lon="4.67748">
        <ele>374.57</ele>
        <time>2013-09-14T08:25:04Z</time>
      </trkpt>
      <trkpt lat="45.87938" lon="4.67745">
        <ele>374.57</ele>
        <time>2013-09-14T08:25:05Z</time>
      </trkpt>
      <trkpt lat="45.87936" lon="4.67743">
        <ele>375.05</ele>
        <time>2013-09-14T08:25:06Z</time>
      </trkpt>
      <trkpt lat="45.87914" lon="4.67738">
        <ele>376.01</ele>
        <time>2013-09-14T08:25:16Z</time>
      </trkpt>
      <trkpt lat="45.87889" lon="4.67734">
        <ele>375.53</ele>
        <time>2013-09-14T08:25:25Z</time>
      </trkpt>
      <trkpt lat="45.87888" lon="4.6773">
        <ele>375.53</ele>
        <time>2013-09-14T08:25:26Z</time>
      </trkpt>
      <trkpt lat="45.87888" lon="4.67726">
        <ele>376.01</ele>
        <time>2013-09-14T08:25:27Z</time>
      </trkpt>
      <trkpt lat="45.87888" lon="4.67722">
        <ele>376.49</ele>
        <time>2013-09-14T08:25:28Z</time>
      </trkpt>
      <trkpt lat="45.87889" lon="4.67718">
        <ele>376.01</ele>
        <time>2013-09-14T08:25:29Z</time>
      </trkpt>
      <trkpt lat="45.87894" lon="4.67694">
        <ele>375.53</ele>
        <time>2013-09-14T08:25:35Z</time>
      </trkpt>
      <trkpt lat="45.87895" lon="4.67688">
        <ele>374.57</ele>
        <time>2013-09-14T08:25:36Z</time>
      </trkpt>
      <trkpt lat="45.87895" lon="4.67681">
        <ele>374.57</ele>
        <time>2013-09-14T08:25:37Z</time>
      </trkpt>
      <trkpt lat="45.87894" lon="4.67675">
        <ele>374.57</ele>
        <time>2013-09-14T08:25:38Z</time>
      </trkpt>
      <trkpt lat="45.87893" lon="4.67669">
        <ele>374.09</ele>
        <time>2013-09-14T08:25:39Z</time>
      </trkpt>
      <trkpt lat="45.87894" lon="4.67663">
        <ele>374.09</ele>
        <time>2013-09-14T08:25:40Z</time>
      </trkpt>
      <trkpt lat="45.87896" lon="4.67659">
        <ele>374.09</ele>
        <time>2013-09-14T08:25:41Z</time>
      </trkpt>
      <trkpt lat="45.87898" lon="4.67655">
        <ele>373.61</ele>
        <time>2013-09-14T08:25:42Z</time>
      </trkpt>
      <trkpt lat="45.87901" lon="4.67651">
        <ele>373.61</ele>
        <time>2013-09-14T08:25:43Z</time>
      </trkpt>
      <trkpt lat="45.87904" lon="4.67647">
        <ele>373.61</ele>
        <time>2013-09-14T08:25:44Z</time>
      </trkpt>
      <trkpt lat="45.87908" lon="4.67644">
        <ele>373.13</ele>
        <time>2013-09-14T08:25:45Z</time>
      </trkpt>
      <trkpt lat="45.87911" lon="4.6764">
        <ele>373.13</ele>
        <time>2013-09-14T08:25:46Z</time>
      </trkpt>
      <trkpt lat="45.87914" lon="4.67635">
        <ele>373.13</ele>
        <time>2013-09-14T08:25:47Z</time>
      </trkpt>
      <trkpt lat="45.87917" lon="4.67629">
        <ele>371.69</ele>
        <time>2013-09-14T08:25:48Z</time>
      </trkpt>
      <trkpt lat="45.8792" lon="4.67621">
        <ele>372.17</ele>
        <time>2013-09-14T08:25:49Z</time>
      </trkpt>
      <trkpt lat="45.87922" lon="4.67613">
        <ele>372.17</ele>
        <time>2013-09-14T08:25:50Z</time>
      </trkpt>
      <trkpt lat="45.87924" lon="4.67604">
        <ele>371.69</ele>
        <time>2013-09-14T08:25:51Z</time>
      </trkpt>
      <trkpt lat="45.8793" lon="4.6758">
        <ele>373.13</ele>
        <time>2013-09-14T08:25:54Z</time>
      </trkpt>
      <trkpt lat="45.87961" lon="4.67514">
        <ele>372.17</ele>
        <time>2013-09-14T08:26:05Z</time>
      </trkpt>
      <trkpt lat="45.87986" lon="4.67466">
        <ele>367.84</ele>
        <time>2013-09-14T08:26:12Z</time>
      </trkpt>
      <trkpt lat="45.87998" lon="4.6744">
        <ele>364.48</ele>
        <time>2013-09-14T08:26:15Z</time>
      </trkpt>
      <trkpt lat="45.88012" lon="4.67412">
        <ele>360.63</ele>
        <time>2013-09-14T08:26:18Z</time>
      </trkpt>
      <trkpt lat="45.88031" lon="4.67366">
        <ele>357.27</ele>
        <time>2013-09-14T08:26:22Z</time>
      </trkpt>
      <trkpt lat="45.88065" lon="4.6729">
        <ele>357.27</ele>
        <time>2013-09-14T08:26:30Z</time>
      </trkpt>
      <trkpt lat="45.88075" lon="4.67263">
        <ele>359.67</ele>
        <time>2013-09-14T08:26:37Z</time>
      </trkpt>
      <trkpt lat="45.88081" lon="4.6724">
        <ele>362.55</ele>
        <time>2013-09-14T08:26:47Z</time>
      </trkpt>
      <trkpt lat="45.88088" lon="4.67215">
        <ele>365.44</ele>
        <time>2013-09-14T08:27:00Z</time>
      </trkpt>
      <trkpt lat="45.88092" lon="4.67201">
        <ele>367.36</ele>
        <time>2013-09-14T08:27:10Z</time>
      </trkpt>
      <trkpt lat="45.88095" lon="4.67184">
        <ele>369.76</ele>
        <time>2013-09-14T08:27:20Z</time>
      </trkpt>
      <trkpt lat="45.88095" lon="4.67183">
        <ele>369.76</ele>
        <time>2013-09-14T08:27:21Z</time>
      </trkpt>
      <trkpt lat="45.88096" lon="4.67176">
        <ele>370.73</ele>
        <time>2013-09-14T08:27:25Z</time>
      </trkpt>
      <trkpt lat="45.88099" lon="4.67164">
        <ele>372.17</ele>
        <time>2013-09-14T08:27:33Z</time>
      </trkpt>
      <trkpt lat="45.881" lon="4.67163">
        <ele>372.65</ele>
        <time>2013-09-14T08:27:34Z</time>
      </trkpt>
      <trkpt lat="45.88101" lon="4.67162">
        <ele>373.13</ele>
        <time>2013-09-14T08:27:35Z</time>
      </trkpt>
      <trkpt lat="45.88102" lon="4.67161">
        <ele>373.13</ele>
        <time>2013-09-14T08:27:36Z</time>
      </trkpt>
      <trkpt lat="45.88104" lon="4.67159">
        <ele>373.61</ele>
        <time>2013-09-14T08:27:38Z</time>
      </trkpt>
      <trkpt lat="45.8811" lon="4.67154">
        <ele>375.05</ele>
        <time>2013-09-14T08:27:44Z</time>
      </trkpt>
      <trkpt lat="45.88112" lon="4.67153">
        <ele>375.05</ele>
        <time>2013-09-14T08:27:45Z</time>
      </trkpt>
      <trkpt lat="45.88128" lon="4.67149">
        <ele>376.49</ele>
        <time>2013-09-14T08:27:56Z</time>
      </trkpt>
      <trkpt lat="45.88147" lon="4.67152">
        <ele>376.01</ele>
        <time>2013-09-14T08:28:06Z</time>
      </trkpt>
      <trkpt lat="45.88179" lon="4.67154">
        <ele>376.01</ele>
        <time>2013-09-14T08:28:18Z</time>
      </trkpt>
      <trkpt lat="45.88209" lon="4.67157">
        <ele>375.53</ele>
        <time>2013-09-14T08:28:27Z</time>
      </trkpt>
      <trkpt lat="45.88225" lon="4.6716">
        <ele>375.05</ele>
        <time>2013-09-14T08:28:31Z</time>
      </trkpt>
      <trkpt lat="45.88297" lon="4.67167">
        <ele>373.13</ele>
        <time>2013-09-14T08:28:45Z</time>
      </trkpt>
      <trkpt lat="45.88349" lon="4.6717">
        <ele>371.69</ele>
        <time>2013-09-14T08:28:54Z</time>
      </trkpt>
      <trkpt lat="45.88354" lon="4.67169">
        <ele>372.17</ele>
        <time>2013-09-14T08:28:55Z</time>
      </trkpt>
      <trkpt lat="45.88365" lon="4.67167">
        <ele>372.17</ele>
        <time>2013-09-14T08:28:57Z</time>
      </trkpt>
      <trkpt lat="45.88379" lon="4.67161">
        <ele>372.65</ele>
        <time>2013-09-14T08:29:00Z</time>
      </trkpt>
      <trkpt lat="45.88408" lon="4.67143">
        <ele>375.05</ele>
        <time>2013-09-14T08:29:09Z</time>
      </trkpt>
      <trkpt lat="45.88427" lon="4.67124">
        <ele>378.42</ele>
        <time>2013-09-14T08:29:20Z</time>
      </trkpt>
      <trkpt lat="45.88444" lon="4.67106">
        <ele>381.3</ele>
        <time>2013-09-14T08:29:32Z</time>
      </trkpt>
      <trkpt lat="45.88457" lon="4.67092">
        <ele>382.74</ele>
        <time>2013-09-14T08:29:42Z</time>
      </trkpt>
      <trkpt lat="45.88476" lon="4.67073">
        <ele>385.63</ele>
        <time>2013-09-14T08:29:56Z</time>
      </trkpt>
      <trkpt lat="45.88492" lon="4.67056">
        <ele>387.55</ele>
        <time>2013-09-14T08:30:07Z</time>
      </trkpt>
      <trkpt lat="45.8851" lon="4.67038">
        <ele>390.43</ele>
        <time>2013-09-14T08:30:21Z</time>
      </trkpt>
      <trkpt lat="45.88526" lon="4.6702">
        <ele>392.84</ele>
        <time>2013-09-14T08:30:35Z</time>
      </trkpt>
      <trkpt lat="45.88541" lon="4.67004">
        <ele>394.28</ele>
        <time>2013-09-14T08:30:48Z</time>
      </trkpt>
      <trkpt lat="45.88557" lon="4.66988">
        <ele>396.68</ele>
        <time>2013-09-14T08:31:01Z</time>
      </trkpt>
      <trkpt lat="45.88571" lon="4.66975">
        <ele>399.08</ele>
        <time>2013-09-14T08:31:13Z</time>
      </trkpt>
      <trkpt lat="45.88586" lon="4.66969">
        <ele>400.53</ele>
        <time>2013-09-14T08:31:24Z</time>
      </trkpt>
      <trkpt lat="45.8861" lon="4.66966">
        <ele>401.01</ele>
        <time>2013-09-14T08:31:36Z</time>
      </trkpt>
      <trkpt lat="45.88631" lon="4.66964">
        <ele>401.49</ele>
        <time>2013-09-14T08:31:47Z</time>
      </trkpt>
      <trkpt lat="45.88657" lon="4.66962">
        <ele>402.93</ele>
        <time>2013-09-14T08:32:00Z</time>
      </trkpt>
      <trkpt lat="45.88685" lon="4.66961">
        <ele>404.37</ele>
        <time>2013-09-14T08:32:13Z</time>
      </trkpt>
      <trkpt lat="45.88689" lon="4.66961">
        <ele>404.85</ele>
        <time>2013-09-14T08:32:15Z</time>
      </trkpt>
      <trkpt lat="45.88715" lon="4.66962">
        <ele>405.81</ele>
        <time>2013-09-14T08:32:27Z</time>
      </trkpt>
      <trkpt lat="45.88737" lon="4.66958">
        <ele>407.26</ele>
        <time>2013-09-14T08:32:38Z</time>
      </trkpt>
      <trkpt lat="45.88763" lon="4.66951">
        <ele>410.62</ele>
        <time>2013-09-14T08:32:52Z</time>
      </trkpt>
      <trkpt lat="45.88784" lon="4.6695">
        <ele>412.54</ele>
        <time>2013-09-14T08:33:03Z</time>
      </trkpt>
      <trkpt lat="45.88805" lon="4.66949">
        <ele>413.5</ele>
        <time>2013-09-14T08:33:14Z</time>
      </trkpt>
      <trkpt lat="45.88827" lon="4.66942">
        <ele>414.47</ele>
        <time>2013-09-14T08:33:26Z</time>
      </trkpt>
      <trkpt lat="45.88853" lon="4.66928">
        <ele>416.87</ele>
        <time>2013-09-14T08:33:40Z</time>
      </trkpt>
      <trkpt lat="45.88875" lon="4.66915">
        <ele>418.31</ele>
        <time>2013-09-14T08:33:52Z</time>
      </trkpt>
      <trkpt lat="45.88899" lon="4.669">
        <ele>418.79</ele>
        <time>2013-09-14T08:34:04Z</time>
      </trkpt>
      <trkpt lat="45.88929" lon="4.66884">
        <ele>420.23</ele>
        <time>2013-09-14T08:34:18Z</time>
      </trkpt>
      <trkpt lat="45.88945" lon="4.66875">
        <ele>421.19</ele>
        <time>2013-09-14T08:34:25Z</time>
      </trkpt>
      <trkpt lat="45.88948" lon="4.66874">
        <ele>421.19</ele>
        <time>2013-09-14T08:34:26Z</time>
      </trkpt>
      <trkpt lat="45.8895" lon="4.66873">
        <ele>421.19</ele>
        <time>2013-09-14T08:34:27Z</time>
      </trkpt>
      <trkpt lat="45.88952" lon="4.66871">
        <ele>421.68</ele>
        <time>2013-09-14T08:34:28Z</time>
      </trkpt>
      <trkpt lat="45.88955" lon="4.66869">
        <ele>421.19</ele>
        <time>2013-09-14T08:34:29Z</time>
      </trkpt>
      <trkpt lat="45.88957" lon="4.66867">
        <ele>421.19</ele>
        <time>2013-09-14T08:34:30Z</time>
      </trkpt>
      <trkpt lat="45.8896" lon="4.66865">
        <ele>421.68</ele>
        <time>2013-09-14T08:34:31Z</time>
      </trkpt>
      <trkpt lat="45.88962" lon="4.66864">
        <ele>421.19</ele>
        <time>2013-09-14T08:34:32Z</time>
      </trkpt>
      <trkpt lat="45.88986" lon="4.66841">
        <ele>421.68</ele>
        <time>2013-09-14T08:34:43Z</time>
      </trkpt>
      <trkpt lat="45.89003" lon="4.6681">
        <ele>420.71</ele>
        <time>2013-09-14T08:34:53Z</time>
      </trkpt>
      <trkpt lat="45.89024" lon="4.66804">
        <ele>419.75</ele>
        <time>2013-09-14T08:35:01Z</time>
      </trkpt>
      <trkpt lat="45.89038" lon="4.66805">
        <ele>419.27</ele>
        <time>2013-09-14T08:35:05Z</time>
      </trkpt>
      <trkpt lat="45.89041" lon="4.66803">
        <ele>419.27</ele>
        <time>2013-09-14T08:35:06Z</time>
      </trkpt>
      <trkpt lat="45.89044" lon="4.66802">
        <ele>419.27</ele>
        <time>2013-09-14T08:35:07Z</time>
      </trkpt>
      <trkpt lat="45.89047" lon="4.66801">
        <ele>419.27</ele>
        <time>2013-09-14T08:35:08Z</time>
      </trkpt>
      <trkpt lat="45.89051" lon="4.66798">
        <ele>419.27</ele>
        <time>2013-09-14T08:35:09Z</time>
      </trkpt>
      <trkpt lat="45.89061" lon="4.66787">
        <ele>417.83</ele>
        <time>2013-09-14T08:35:12Z</time>
      </trkpt>
      <trkpt lat="45.89066" lon="4.66784">
        <ele>417.35</ele>
        <time>2013-09-14T08:35:13Z</time>
      </trkpt>
      <trkpt lat="45.89078" lon="4.66776">
        <ele>415.43</ele>
        <time>2013-09-14T08:35:17Z</time>
      </trkpt>
      <trkpt lat="45.89095" lon="4.66786">
        <ele>415.43</ele>
        <time>2013-09-14T08:35:23Z</time>
      </trkpt>
      <trkpt lat="45.89128" lon="4.66808">
        <ele>415.91</ele>
        <time>2013-09-14T08:35:34Z</time>
      </trkpt>
      <trkpt lat="45.89151" lon="4.66821">
        <ele>414.95</ele>
        <time>2013-09-14T08:35:41Z</time>
      </trkpt>
      <trkpt lat="45.89153" lon="4.66825">
        <ele>414.95</ele>
        <time>2013-09-14T08:35:42Z</time>
      </trkpt>
      <trkpt lat="45.89154" lon="4.6683">
        <ele>414.95</ele>
        <time>2013-09-14T08:35:43Z</time>
      </trkpt>
      <trkpt lat="45.89153" lon="4.66834">
        <ele>415.43</ele>
        <time>2013-09-14T08:35:44Z</time>
      </trkpt>
      <trkpt lat="45.89153" lon="4.66838">
        <ele>415.43</ele>
        <time>2013-09-14T08:35:45Z</time>
      </trkpt>
      <trkpt lat="45.89152" lon="4.66842">
        <ele>414.95</ele>
        <time>2013-09-14T08:35:46Z</time>
      </trkpt>
      <trkpt lat="45.89152" lon="4.66846">
        <ele>414.95</ele>
        <time>2013-09-14T08:35:47Z</time>
      </trkpt>
      <trkpt lat="45.8915" lon="4.66853">
        <ele>415.91</ele>
        <time>2013-09-14T08:35:49Z</time>
      </trkpt>
      <trkpt lat="45.89152" lon="4.66855">
        <ele>414.95</ele>
        <time>2013-09-14T08:35:50Z</time>
      </trkpt>
      <trkpt lat="45.89156" lon="4.66857">
        <ele>415.43</ele>
        <time>2013-09-14T08:35:51Z</time>
      </trkpt>
      <trkpt lat="45.8916" lon="4.66858">
        <ele>416.39</ele>
        <time>2013-09-14T08:35:52Z</time>
      </trkpt>
      <trkpt lat="45.89163" lon="4.66859">
        <ele>416.39</ele>
        <time>2013-09-14T08:35:53Z</time>
      </trkpt>
      <trkpt lat="45.89166" lon="4.6686">
        <ele>415.91</ele>
        <time>2013-09-14T08:35:54Z</time>
      </trkpt>
      <trkpt lat="45.89168" lon="4.66861">
        <ele>416.39</ele>
        <time>2013-09-14T08:35:55Z</time>
      </trkpt>
      <trkpt lat="45.89171" lon="4.66862">
        <ele>415.91</ele>
        <time>2013-09-14T08:35:56Z</time>
      </trkpt>
      <trkpt lat="45.89173" lon="4.66862">
        <ele>415.91</ele>
        <time>2013-09-14T08:35:57Z</time>
      </trkpt>
      <trkpt lat="45.89197" lon="4.66873">
        <ele>417.83</ele>
        <time>2013-09-14T08:36:08Z</time>
      </trkpt>
      <trkpt lat="45.89221" lon="4.66884">
        <ele>419.75</ele>
        <time>2013-09-14T08:36:20Z</time>
      </trkpt>
      <trkpt lat="45.89243" lon="4.66895">
        <ele>422.64</ele>
        <time>2013-09-14T08:36:33Z</time>
      </trkpt>
      <trkpt lat="45.89258" lon="4.66902">
        <ele>424.08</ele>
        <time>2013-09-14T08:36:43Z</time>
      </trkpt>
      <trkpt lat="45.89275" lon="4.66911">
        <ele>426.48</ele>
        <time>2013-09-14T08:36:55Z</time>
      </trkpt>
      <trkpt lat="45.89294" lon="4.66919">
        <ele>429.37</ele>
        <time>2013-09-14T08:37:08Z</time>
      </trkpt>
      <trkpt lat="45.8931" lon="4.66925">
        <ele>432.73</ele>
        <time>2013-09-14T08:37:20Z</time>
      </trkpt>
      <trkpt lat="45.89328" lon="4.66933">
        <ele>435.13</ele>
        <time>2013-09-14T08:37:34Z</time>
      </trkpt>
      <trkpt lat="45.89347" lon="4.66946">
        <ele>437.54</ele>
        <time>2013-09-14T08:37:49Z</time>
      </trkpt>
      <trkpt lat="45.89363" lon="4.66958">
        <ele>438.5</ele>
        <time>2013-09-14T08:38:01Z</time>
      </trkpt>
      <trkpt lat="45.89378" lon="4.66966">
        <ele>440.42</ele>
        <time>2013-09-14T08:38:11Z</time>
      </trkpt>
      <trkpt lat="45.89379" lon="4.66966">
        <ele>439.94</ele>
        <time>2013-09-14T08:38:12Z</time>
      </trkpt>
      <trkpt lat="45.89395" lon="4.66965">
        <ele>441.38</ele>
        <time>2013-09-14T08:38:24Z</time>
      </trkpt>
      <trkpt lat="45.89393" lon="4.66964">
        <ele>441.38</ele>
        <time>2013-09-14T08:38:33Z</time>
      </trkpt>
      <trkpt lat="45.89393" lon="4.66965">
        <ele>440.9</ele>
        <time>2013-09-14T08:38:40Z</time>
      </trkpt>
      <trkpt lat="45.89393" lon="4.66965">
        <ele>440.9</ele>
        <time>2013-09-14T08:39:06Z</time>
      </trkpt>
      <trkpt lat="45.89393" lon="4.66966">
        <ele>441.86</ele>
        <time>2013-09-14T08:39:34Z</time>
      </trkpt>
      <trkpt lat="45.89393" lon="4.66966">
        <ele>441.38</ele>
        <time>2013-09-14T08:40:04Z</time>
      </trkpt>
      <trkpt lat="45.89393" lon="4.66966">
        <ele>441.38</ele>
        <time>2013-09-14T08:40:36Z</time>
      </trkpt>
      <trkpt lat="45.89393" lon="4.66965">
        <ele>441.38</ele>
        <time>2013-09-14T08:41:10Z</time>
      </trkpt>
      <trkpt lat="45.89393" lon="4.66965">
        <ele>441.38</ele>
        <time>2013-09-14T08:41:42Z</time>
      </trkpt>
      <trkpt lat="45.89393" lon="4.66965">
        <ele>441.38</ele>
        <time>2013-09-14T08:42:16Z</time>
      </trkpt>
      <trkpt lat="45.89393" lon="4.66966">
        <ele>441.38</ele>
        <time>2013-09-14T08:42:43Z</time>
      </trkpt>
      <trkpt lat="45.89393" lon="4.66966">
        <ele>441.86</ele>
        <time>2013-09-14T08:43:13Z</time>
      </trkpt>
      <trkpt lat="45.89393" lon="4.66966">
        <ele>441.38</ele>
        <time>2013-09-14T08:43:43Z</time>
      </trkpt>
      <trkpt lat="45.89393" lon="4.66966">
        <ele>441.38</ele>
        <time>2013-09-14T08:44:13Z</time>
      </trkpt>
      <trkpt lat="45.89393" lon="4.66966">
        <ele>441.86</ele>
        <time>2013-09-14T08:44:43Z</time>
      </trkpt>
      <trkpt lat="45.89393" lon="4.66966">
        <ele>441.86</ele>
        <time>2013-09-14T08:45:14Z</time>
      </trkpt>
      <trkpt lat="45.89393" lon="4.66966">
        <ele>441.86</ele>
        <time>2013-09-14T08:45:41Z</time>
      </trkpt>
      <trkpt lat="45.89393" lon="4.66966">
        <ele>441.86</ele>
        <time>2013-09-14T08:46:09Z</time>
      </trkpt>
      <trkpt lat="45.89393" lon="4.66966">
        <ele>441.38</ele>
        <time>2013-09-14T08:46:36Z</time>
      </trkpt>
      <trkpt lat="45.89393" lon="4.66965">
        <ele>441.38</ele>
        <time>2013-09-14T08:47:01Z</time>
      </trkpt>
      <trkpt lat="45.89391" lon="4.66963">
        <ele>440.9</ele>
        <time>2013-09-14T08:47:30Z</time>
      </trkpt>
      <trkpt lat="45.8939" lon="4.66962">
        <ele>441.38</ele>
        <time>2013-09-14T08:47:35Z</time>
      </trkpt>
      <trkpt lat="45.89389" lon="4.66962">
        <ele>440.9</ele>
        <time>2013-09-14T08:47:44Z</time>
      </trkpt>
      <trkpt lat="45.89389" lon="4.66962">
        <ele>440.9</ele>
        <time>2013-09-14T08:48:02Z</time>
      </trkpt>
      <trkpt lat="45.89388" lon="4.66962">
        <ele>441.38</ele>
        <time>2013-09-14T08:48:23Z</time>
      </trkpt>
      <trkpt lat="45.89382" lon="4.66962">
        <ele>441.38</ele>
        <time>2013-09-14T08:48:32Z</time>
      </trkpt>
      <trkpt lat="45.89381" lon="4.66964">
        <ele>440.42</ele>
        <time>2013-09-14T08:48:33Z</time>
      </trkpt>
      <trkpt lat="45.8938" lon="4.66968">
        <ele>440.42</ele>
        <time>2013-09-14T08:48:34Z</time>
      </trkpt>
      <trkpt lat="45.8938" lon="4.66972">
        <ele>440.42</ele>
        <time>2013-09-14T08:48:35Z</time>
      </trkpt>
      <trkpt lat="45.89381" lon="4.66975">
        <ele>440.42</ele>
        <time>2013-09-14T08:48:36Z</time>
      </trkpt>
      <trkpt lat="45.89383" lon="4.66977">
        <ele>439.94</ele>
        <time>2013-09-14T08:48:37Z</time>
      </trkpt>
      <trkpt lat="45.89384" lon="4.6698">
        <ele>439.94</ele>
        <time>2013-09-14T08:48:38Z</time>
      </trkpt>
      <trkpt lat="45.89385" lon="4.66981">
        <ele>440.42</ele>
        <time>2013-09-14T08:48:39Z</time>
      </trkpt>
      <trkpt lat="45.89386" lon="4.66983">
        <ele>440.9</ele>
        <time>2013-09-14T08:48:40Z</time>
      </trkpt>
      <trkpt lat="45.89387" lon="4.66984">
        <ele>440.42</ele>
        <time>2013-09-14T08:48:41Z</time>
      </trkpt>
      <trkpt lat="45.89388" lon="4.66986">
        <ele>440.42</ele>
        <time>2013-09-14T08:48:42Z</time>
      </trkpt>
      <trkpt lat="45.8939" lon="4.66987">
        <ele>440.9</ele>
        <time>2013-09-14T08:48:43Z</time>
      </trkpt>
      <trkpt lat="45.89391" lon="4.66989">
        <ele>440.42</ele>
        <time>2013-09-14T08:48:44Z</time>
      </trkpt>
      <trkpt lat="45.89406" lon="4.67004">
        <ele>440.42</ele>
        <time>2013-09-14T08:48:54Z</time>
      </trkpt>
      <trkpt lat="45.89421" lon="4.67021">
        <ele>441.38</ele>
        <time>2013-09-14T08:49:03Z</time>
      </trkpt>
      <trkpt lat="45.89446" lon="4.6704">
        <ele>440.42</ele>
        <time>2013-09-14T08:49:14Z</time>
      </trkpt>
      <trkpt lat="45.8947" lon="4.67062">
        <ele>439.94</ele>
        <time>2013-09-14T08:49:23Z</time>
      </trkpt>
      <trkpt lat="45.89488" lon="4.67088">
        <ele>439.46</ele>
        <time>2013-09-14T08:49:30Z</time>
      </trkpt>
      <trkpt lat="45.89503" lon="4.67124">
        <ele>438.98</ele>
        <time>2013-09-14T08:49:38Z</time>
      </trkpt>
      <trkpt lat="45.89513" lon="4.67179">
        <ele>437.06</ele>
        <time>2013-09-14T08:49:46Z</time>
      </trkpt>
      <trkpt lat="45.89526" lon="4.67219">
        <ele>436.58</ele>
        <time>2013-09-14T08:49:52Z</time>
      </trkpt>
      <trkpt lat="45.8953" lon="4.67225">
        <ele>436.58</ele>
        <time>2013-09-14T08:49:53Z</time>
      </trkpt>
      <trkpt lat="45.89534" lon="4.6723">
        <ele>436.1</ele>
        <time>2013-09-14T08:49:54Z</time>
      </trkpt>
      <trkpt lat="45.89538" lon="4.67234">
        <ele>436.1</ele>
        <time>2013-09-14T08:49:55Z</time>
      </trkpt>
      <trkpt lat="45.89543" lon="4.67239">
        <ele>436.58</ele>
        <time>2013-09-14T08:49:56Z</time>
      </trkpt>
      <trkpt lat="45.89561" lon="4.67254">
        <ele>435.13</ele>
        <time>2013-09-14T08:50:00Z</time>
      </trkpt>
      <trkpt lat="45.89576" lon="4.67263">
        <ele>435.13</ele>
        <time>2013-09-14T08:50:03Z</time>
      </trkpt>
      <trkpt lat="45.89614" lon="4.6727">
        <ele>433.21</ele>
        <time>2013-09-14T08:50:10Z</time>
      </trkpt>
      <trkpt lat="45.89673" lon="4.67263">
        <ele>430.33</ele>
        <time>2013-09-14T08:50:21Z</time>
      </trkpt>
      <trkpt lat="45.89679" lon="4.67263">
        <ele>429.85</ele>
        <time>2013-09-14T08:50:22Z</time>
      </trkpt>
      <trkpt lat="45.89686" lon="4.67262">
        <ele>429.37</ele>
        <time>2013-09-14T08:50:23Z</time>
      </trkpt>
      <trkpt lat="45.89701" lon="4.6726">
        <ele>428.89</ele>
        <time>2013-09-14T08:50:28Z</time>
      </trkpt>
      <trkpt lat="45.89746" lon="4.67248">
        <ele>427.92</ele>
        <time>2013-09-14T08:50:38Z</time>
      </trkpt>
      <trkpt lat="45.89767" lon="4.67238">
        <ele>426.96</ele>
        <time>2013-09-14T08:50:44Z</time>
      </trkpt>
      <trkpt lat="45.89779" lon="4.67233">
        <ele>426.48</ele>
        <time>2013-09-14T08:50:47Z</time>
      </trkpt>
      <trkpt lat="45.89794" lon="4.67229">
        <ele>425.52</ele>
        <time>2013-09-14T08:50:50Z</time>
      </trkpt>
      <trkpt lat="45.8981" lon="4.67225">
        <ele>424.56</ele>
        <time>2013-09-14T08:50:53Z</time>
      </trkpt>
      <trkpt lat="45.89816" lon="4.67224">
        <ele>424.56</ele>
        <time>2013-09-14T08:50:54Z</time>
      </trkpt>
      <trkpt lat="45.89822" lon="4.67222">
        <ele>424.56</ele>
        <time>2013-09-14T08:50:55Z</time>
      </trkpt>
      <trkpt lat="45.89826" lon="4.67221">
        <ele>424.08</ele>
        <time>2013-09-14T08:50:56Z</time>
      </trkpt>
      <trkpt lat="45.89832" lon="4.6722">
        <ele>424.08</ele>
        <time>2013-09-14T08:50:57Z</time>
      </trkpt>
      <trkpt lat="45.89837" lon="4.67219">
        <ele>424.56</ele>
        <time>2013-09-14T08:50:58Z</time>
      </trkpt>
      <trkpt lat="45.89842" lon="4.67219">
        <ele>424.08</ele>
        <time>2013-09-14T08:50:59Z</time>
      </trkpt>
      <trkpt lat="45.89848" lon="4.67218">
        <ele>424.08</ele>
        <time>2013-09-14T08:51:00Z</time>
      </trkpt>
      <trkpt lat="45.89853" lon="4.67219">
        <ele>424.08</ele>
        <time>2013-09-14T08:51:01Z</time>
      </trkpt>
      <trkpt lat="45.89858" lon="4.67219">
        <ele>424.08</ele>
        <time>2013-09-14T08:51:02Z</time>
      </trkpt>
      <trkpt lat="45.89868" lon="4.67219">
        <ele>424.08</ele>
        <time>2013-09-14T08:51:04Z</time>
      </trkpt>
      <trkpt lat="45.89878" lon="4.67219">
        <ele>423.12</ele>
        <time>2013-09-14T08:51:06Z</time>
      </trkpt>
      <trkpt lat="45.89883" lon="4.67221">
        <ele>423.12</ele>
        <time>2013-09-14T08:51:07Z</time>
      </trkpt>
      <trkpt lat="45.899" lon="4.67227">
        <ele>422.16</ele>
        <time>2013-09-14T08:51:10Z</time>
      </trkpt>
      <trkpt lat="45.89907" lon="4.67228">
        <ele>422.16</ele>
        <time>2013-09-14T08:51:11Z</time>
      </trkpt>
      <trkpt lat="45.89952" lon="4.67236">
        <ele>418.79</ele>
        <time>2013-09-14T08:51:19Z</time>
      </trkpt>
      <trkpt lat="45.89958" lon="4.67238">
        <ele>417.83</ele>
        <time>2013-09-14T08:51:20Z</time>
      </trkpt>
      <trkpt lat="45.89964" lon="4.6724">
        <ele>417.83</ele>
        <time>2013-09-14T08:51:21Z</time>
      </trkpt>
      <trkpt lat="45.90005" lon="4.67257">
        <ele>414.95</ele>
        <time>2013-09-14T08:51:26Z</time>
      </trkpt>
      <trkpt lat="45.90087" lon="4.67291">
        <ele>412.54</ele>
        <time>2013-09-14T08:51:35Z</time>
      </trkpt>
      <trkpt lat="45.90118" lon="4.67302">
        <ele>413.02</ele>
        <time>2013-09-14T08:51:39Z</time>
      </trkpt>
      <trkpt lat="45.90125" lon="4.67305">
        <ele>412.54</ele>
        <time>2013-09-14T08:51:40Z</time>
      </trkpt>
      <trkpt lat="45.90188" lon="4.67342">
        <ele>412.54</ele>
        <time>2013-09-14T08:51:50Z</time>
      </trkpt>
      <trkpt lat="45.90192" lon="4.67347">
        <ele>412.06</ele>
        <time>2013-09-14T08:51:55Z</time>
      </trkpt>
      <trkpt lat="45.90192" lon="4.67347">
        <ele>412.06</ele>
        <time>2013-09-14T08:52:12Z</time>
      </trkpt>
      <trkpt lat="45.90192" lon="4.67348">
        <ele>412.06</ele>
        <time>2013-09-14T08:52:36Z</time>
      </trkpt>
      <trkpt lat="45.90193" lon="4.67348">
        <ele>415.43</ele>
        <time>2013-09-14T08:52:54Z</time>
      </trkpt>
      <trkpt lat="45.90193" lon="4.67348">
        <ele>412.06</ele>
        <time>2013-09-14T08:52:55Z</time>
      </trkpt>
      <trkpt lat="45.90195" lon="4.67347">
        <ele>412.06</ele>
        <time>2013-09-14T08:53:00Z</time>
      </trkpt>
      <trkpt lat="45.90197" lon="4.67348">
        <ele>412.06</ele>
        <time>2013-09-14T08:53:01Z</time>
      </trkpt>
      <trkpt lat="45.90198" lon="4.67348">
        <ele>412.06</ele>
        <time>2013-09-14T08:53:02Z</time>
      </trkpt>
      <trkpt lat="45.902" lon="4.67349">
        <ele>412.06</ele>
        <time>2013-09-14T08:53:03Z</time>
      </trkpt>
      <trkpt lat="45.90202" lon="4.6735">
        <ele>412.54</ele>
        <time>2013-09-14T08:53:04Z</time>
      </trkpt>
      <trkpt lat="45.90204" lon="4.67352">
        <ele>412.06</ele>
        <time>2013-09-14T08:53:05Z</time>
      </trkpt>
      <trkpt lat="45.90206" lon="4.67353">
        <ele>412.54</ele>
        <time>2013-09-14T08:53:06Z</time>
      </trkpt>
      <trkpt lat="45.90208" lon="4.67354">
        <ele>411.58</ele>
        <time>2013-09-14T08:53:07Z</time>
      </trkpt>
      <trkpt lat="45.90234" lon="4.6737">
        <ele>411.58</ele>
        <time>2013-09-14T08:53:17Z</time>
      </trkpt>
      <trkpt lat="45.90274" lon="4.67397">
        <ele>411.1</ele>
        <time>2013-09-14T08:53:28Z</time>
      </trkpt>
      <trkpt lat="45.90291" lon="4.6741">
        <ele>410.62</ele>
        <time>2013-09-14T08:53:32Z</time>
      </trkpt>
      <trkpt lat="45.90339" lon="4.67458">
        <ele>406.77</ele>
        <time>2013-09-14T08:53:42Z</time>
      </trkpt>
      <trkpt lat="45.90346" lon="4.67462">
        <ele>406.29</ele>
        <time>2013-09-14T08:53:43Z</time>
      </trkpt>
      <trkpt lat="45.90352" lon="4.67464">
        <ele>405.81</ele>
        <time>2013-09-14T08:53:44Z</time>
      </trkpt>
      <trkpt lat="45.90359" lon="4.67466">
        <ele>405.33</ele>
        <time>2013-09-14T08:53:45Z</time>
      </trkpt>
      <trkpt lat="45.90366" lon="4.67466">
        <ele>405.33</ele>
        <time>2013-09-14T08:53:46Z</time>
      </trkpt>
      <trkpt lat="45.90373" lon="4.67466">
        <ele>405.33</ele>
        <time>2013-09-14T08:53:47Z</time>
      </trkpt>
      <trkpt lat="45.9038" lon="4.67465">
        <ele>405.33</ele>
        <time>2013-09-14T08:53:48Z</time>
      </trkpt>
      <trkpt lat="45.90387" lon="4.67463">
        <ele>404.37</ele>
        <time>2013-09-14T08:53:49Z</time>
      </trkpt>
      <trkpt lat="45.90408" lon="4.67454">
        <ele>404.37</ele>
        <time>2013-09-14T08:53:55Z</time>
      </trkpt>
      <trkpt lat="45.90427" lon="4.67439">
        <ele>404.37</ele>
        <time>2013-09-14T08:54:04Z</time>
      </trkpt>
      <trkpt lat="45.90437" lon="4.67413">
        <ele>405.33</ele>
        <time>2013-09-14T08:54:13Z</time>
      </trkpt>
      <trkpt lat="45.90442" lon="4.67364">
        <ele>406.77</ele>
        <time>2013-09-14T08:54:23Z</time>
      </trkpt>
      <trkpt lat="45.90444" lon="4.67346">
        <ele>407.26</ele>
        <time>2013-09-14T08:54:26Z</time>
      </trkpt>
      <trkpt lat="45.90446" lon="4.6734">
        <ele>406.77</ele>
        <time>2013-09-14T08:54:27Z</time>
      </trkpt>
      <trkpt lat="45.90452" lon="4.67316">
        <ele>407.26</ele>
        <time>2013-09-14T08:54:31Z</time>
      </trkpt>
      <trkpt lat="45.90454" lon="4.67311">
        <ele>407.26</ele>
        <time>2013-09-14T08:54:32Z</time>
      </trkpt>
      <trkpt lat="45.90472" lon="4.67246">
        <ele>408.22</ele>
        <time>2013-09-14T08:54:43Z</time>
      </trkpt>
      <trkpt lat="45.90492" lon="4.67183">
        <ele>409.66</ele>
        <time>2013-09-14T08:54:54Z</time>
      </trkpt>
      <trkpt lat="45.90512" lon="4.67121">
        <ele>411.58</ele>
        <time>2013-09-14T08:55:05Z</time>
      </trkpt>
      <trkpt lat="45.90519" lon="4.67097">
        <ele>411.58</ele>
        <time>2013-09-14T08:55:09Z</time>
      </trkpt>
      <trkpt lat="45.90534" lon="4.67055">
        <ele>412.54</ele>
        <time>2013-09-14T08:55:18Z</time>
      </trkpt>
      <trkpt lat="45.90539" lon="4.67033">
        <ele>413.02</ele>
        <time>2013-09-14T08:55:25Z</time>
      </trkpt>
      <trkpt lat="45.90541" lon="4.67032">
        <ele>413.5</ele>
        <time>2013-09-14T08:55:26Z</time>
      </trkpt>
      <trkpt lat="45.90546" lon="4.67025">
        <ele>413.02</ele>
        <time>2013-09-14T08:55:29Z</time>
      </trkpt>
      <trkpt lat="45.90548" lon="4.67019">
        <ele>413.02</ele>
        <time>2013-09-14T08:55:31Z</time>
      </trkpt>
      <trkpt lat="45.90554" lon="4.6698">
        <ele>412.54</ele>
        <time>2013-09-14T08:55:41Z</time>
      </trkpt>
      <trkpt lat="45.90555" lon="4.6697">
        <ele>412.06</ele>
        <time>2013-09-14T08:55:44Z</time>
      </trkpt>
      <trkpt lat="45.90556" lon="4.66966">
        <ele>411.58</ele>
        <time>2013-09-14T08:55:45Z</time>
      </trkpt>
      <trkpt lat="45.90559" lon="4.66961">
        <ele>411.1</ele>
        <time>2013-09-14T08:55:46Z</time>
      </trkpt>
      <trkpt lat="45.90565" lon="4.66952">
        <ele>411.1</ele>
        <time>2013-09-14T08:55:48Z</time>
      </trkpt>
      <trkpt lat="45.90568" lon="4.66951">
        <ele>411.1</ele>
        <time>2013-09-14T08:55:49Z</time>
      </trkpt>
      <trkpt lat="45.90571" lon="4.66949">
        <ele>410.62</ele>
        <time>2013-09-14T08:55:50Z</time>
      </trkpt>
      <trkpt lat="45.90575" lon="4.66945">
        <ele>410.62</ele>
        <time>2013-09-14T08:55:51Z</time>
      </trkpt>
      <trkpt lat="45.90578" lon="4.66941">
        <ele>410.62</ele>
        <time>2013-09-14T08:55:52Z</time>
      </trkpt>
      <trkpt lat="45.90581" lon="4.66937">
        <ele>410.14</ele>
        <time>2013-09-14T08:55:53Z</time>
      </trkpt>
      <trkpt lat="45.90586" lon="4.66922">
        <ele>408.7</ele>
        <time>2013-09-14T08:55:56Z</time>
      </trkpt>
      <trkpt lat="45.90588" lon="4.66909">
        <ele>408.22</ele>
        <time>2013-09-14T08:55:58Z</time>
      </trkpt>
      <trkpt lat="45.90593" lon="4.66884">
        <ele>406.29</ele>
        <time>2013-09-14T08:56:02Z</time>
      </trkpt>
      <trkpt lat="45.90594" lon="4.6688">
        <ele>405.81</ele>
        <time>2013-09-14T08:56:03Z</time>
      </trkpt>
      <trkpt lat="45.90594" lon="4.66876">
        <ele>405.33</ele>
        <time>2013-09-14T08:56:04Z</time>
      </trkpt>
      <trkpt lat="45.90594" lon="4.66873">
        <ele>405.81</ele>
        <time>2013-09-14T08:56:05Z</time>
      </trkpt>
      <trkpt lat="45.90598" lon="4.66847">
        <ele>403.41</ele>
        <time>2013-09-14T08:56:10Z</time>
      </trkpt>
      <trkpt lat="45.90601" lon="4.66821">
        <ele>401.01</ele>
        <time>2013-09-14T08:56:14Z</time>
      </trkpt>
      <trkpt lat="45.90603" lon="4.66814">
        <ele>401.01</ele>
        <time>2013-09-14T08:56:15Z</time>
      </trkpt>
      <trkpt lat="45.90611" lon="4.66783">
        <ele>397.64</ele>
        <time>2013-09-14T08:56:19Z</time>
      </trkpt>
      <trkpt lat="45.90619" lon="4.66753">
        <ele>394.28</ele>
        <time>2013-09-14T08:56:23Z</time>
      </trkpt>
      <trkpt lat="45.90629" lon="4.66731">
        <ele>391.39</ele>
        <time>2013-09-14T08:56:28Z</time>
      </trkpt>
      <trkpt lat="45.9063" lon="4.66729">
        <ele>390.43</ele>
        <time>2013-09-14T08:56:29Z</time>
      </trkpt>
      <trkpt lat="45.90631" lon="4.66725">
        <ele>389.95</ele>
        <time>2013-09-14T08:56:30Z</time>
      </trkpt>
      <trkpt lat="45.90631" lon="4.6672">
        <ele>388.99</ele>
        <time>2013-09-14T08:56:31Z</time>
      </trkpt>
      <trkpt lat="45.9063" lon="4.66714">
        <ele>388.03</ele>
        <time>2013-09-14T08:56:32Z</time>
      </trkpt>
      <trkpt lat="45.90629" lon="4.66708">
        <ele>387.07</ele>
        <time>2013-09-14T08:56:33Z</time>
      </trkpt>
      <trkpt lat="45.90627" lon="4.66702">
        <ele>387.07</ele>
        <time>2013-09-14T08:56:34Z</time>
      </trkpt>
      <trkpt lat="45.90626" lon="4.66696">
        <ele>386.11</ele>
        <time>2013-09-14T08:56:35Z</time>
      </trkpt>
      <trkpt lat="45.90622" lon="4.66692">
        <ele>385.63</ele>
        <time>2013-09-14T08:56:36Z</time>
      </trkpt>
      <trkpt lat="45.90618" lon="4.66687">
        <ele>384.66</ele>
        <time>2013-09-14T08:56:37Z</time>
      </trkpt>
      <trkpt lat="45.90609" lon="4.66674">
        <ele>381.3</ele>
        <time>2013-09-14T08:56:40Z</time>
      </trkpt>
      <trkpt lat="45.90607" lon="4.6667">
        <ele>381.3</ele>
        <time>2013-09-14T08:56:41Z</time>
      </trkpt>
      <trkpt lat="45.90596" lon="4.66659">
        <ele>379.38</ele>
        <time>2013-09-14T08:56:44Z</time>
      </trkpt>
      <trkpt lat="45.90593" lon="4.66652">
        <ele>378.42</ele>
        <time>2013-09-14T08:56:45Z</time>
      </trkpt>
      <trkpt lat="45.90591" lon="4.66645">
        <ele>377.94</ele>
        <time>2013-09-14T08:56:46Z</time>
      </trkpt>
      <trkpt lat="45.90589" lon="4.66636">
        <ele>377.94</ele>
        <time>2013-09-14T08:56:47Z</time>
      </trkpt>
      <trkpt lat="45.90589" lon="4.66626">
        <ele>376.97</ele>
        <time>2013-09-14T08:56:48Z</time>
      </trkpt>
      <trkpt lat="45.90589" lon="4.66616">
        <ele>376.01</ele>
        <time>2013-09-14T08:56:49Z</time>
      </trkpt>
      <trkpt lat="45.90589" lon="4.66585">
        <ele>374.57</ele>
        <time>2013-09-14T08:56:52Z</time>
      </trkpt>
      <trkpt lat="45.90593" lon="4.66534">
        <ele>372.65</ele>
        <time>2013-09-14T08:56:57Z</time>
      </trkpt>
      <trkpt lat="45.90594" lon="4.66525">
        <ele>372.65</ele>
        <time>2013-09-14T08:56:58Z</time>
      </trkpt>
      <trkpt lat="45.9059" lon="4.6644">
        <ele>370.24</ele>
        <time>2013-09-14T08:57:06Z</time>
      </trkpt>
      <trkpt lat="45.90586" lon="4.664">
        <ele>368.32</ele>
        <time>2013-09-14T08:57:10Z</time>
      </trkpt>
      <trkpt lat="45.9058" lon="4.6635">
        <ele>366.88</ele>
        <time>2013-09-14T08:57:16Z</time>
      </trkpt>
      <trkpt lat="45.90579" lon="4.66341">
        <ele>365.44</ele>
        <time>2013-09-14T08:57:17Z</time>
      </trkpt>
      <trkpt lat="45.90579" lon="4.66331">
        <ele>364.96</ele>
        <time>2013-09-14T08:57:18Z</time>
      </trkpt>
      <trkpt lat="45.90576" lon="4.66279">
        <ele>361.59</ele>
        <time>2013-09-14T08:57:22Z</time>
      </trkpt>
      <trkpt lat="45.90574" lon="4.66236">
        <ele>357.75</ele>
        <time>2013-09-14T08:57:25Z</time>
      </trkpt>
      <trkpt lat="45.90574" lon="4.66195">
        <ele>353.42</ele>
        <time>2013-09-14T08:57:28Z</time>
      </trkpt>
      <trkpt lat="45.90573" lon="4.6615">
        <ele>349.58</ele>
        <time>2013-09-14T08:57:32Z</time>
      </trkpt>
      <trkpt lat="45.90573" lon="4.66114">
        <ele>345.73</ele>
        <time>2013-09-14T08:57:36Z</time>
      </trkpt>
      <trkpt lat="45.90572" lon="4.66089">
        <ele>343.33</ele>
        <time>2013-09-14T08:57:40Z</time>
      </trkpt>
      <trkpt lat="45.90571" lon="4.66084">
        <ele>342.37</ele>
        <time>2013-09-14T08:57:42Z</time>
      </trkpt>
      <trkpt lat="45.90571" lon="4.66083">
        <ele>336.6</ele>
        <time>2013-09-14T08:57:52Z</time>
      </trkpt>
      <trkpt lat="45.90571" lon="4.66083">
        <ele>343.33</ele>
        <time>2013-09-14T08:57:53Z</time>
      </trkpt>
      <trkpt lat="45.90571" lon="4.66083">
        <ele>339.96</ele>
        <time>2013-09-14T08:57:54Z</time>
      </trkpt>
      <trkpt lat="45.90571" lon="4.66083">
        <ele>344.29</ele>
        <time>2013-09-14T08:57:56Z</time>
      </trkpt>
      <trkpt lat="45.90571" lon="4.66083">
        <ele>342.37</ele>
        <time>2013-09-14T08:57:59Z</time>
      </trkpt>
      <trkpt lat="45.90571" lon="4.66083">
        <ele>340.92</ele>
        <time>2013-09-14T08:58:17Z</time>
      </trkpt>
      <trkpt lat="45.90571" lon="4.66081">
        <ele>342.37</ele>
        <time>2013-09-14T08:58:35Z</time>
      </trkpt>
      <trkpt lat="45.90571" lon="4.66078">
        <ele>341.89</ele>
        <time>2013-09-14T08:58:36Z</time>
      </trkpt>
      <trkpt lat="45.90569" lon="4.66075">
        <ele>341.41</ele>
        <time>2013-09-14T08:58:37Z</time>
      </trkpt>
      <trkpt lat="45.90559" lon="4.66051">
        <ele>348.62</ele>
        <time>2013-09-14T08:58:41Z</time>
      </trkpt>
      <trkpt lat="45.90555" lon="4.66043">
        <ele>340.44</ele>
        <time>2013-09-14T08:58:42Z</time>
      </trkpt>
      <trkpt lat="45.9054" lon="4.66008">
        <ele>337.56</ele>
        <time>2013-09-14T08:58:47Z</time>
      </trkpt>
      <trkpt lat="45.90538" lon="4.66">
        <ele>337.56</ele>
        <time>2013-09-14T08:58:48Z</time>
      </trkpt>
      <trkpt lat="45.90538" lon="4.65991">
        <ele>337.08</ele>
        <time>2013-09-14T08:58:49Z</time>
      </trkpt>
      <trkpt lat="45.90539" lon="4.65981">
        <ele>336.6</ele>
        <time>2013-09-14T08:58:50Z</time>
      </trkpt>
      <trkpt lat="45.90541" lon="4.6597">
        <ele>334.68</ele>
        <time>2013-09-14T08:58:51Z</time>
      </trkpt>
      <trkpt lat="45.90546" lon="4.65917">
        <ele>330.83</ele>
        <time>2013-09-14T08:58:55Z</time>
      </trkpt>
      <trkpt lat="45.90545" lon="4.65877">
        <ele>328.43</ele>
        <time>2013-09-14T08:58:58Z</time>
      </trkpt>
      <trkpt lat="45.90544" lon="4.65864">
        <ele>326.99</ele>
        <time>2013-09-14T08:58:59Z</time>
      </trkpt>
      <trkpt lat="45.9054" lon="4.65851">
        <ele>326.5</ele>
        <time>2013-09-14T08:59:00Z</time>
      </trkpt>
      <trkpt lat="45.90534" lon="4.6584">
        <ele>325.54</ele>
        <time>2013-09-14T08:59:01Z</time>
      </trkpt>
      <trkpt lat="45.90529" lon="4.65832">
        <ele>325.06</ele>
        <time>2013-09-14T08:59:02Z</time>
      </trkpt>
      <trkpt lat="45.90504" lon="4.65789">
        <ele>322.66</ele>
        <time>2013-09-14T08:59:08Z</time>
      </trkpt>
      <trkpt lat="45.90497" lon="4.65775">
        <ele>322.18</ele>
        <time>2013-09-14T08:59:10Z</time>
      </trkpt>
      <trkpt lat="45.90493" lon="4.65768">
        <ele>321.7</ele>
        <time>2013-09-14T08:59:11Z</time>
      </trkpt>
      <trkpt lat="45.90457" lon="4.65698">
        <ele>318.33</ele>
        <time>2013-09-14T08:59:20Z</time>
      </trkpt>
      <trkpt lat="45.90439" lon="4.65669">
        <ele>317.85</ele>
        <time>2013-09-14T08:59:24Z</time>
      </trkpt>
      <trkpt lat="45.90434" lon="4.65664">
        <ele>317.85</ele>
        <time>2013-09-14T08:59:25Z</time>
      </trkpt>
      <trkpt lat="45.90428" lon="4.6566">
        <ele>317.37</ele>
        <time>2013-09-14T08:59:26Z</time>
      </trkpt>
      <trkpt lat="45.9041" lon="4.65653">
        <ele>317.85</ele>
        <time>2013-09-14T08:59:29Z</time>
      </trkpt>
      <trkpt lat="45.90405" lon="4.65649">
        <ele>317.37</ele>
        <time>2013-09-14T08:59:30Z</time>
      </trkpt>
      <trkpt lat="45.90375" lon="4.65626">
        <ele>316.41</ele>
        <time>2013-09-14T08:59:36Z</time>
      </trkpt>
      <trkpt lat="45.90372" lon="4.65621">
        <ele>316.41</ele>
        <time>2013-09-14T08:59:37Z</time>
      </trkpt>
      <trkpt lat="45.9037" lon="4.65615">
        <ele>315.93</ele>
        <time>2013-09-14T08:59:38Z</time>
      </trkpt>
      <trkpt lat="45.9037" lon="4.65609">
        <ele>315.45</ele>
        <time>2013-09-14T08:59:39Z</time>
      </trkpt>
      <trkpt lat="45.90371" lon="4.65602">
        <ele>314.97</ele>
        <time>2013-09-14T08:59:40Z</time>
      </trkpt>
      <trkpt lat="45.90374" lon="4.65594">
        <ele>314.49</ele>
        <time>2013-09-14T08:59:41Z</time>
      </trkpt>
      <trkpt lat="45.90379" lon="4.6557">
        <ele>313.05</ele>
        <time>2013-09-14T08:59:44Z</time>
      </trkpt>
      <trkpt lat="45.90378" lon="4.65562">
        <ele>313.05</ele>
        <time>2013-09-14T08:59:45Z</time>
      </trkpt>
      <trkpt lat="45.90375" lon="4.65554">
        <ele>313.05</ele>
        <time>2013-09-14T08:59:46Z</time>
      </trkpt>
      <trkpt lat="45.90338" lon="4.65475">
        <ele>309.68</ele>
        <time>2013-09-14T08:59:56Z</time>
      </trkpt>
      <trkpt lat="45.90328" lon="4.65447">
        <ele>307.76</ele>
        <time>2013-09-14T09:00:02Z</time>
      </trkpt>
      <trkpt lat="45.90325" lon="4.65439">
        <ele>307.76</ele>
        <time>2013-09-14T09:00:09Z</time>
      </trkpt>
      <trkpt lat="45.90325" lon="4.65439">
        <ele>307.76</ele>
        <time>2013-09-14T09:00:29Z</time>
      </trkpt>
      <trkpt lat="45.90321" lon="4.6543">
        <ele>306.8</ele>
        <time>2013-09-14T09:00:42Z</time>
      </trkpt>
      <trkpt lat="45.903" lon="4.65387">
        <ele>304.39</ele>
        <time>2013-09-14T09:00:50Z</time>
      </trkpt>
      <trkpt lat="45.90298" lon="4.65379">
        <ele>303.43</ele>
        <time>2013-09-14T09:00:51Z</time>
      </trkpt>
      <trkpt lat="45.90296" lon="4.65371">
        <ele>302.95</ele>
        <time>2013-09-14T09:00:52Z</time>
      </trkpt>
      <trkpt lat="45.9029" lon="4.65331">
        <ele>300.07</ele>
        <time>2013-09-14T09:00:56Z</time>
      </trkpt>
      <trkpt lat="45.90289" lon="4.65321">
        <ele>300.07</ele>
        <time>2013-09-14T09:00:57Z</time>
      </trkpt>
      <trkpt lat="45.90288" lon="4.65311">
        <ele>299.11</ele>
        <time>2013-09-14T09:00:58Z</time>
      </trkpt>
      <trkpt lat="45.90288" lon="4.65299">
        <ele>298.63</ele>
        <time>2013-09-14T09:00:59Z</time>
      </trkpt>
      <trkpt lat="45.90291" lon="4.65254">
        <ele>296.22</ele>
        <time>2013-09-14T09:01:03Z</time>
      </trkpt>
      <trkpt lat="45.90292" lon="4.6521">
        <ele>293.34</ele>
        <time>2013-09-14T09:01:07Z</time>
      </trkpt>
      <trkpt lat="45.90291" lon="4.652">
        <ele>292.86</ele>
        <time>2013-09-14T09:01:08Z</time>
      </trkpt>
      <trkpt lat="45.90284" lon="4.651">
        <ele>289.49</ele>
        <time>2013-09-14T09:01:17Z</time>
      </trkpt>
      <trkpt lat="45.90283" lon="4.6509">
        <ele>289.01</ele>
        <time>2013-09-14T09:01:18Z</time>
      </trkpt>
      <trkpt lat="45.90277" lon="4.65054">
        <ele>287.57</ele>
        <time>2013-09-14T09:01:22Z</time>
      </trkpt>
      <trkpt lat="45.90272" lon="4.65034">
        <ele>285.17</ele>
        <time>2013-09-14T09:01:27Z</time>
      </trkpt>
      <trkpt lat="45.90272" lon="4.65033">
        <ele>285.65</ele>
        <time>2013-09-14T09:01:35Z</time>
      </trkpt>
      <trkpt lat="45.90272" lon="4.65033">
        <ele>285.17</ele>
        <time>2013-09-14T09:01:56Z</time>
      </trkpt>
      <trkpt lat="45.90272" lon="4.65033">
        <ele>284.69</ele>
        <time>2013-09-14T09:01:58Z</time>
      </trkpt>
      <trkpt lat="45.90273" lon="4.65032">
        <ele>284.21</ele>
        <time>2013-09-14T09:01:59Z</time>
      </trkpt>
      <trkpt lat="45.90292" lon="4.65026">
        <ele>281.8</ele>
        <time>2013-09-14T09:02:05Z</time>
      </trkpt>
      <trkpt lat="45.90309" lon="4.65025">
        <ele>280.84</ele>
        <time>2013-09-14T09:02:08Z</time>
      </trkpt>
      <trkpt lat="45.90319" lon="4.65023">
        <ele>278.92</ele>
        <time>2013-09-14T09:02:10Z</time>
      </trkpt>
      <trkpt lat="45.90324" lon="4.6502">
        <ele>278.44</ele>
        <time>2013-09-14T09:02:11Z</time>
      </trkpt>
      <trkpt lat="45.90329" lon="4.65016">
        <ele>277</ele>
        <time>2013-09-14T09:02:12Z</time>
      </trkpt>
      <trkpt lat="45.90343" lon="4.64998">
        <ele>273.63</ele>
        <time>2013-09-14T09:02:16Z</time>
      </trkpt>
      <trkpt lat="45.90359" lon="4.64974">
        <ele>269.79</ele>
        <time>2013-09-14T09:02:20Z</time>
      </trkpt>
      <trkpt lat="45.90366" lon="4.64961">
        <ele>267.86</ele>
        <time>2013-09-14T09:02:22Z</time>
      </trkpt>
      <trkpt lat="45.90368" lon="4.64955">
        <ele>267.38</ele>
        <time>2013-09-14T09:02:23Z</time>
      </trkpt>
      <trkpt lat="45.90373" lon="4.64942">
        <ele>265.94</ele>
        <time>2013-09-14T09:02:25Z</time>
      </trkpt>
      <trkpt lat="45.90376" lon="4.64923">
        <ele>263.54</ele>
        <time>2013-09-14T09:02:29Z</time>
      </trkpt>
      <trkpt lat="45.90375" lon="4.64908">
        <ele>262.1</ele>
        <time>2013-09-14T09:02:32Z</time>
      </trkpt>
      <trkpt lat="45.90375" lon="4.64903">
        <ele>261.14</ele>
        <time>2013-09-14T09:02:39Z</time>
      </trkpt>
      <trkpt lat="45.90375" lon="4.64903">
        <ele>261.62</ele>
        <time>2013-09-14T09:02:46Z</time>
      </trkpt>
      <trkpt lat="45.90374" lon="4.649">
        <ele>261.14</ele>
        <time>2013-09-14T09:02:47Z</time>
      </trkpt>
      <trkpt lat="45.90374" lon="4.64897">
        <ele>260.65</ele>
        <time>2013-09-14T09:02:48Z</time>
      </trkpt>
      <trkpt lat="45.90373" lon="4.64894">
        <ele>261.14</ele>
        <time>2013-09-14T09:02:49Z</time>
      </trkpt>
      <trkpt lat="45.9037" lon="4.64893">
        <ele>261.14</ele>
        <time>2013-09-14T09:02:50Z</time>
      </trkpt>
      <trkpt lat="45.90368" lon="4.64891">
        <ele>260.65</ele>
        <time>2013-09-14T09:02:51Z</time>
      </trkpt>
      <trkpt lat="45.90348" lon="4.64882">
        <ele>259.69</ele>
        <time>2013-09-14T09:02:59Z</time>
      </trkpt>
      <trkpt lat="45.90347" lon="4.64882">
        <ele>259.21</ele>
        <time>2013-09-14T09:03:08Z</time>
      </trkpt>
      <trkpt lat="45.90346" lon="4.64881">
        <ele>259.69</ele>
        <time>2013-09-14T09:03:12Z</time>
      </trkpt>
      <trkpt lat="45.90344" lon="4.64881">
        <ele>259.69</ele>
        <time>2013-09-14T09:03:13Z</time>
      </trkpt>
      <trkpt lat="45.90342" lon="4.64881">
        <ele>259.69</ele>
        <time>2013-09-14T09:03:14Z</time>
      </trkpt>
      <trkpt lat="45.90316" lon="4.64875">
        <ele>259.21</ele>
        <time>2013-09-14T09:03:22Z</time>
      </trkpt>
      <trkpt lat="45.90256" lon="4.64865">
        <ele>258.73</ele>
        <time>2013-09-14T09:03:36Z</time>
      </trkpt>
      <trkpt lat="45.90208" lon="4.64842">
        <ele>258.25</ele>
        <time>2013-09-14T09:03:46Z</time>
      </trkpt>
      <trkpt lat="45.90202" lon="4.64836">
        <ele>257.29</ele>
        <time>2013-09-14T09:03:47Z</time>
      </trkpt>
      <trkpt lat="45.90197" lon="4.64828">
        <ele>256.81</ele>
        <time>2013-09-14T09:03:48Z</time>
      </trkpt>
      <trkpt lat="45.90193" lon="4.64818">
        <ele>256.33</ele>
        <time>2013-09-14T09:03:49Z</time>
      </trkpt>
      <trkpt lat="45.9019" lon="4.64807">
        <ele>255.85</ele>
        <time>2013-09-14T09:03:50Z</time>
      </trkpt>
      <trkpt lat="45.90189" lon="4.64796">
        <ele>255.85</ele>
        <time>2013-09-14T09:03:51Z</time>
      </trkpt>
      <trkpt lat="45.90188" lon="4.64784">
        <ele>256.33</ele>
        <time>2013-09-14T09:03:52Z</time>
      </trkpt>
      <trkpt lat="45.90188" lon="4.64773">
        <ele>255.37</ele>
        <time>2013-09-14T09:03:53Z</time>
      </trkpt>
      <trkpt lat="45.90189" lon="4.64762">
        <ele>255.37</ele>
        <time>2013-09-14T09:03:54Z</time>
      </trkpt>
      <trkpt lat="45.90191" lon="4.64753">
        <ele>255.37</ele>
        <time>2013-09-14T09:03:55Z</time>
      </trkpt>
      <trkpt lat="45.90193" lon="4.64744">
        <ele>255.85</ele>
        <time>2013-09-14T09:03:56Z</time>
      </trkpt>
      <trkpt lat="45.90194" lon="4.64736">
        <ele>255.37</ele>
        <time>2013-09-14T09:03:57Z</time>
      </trkpt>
      <trkpt lat="45.90201" lon="4.64705">
        <ele>254.89</ele>
        <time>2013-09-14T09:04:01Z</time>
      </trkpt>
      <trkpt lat="45.90204" lon="4.64699">
        <ele>255.37</ele>
        <time>2013-09-14T09:04:02Z</time>
      </trkpt>
      <trkpt lat="45.90221" lon="4.64664">
        <ele>256.81</ele>
        <time>2013-09-14T09:04:10Z</time>
      </trkpt>
      <trkpt lat="45.90229" lon="4.64644">
        <ele>258.25</ele>
        <time>2013-09-14T09:04:18Z</time>
      </trkpt>
      <trkpt lat="45.90231" lon="4.64636">
        <ele>258.73</ele>
        <time>2013-09-14T09:04:22Z</time>
      </trkpt>
      <trkpt lat="45.90232" lon="4.64634">
        <ele>259.21</ele>
        <time>2013-09-14T09:04:23Z</time>
      </trkpt>
      <trkpt lat="45.90235" lon="4.64623">
        <ele>260.17</ele>
        <time>2013-09-14T09:04:27Z</time>
      </trkpt>
      <trkpt lat="45.90236" lon="4.6462">
        <ele>259.69</ele>
        <time>2013-09-14T09:04:28Z</time>
      </trkpt>
      <trkpt lat="45.90239" lon="4.64607">
        <ele>261.62</ele>
        <time>2013-09-14T09:04:34Z</time>
      </trkpt>
      <trkpt lat="45.9024" lon="4.64604">
        <ele>261.14</ele>
        <time>2013-09-14T09:04:35Z</time>
      </trkpt>
      <trkpt lat="45.90241" lon="4.646">
        <ele>261.14</ele>
        <time>2013-09-14T09:04:36Z</time>
      </trkpt>
      <trkpt lat="45.90242" lon="4.64598">
        <ele>261.14</ele>
        <time>2013-09-14T09:04:37Z</time>
      </trkpt>
      <trkpt lat="45.90244" lon="4.64595">
        <ele>261.62</ele>
        <time>2013-09-14T09:04:38Z</time>
      </trkpt>
      <trkpt lat="45.90245" lon="4.64592">
        <ele>261.14</ele>
        <time>2013-09-14T09:04:39Z</time>
      </trkpt>
      <trkpt lat="45.90247" lon="4.64588">
        <ele>262.1</ele>
        <time>2013-09-14T09:04:40Z</time>
      </trkpt>
      <trkpt lat="45.90255" lon="4.64567">
        <ele>262.58</ele>
        <time>2013-09-14T09:04:49Z</time>
      </trkpt>
      <trkpt lat="45.90265" lon="4.64538">
        <ele>264.02</ele>
        <time>2013-09-14T09:04:59Z</time>
      </trkpt>
      <trkpt lat="45.90268" lon="4.6451">
        <ele>264.98</ele>
        <time>2013-09-14T09:05:10Z</time>
      </trkpt>
      <trkpt lat="45.90268" lon="4.64503">
        <ele>264.98</ele>
        <time>2013-09-14T09:05:13Z</time>
      </trkpt>
      <trkpt lat="45.90264" lon="4.64486">
        <ele>266.42</ele>
        <time>2013-09-14T09:05:21Z</time>
      </trkpt>
      <trkpt lat="45.9026" lon="4.64481">
        <ele>266.9</ele>
        <time>2013-09-14T09:05:24Z</time>
      </trkpt>
      <trkpt lat="45.90259" lon="4.6448">
        <ele>266.9</ele>
        <time>2013-09-14T09:05:25Z</time>
      </trkpt>
      <trkpt lat="45.90258" lon="4.64478">
        <ele>267.38</ele>
        <time>2013-09-14T09:05:26Z</time>
      </trkpt>
      <trkpt lat="45.90256" lon="4.64476">
        <ele>267.38</ele>
        <time>2013-09-14T09:05:27Z</time>
      </trkpt>
      <trkpt lat="45.90255" lon="4.64474">
        <ele>267.86</ele>
        <time>2013-09-14T09:05:28Z</time>
      </trkpt>
      <trkpt lat="45.90254" lon="4.64471">
        <ele>267.38</ele>
        <time>2013-09-14T09:05:30Z</time>
      </trkpt>
      <trkpt lat="45.90253" lon="4.64469">
        <ele>268.35</ele>
        <time>2013-09-14T09:05:31Z</time>
      </trkpt>
      <trkpt lat="45.90252" lon="4.64468">
        <ele>267.86</ele>
        <time>2013-09-14T09:05:32Z</time>
      </trkpt>
      <trkpt lat="45.9025" lon="4.64467">
        <ele>267.86</ele>
        <time>2013-09-14T09:05:34Z</time>
      </trkpt>
      <trkpt lat="45.90248" lon="4.64453">
        <ele>269.31</ele>
        <time>2013-09-14T09:05:42Z</time>
      </trkpt>
      <trkpt lat="45.90236" lon="4.64437">
        <ele>270.27</ele>
        <time>2013-09-14T09:05:52Z</time>
      </trkpt>
      <trkpt lat="45.90227" lon="4.6443">
        <ele>271.23</ele>
        <time>2013-09-14T09:06:00Z</time>
      </trkpt>
      <trkpt lat="45.90218" lon="4.64416">
        <ele>272.19</ele>
        <time>2013-09-14T09:06:07Z</time>
      </trkpt>
      <trkpt lat="45.90216" lon="4.64415">
        <ele>272.19</ele>
        <time>2013-09-14T09:06:08Z</time>
      </trkpt>
      <trkpt lat="45.90215" lon="4.64413">
        <ele>272.19</ele>
        <time>2013-09-14T09:06:09Z</time>
      </trkpt>
      <trkpt lat="45.90213" lon="4.64412">
        <ele>272.19</ele>
        <time>2013-09-14T09:06:10Z</time>
      </trkpt>
      <trkpt lat="45.90203" lon="4.644">
        <ele>273.63</ele>
        <time>2013-09-14T09:06:19Z</time>
      </trkpt>
      <trkpt lat="45.90202" lon="4.64398">
        <ele>273.63</ele>
        <time>2013-09-14T09:06:20Z</time>
      </trkpt>
      <trkpt lat="45.90195" lon="4.64388">
        <ele>275.07</ele>
        <time>2013-09-14T09:06:28Z</time>
      </trkpt>
      <trkpt lat="45.90191" lon="4.64384">
        <ele>275.56</ele>
        <time>2013-09-14T09:06:32Z</time>
      </trkpt>
      <trkpt lat="45.90189" lon="4.64382">
        <ele>276.04</ele>
        <time>2013-09-14T09:06:33Z</time>
      </trkpt>
      <trkpt lat="45.90181" lon="4.64373">
        <ele>277.48</ele>
        <time>2013-09-14T09:06:42Z</time>
      </trkpt>
      <trkpt lat="45.90177" lon="4.64365">
        <ele>277.48</ele>
        <time>2013-09-14T09:06:47Z</time>
      </trkpt>
      <trkpt lat="45.90176" lon="4.64363">
        <ele>277.96</ele>
        <time>2013-09-14T09:06:49Z</time>
      </trkpt>
      <trkpt lat="45.90167" lon="4.64352">
        <ele>279.4</ele>
        <time>2013-09-14T09:06:58Z</time>
      </trkpt>
      <trkpt lat="45.90157" lon="4.64342">
        <ele>280.84</ele>
        <time>2013-09-14T09:07:06Z</time>
      </trkpt>
      <trkpt lat="45.90154" lon="4.64339">
        <ele>281.32</ele>
        <time>2013-09-14T09:07:09Z</time>
      </trkpt>
      <trkpt lat="45.90153" lon="4.64338">
        <ele>281.32</ele>
        <time>2013-09-14T09:07:11Z</time>
      </trkpt>
      <trkpt lat="45.90146" lon="4.64332">
        <ele>281.8</ele>
        <time>2013-09-14T09:07:16Z</time>
      </trkpt>
      <trkpt lat="45.90145" lon="4.64331">
        <ele>281.8</ele>
        <time>2013-09-14T09:07:17Z</time>
      </trkpt>
      <trkpt lat="45.90139" lon="4.64322">
        <ele>282.77</ele>
        <time>2013-09-14T09:07:23Z</time>
      </trkpt>
      <trkpt lat="45.90136" lon="4.64317">
        <ele>283.25</ele>
        <time>2013-09-14T09:07:27Z</time>
      </trkpt>
      <trkpt lat="45.90133" lon="4.64315">
        <ele>283.73</ele>
        <time>2013-09-14T09:07:29Z</time>
      </trkpt>
      <trkpt lat="45.9013" lon="4.64312">
        <ele>283.73</ele>
        <time>2013-09-14T09:07:32Z</time>
      </trkpt>
      <trkpt lat="45.90129" lon="4.64311">
        <ele>284.21</ele>
        <time>2013-09-14T09:07:33Z</time>
      </trkpt>
      <trkpt lat="45.90127" lon="4.64308">
        <ele>284.69</ele>
        <time>2013-09-14T09:07:35Z</time>
      </trkpt>
      <trkpt lat="45.90127" lon="4.64307">
        <ele>284.21</ele>
        <time>2013-09-14T09:07:36Z</time>
      </trkpt>
      <trkpt lat="45.90126" lon="4.64305">
        <ele>284.69</ele>
        <time>2013-09-14T09:07:37Z</time>
      </trkpt>
      <trkpt lat="45.90112" lon="4.64289">
        <ele>286.13</ele>
        <time>2013-09-14T09:07:49Z</time>
      </trkpt>
      <trkpt lat="45.90109" lon="4.64286">
        <ele>286.61</ele>
        <time>2013-09-14T09:07:52Z</time>
      </trkpt>
      <trkpt lat="45.90095" lon="4.64271">
        <ele>288.05</ele>
        <time>2013-09-14T09:08:03Z</time>
      </trkpt>
      <trkpt lat="45.90083" lon="4.64256">
        <ele>289.01</ele>
        <time>2013-09-14T09:08:13Z</time>
      </trkpt>
      <trkpt lat="45.90073" lon="4.64243">
        <ele>289.97</ele>
        <time>2013-09-14T09:08:22Z</time>
      </trkpt>
      <trkpt lat="45.90063" lon="4.64231">
        <ele>291.42</ele>
        <time>2013-09-14T09:08:31Z</time>
      </trkpt>
      <trkpt lat="45.90062" lon="4.6423">
        <ele>290.94</ele>
        <time>2013-09-14T09:08:32Z</time>
      </trkpt>
      <trkpt lat="45.90061" lon="4.64229">
        <ele>291.42</ele>
        <time>2013-09-14T09:08:33Z</time>
      </trkpt>
      <trkpt lat="45.9006" lon="4.64228">
        <ele>290.94</ele>
        <time>2013-09-14T09:08:34Z</time>
      </trkpt>
      <trkpt lat="45.90058" lon="4.64227">
        <ele>291.42</ele>
        <time>2013-09-14T09:08:35Z</time>
      </trkpt>
      <trkpt lat="45.90047" lon="4.64215">
        <ele>292.38</ele>
        <time>2013-09-14T09:08:44Z</time>
      </trkpt>
      <trkpt lat="45.90034" lon="4.64198">
        <ele>293.82</ele>
        <time>2013-09-14T09:08:55Z</time>
      </trkpt>
      <trkpt lat="45.90027" lon="4.6419">
        <ele>293.82</ele>
        <time>2013-09-14T09:09:01Z</time>
      </trkpt>
      <trkpt lat="45.90026" lon="4.64188">
        <ele>293.82</ele>
        <time>2013-09-14T09:09:02Z</time>
      </trkpt>
      <trkpt lat="45.90025" lon="4.64187">
        <ele>294.3</ele>
        <time>2013-09-14T09:09:03Z</time>
      </trkpt>
      <trkpt lat="45.90024" lon="4.64185">
        <ele>293.82</ele>
        <time>2013-09-14T09:09:04Z</time>
      </trkpt>
      <trkpt lat="45.90022" lon="4.64184">
        <ele>294.78</ele>
        <time>2013-09-14T09:09:05Z</time>
      </trkpt>
      <trkpt lat="45.90021" lon="4.64183">
        <ele>294.78</ele>
        <time>2013-09-14T09:09:06Z</time>
      </trkpt>
      <trkpt lat="45.90003" lon="4.64156">
        <ele>294.78</ele>
        <time>2013-09-14T09:09:17Z</time>
      </trkpt>
      <trkpt lat="45.89984" lon="4.64128">
        <ele>295.74</ele>
        <time>2013-09-14T09:09:26Z</time>
      </trkpt>
      <trkpt lat="45.89964" lon="4.64107">
        <ele>295.74</ele>
        <time>2013-09-14T09:09:34Z</time>
      </trkpt>
      <trkpt lat="45.89946" lon="4.6408">
        <ele>296.22</ele>
        <time>2013-09-14T09:09:42Z</time>
      </trkpt>
      <trkpt lat="45.89945" lon="4.64077">
        <ele>296.22</ele>
        <time>2013-09-14T09:09:43Z</time>
      </trkpt>
      <trkpt lat="45.89939" lon="4.6403">
        <ele>296.7</ele>
        <time>2013-09-14T09:09:54Z</time>
      </trkpt>
      <trkpt lat="45.89936" lon="4.64012">
        <ele>300.07</ele>
        <time>2013-09-14T09:09:58Z</time>
      </trkpt>
      <trkpt lat="45.89936" lon="4.64008">
        <ele>296.7</ele>
        <time>2013-09-14T09:09:59Z</time>
      </trkpt>
      <trkpt lat="45.89928" lon="4.6396">
        <ele>298.15</ele>
        <time>2013-09-14T09:10:10Z</time>
      </trkpt>
      <trkpt lat="45.89922" lon="4.63913">
        <ele>299.11</ele>
        <time>2013-09-14T09:10:21Z</time>
      </trkpt>
      <trkpt lat="45.89918" lon="4.6388">
        <ele>300.07</ele>
        <time>2013-09-14T09:10:30Z</time>
      </trkpt>
      <trkpt lat="45.89913" lon="4.6384">
        <ele>301.51</ele>
        <time>2013-09-14T09:10:41Z</time>
      </trkpt>
      <trkpt lat="45.89907" lon="4.63805">
        <ele>302.95</ele>
        <time>2013-09-14T09:10:51Z</time>
      </trkpt>
      <trkpt lat="45.89905" lon="4.63798">
        <ele>302.47</ele>
        <time>2013-09-14T09:10:53Z</time>
      </trkpt>
      <trkpt lat="45.89905" lon="4.63796">
        <ele>302.95</ele>
        <time>2013-09-14T09:10:54Z</time>
      </trkpt>
      <trkpt lat="45.89905" lon="4.63793">
        <ele>302.47</ele>
        <time>2013-09-14T09:10:55Z</time>
      </trkpt>
      <trkpt lat="45.89902" lon="4.63768">
        <ele>303.91</ele>
        <time>2013-09-14T09:11:03Z</time>
      </trkpt>
      <trkpt lat="45.899" lon="4.63749">
        <ele>303.91</ele>
        <time>2013-09-14T09:11:08Z</time>
      </trkpt>
      <trkpt lat="45.899" lon="4.63745">
        <ele>304.39</ele>
        <time>2013-09-14T09:11:09Z</time>
      </trkpt>
      <trkpt lat="45.89899" lon="4.63742">
        <ele>304.88</ele>
        <time>2013-09-14T09:11:10Z</time>
      </trkpt>
      <trkpt lat="45.89899" lon="4.63738">
        <ele>304.39</ele>
        <time>2013-09-14T09:11:11Z</time>
      </trkpt>
      <trkpt lat="45.89898" lon="4.63735">
        <ele>306.8</ele>
        <time>2013-09-14T09:11:12Z</time>
      </trkpt>
      <trkpt lat="45.89895" lon="4.63693">
        <ele>305.36</ele>
        <time>2013-09-14T09:11:22Z</time>
      </trkpt>
      <trkpt lat="45.89891" lon="4.63647">
        <ele>305.36</ele>
        <time>2013-09-14T09:11:32Z</time>
      </trkpt>
      <trkpt lat="45.89884" lon="4.63602">
        <ele>305.36</ele>
        <time>2013-09-14T09:11:42Z</time>
      </trkpt>
      <trkpt lat="45.89865" lon="4.63555">
        <ele>304.88</ele>
        <time>2013-09-14T09:11:52Z</time>
      </trkpt>
      <trkpt lat="45.89837" lon="4.63499">
        <ele>304.39</ele>
        <time>2013-09-14T09:12:04Z</time>
      </trkpt>
      <trkpt lat="45.89835" lon="4.63494">
        <ele>303.91</ele>
        <time>2013-09-14T09:12:05Z</time>
      </trkpt>
      <trkpt lat="45.89804" lon="4.63449">
        <ele>303.43</ele>
        <time>2013-09-14T09:12:16Z</time>
      </trkpt>
      <trkpt lat="45.89779" lon="4.6342">
        <ele>302.95</ele>
        <time>2013-09-14T09:12:25Z</time>
      </trkpt>
      <trkpt lat="45.89761" lon="4.63397">
        <ele>301.51</ele>
        <time>2013-09-14T09:12:32Z</time>
      </trkpt>
      <trkpt lat="45.8974" lon="4.63378">
        <ele>302.47</ele>
        <time>2013-09-14T09:12:39Z</time>
      </trkpt>
      <trkpt lat="45.89713" lon="4.63351">
        <ele>302.47</ele>
        <time>2013-09-14T09:12:48Z</time>
      </trkpt>
      <trkpt lat="45.89694" lon="4.63329">
        <ele>303.91</ele>
        <time>2013-09-14T09:12:55Z</time>
      </trkpt>
      <trkpt lat="45.89676" lon="4.63312">
        <ele>305.36</ele>
        <time>2013-09-14T09:13:03Z</time>
      </trkpt>
      <trkpt lat="45.89661" lon="4.63301">
        <ele>306.32</ele>
        <time>2013-09-14T09:13:10Z</time>
      </trkpt>
      <trkpt lat="45.89658" lon="4.63299">
        <ele>306.32</ele>
        <time>2013-09-14T09:13:11Z</time>
      </trkpt>
      <trkpt lat="45.89656" lon="4.63298">
        <ele>306.8</ele>
        <time>2013-09-14T09:13:12Z</time>
      </trkpt>
      <trkpt lat="45.89654" lon="4.63296">
        <ele>306.8</ele>
        <time>2013-09-14T09:13:13Z</time>
      </trkpt>
      <trkpt lat="45.89652" lon="4.63295">
        <ele>306.8</ele>
        <time>2013-09-14T09:13:14Z</time>
      </trkpt>
      <trkpt lat="45.8965" lon="4.63293">
        <ele>307.28</ele>
        <time>2013-09-14T09:13:15Z</time>
      </trkpt>
      <trkpt lat="45.89633" lon="4.63273">
        <ele>308.72</ele>
        <time>2013-09-14T09:13:24Z</time>
      </trkpt>
      <trkpt lat="45.89614" lon="4.63249">
        <ele>310.16</ele>
        <time>2013-09-14T09:13:35Z</time>
      </trkpt>
      <trkpt lat="45.89596" lon="4.6323">
        <ele>311.6</ele>
        <time>2013-09-14T09:13:45Z</time>
      </trkpt>
      <trkpt lat="45.89575" lon="4.63209">
        <ele>312.09</ele>
        <time>2013-09-14T09:13:56Z</time>
      </trkpt>
      <trkpt lat="45.89567" lon="4.632">
        <ele>313.05</ele>
        <time>2013-09-14T09:14:02Z</time>
      </trkpt>
      <trkpt lat="45.89566" lon="4.63198">
        <ele>313.53</ele>
        <time>2013-09-14T09:14:03Z</time>
      </trkpt>
      <trkpt lat="45.89552" lon="4.63179">
        <ele>314.49</ele>
        <time>2013-09-14T09:14:12Z</time>
      </trkpt>
      <trkpt lat="45.89548" lon="4.63175">
        <ele>314.49</ele>
        <time>2013-09-14T09:14:14Z</time>
      </trkpt>
      <trkpt lat="45.89546" lon="4.63173">
        <ele>314.97</ele>
        <time>2013-09-14T09:14:15Z</time>
      </trkpt>
      <trkpt lat="45.89545" lon="4.63171">
        <ele>314.97</ele>
        <time>2013-09-14T09:14:16Z</time>
      </trkpt>
      <trkpt lat="45.89543" lon="4.6317">
        <ele>314.97</ele>
        <time>2013-09-14T09:14:17Z</time>
      </trkpt>
      <trkpt lat="45.89541" lon="4.63168">
        <ele>315.45</ele>
        <time>2013-09-14T09:14:18Z</time>
      </trkpt>
      <trkpt lat="45.89539" lon="4.63167">
        <ele>314.97</ele>
        <time>2013-09-14T09:14:19Z</time>
      </trkpt>
      <trkpt lat="45.89521" lon="4.63144">
        <ele>316.89</ele>
        <time>2013-09-14T09:14:30Z</time>
      </trkpt>
      <trkpt lat="45.89499" lon="4.63113">
        <ele>317.37</ele>
        <time>2013-09-14T09:14:42Z</time>
      </trkpt>
      <trkpt lat="45.89484" lon="4.63084">
        <ele>318.33</ele>
        <time>2013-09-14T09:14:52Z</time>
      </trkpt>
      <trkpt lat="45.89464" lon="4.63035">
        <ele>319.3</ele>
        <time>2013-09-14T09:15:06Z</time>
      </trkpt>
      <trkpt lat="45.89444" lon="4.6299">
        <ele>318.81</ele>
        <time>2013-09-14T09:15:17Z</time>
      </trkpt>
      <trkpt lat="45.89437" lon="4.62976">
        <ele>317.85</ele>
        <time>2013-09-14T09:15:20Z</time>
      </trkpt>
      <trkpt lat="45.89435" lon="4.62972">
        <ele>318.81</ele>
        <time>2013-09-14T09:15:21Z</time>
      </trkpt>
      <trkpt lat="45.89405" lon="4.6291">
        <ele>315.45</ele>
        <time>2013-09-14T09:15:32Z</time>
      </trkpt>
      <trkpt lat="45.89399" lon="4.62899">
        <ele>314.97</ele>
        <time>2013-09-14T09:15:34Z</time>
      </trkpt>
      <trkpt lat="45.89396" lon="4.62893">
        <ele>314.01</ele>
        <time>2013-09-14T09:15:35Z</time>
      </trkpt>
      <trkpt lat="45.89386" lon="4.62861">
        <ele>313.05</ele>
        <time>2013-09-14T09:15:40Z</time>
      </trkpt>
      <trkpt lat="45.89383" lon="4.62847">
        <ele>312.09</ele>
        <time>2013-09-14T09:15:42Z</time>
      </trkpt>
      <trkpt lat="45.89371" lon="4.62805">
        <ele>309.68</ele>
        <time>2013-09-14T09:15:48Z</time>
      </trkpt>
      <trkpt lat="45.89368" lon="4.62799">
        <ele>309.68</ele>
        <time>2013-09-14T09:15:49Z</time>
      </trkpt>
      <trkpt lat="45.89365" lon="4.62792">
        <ele>309.2</ele>
        <time>2013-09-14T09:15:50Z</time>
      </trkpt>
      <trkpt lat="45.8935" lon="4.62754">
        <ele>306.8</ele>
        <time>2013-09-14T09:15:56Z</time>
      </trkpt>
      <trkpt lat="45.89347" lon="4.62748">
        <ele>306.8</ele>
        <time>2013-09-14T09:15:57Z</time>
      </trkpt>
      <trkpt lat="45.89343" lon="4.62743">
        <ele>306.32</ele>
        <time>2013-09-14T09:15:58Z</time>
      </trkpt>
      <trkpt lat="45.89339" lon="4.62738">
        <ele>306.8</ele>
        <time>2013-09-14T09:15:59Z</time>
      </trkpt>
      <trkpt lat="45.89335" lon="4.62734">
        <ele>305.84</ele>
        <time>2013-09-14T09:16:00Z</time>
      </trkpt>
      <trkpt lat="45.89325" lon="4.62726">
        <ele>305.36</ele>
        <time>2013-09-14T09:16:02Z</time>
      </trkpt>
      <trkpt lat="45.89265" lon="4.62684">
        <ele>301.99</ele>
        <time>2013-09-14T09:16:12Z</time>
      </trkpt>
      <trkpt lat="45.89231" lon="4.62654">
        <ele>300.55</ele>
        <time>2013-09-14T09:16:18Z</time>
      </trkpt>
      <trkpt lat="45.89215" lon="4.62641">
        <ele>299.11</ele>
        <time>2013-09-14T09:16:21Z</time>
      </trkpt>
      <trkpt lat="45.8921" lon="4.62638">
        <ele>299.11</ele>
        <time>2013-09-14T09:16:22Z</time>
      </trkpt>
      <trkpt lat="45.89195" lon="4.62627">
        <ele>298.15</ele>
        <time>2013-09-14T09:16:25Z</time>
      </trkpt>
      <trkpt lat="45.89191" lon="4.62623">
        <ele>297.67</ele>
        <time>2013-09-14T09:16:26Z</time>
      </trkpt>
      <trkpt lat="45.89186" lon="4.62619">
        <ele>297.67</ele>
        <time>2013-09-14T09:16:27Z</time>
      </trkpt>
      <trkpt lat="45.89181" lon="4.62616">
        <ele>295.74</ele>
        <time>2013-09-14T09:16:28Z</time>
      </trkpt>
      <trkpt lat="45.89177" lon="4.62613">
        <ele>295.74</ele>
        <time>2013-09-14T09:16:29Z</time>
      </trkpt>
      <trkpt lat="45.89173" lon="4.6261">
        <ele>295.26</ele>
        <time>2013-09-14T09:16:30Z</time>
      </trkpt>
      <trkpt lat="45.89169" lon="4.62609">
        <ele>294.78</ele>
        <time>2013-09-14T09:16:31Z</time>
      </trkpt>
      <trkpt lat="45.89164" lon="4.6261">
        <ele>294.3</ele>
        <time>2013-09-14T09:16:32Z</time>
      </trkpt>
      <trkpt lat="45.89159" lon="4.62612">
        <ele>294.78</ele>
        <time>2013-09-14T09:16:33Z</time>
      </trkpt>
      <trkpt lat="45.89156" lon="4.62615">
        <ele>294.78</ele>
        <time>2013-09-14T09:16:34Z</time>
      </trkpt>
      <trkpt lat="45.89154" lon="4.62619">
        <ele>295.74</ele>
        <time>2013-09-14T09:16:35Z</time>
      </trkpt>
      <trkpt lat="45.89152" lon="4.62622">
        <ele>296.22</ele>
        <time>2013-09-14T09:16:36Z</time>
      </trkpt>
      <trkpt lat="45.89151" lon="4.62624">
        <ele>295.74</ele>
        <time>2013-09-14T09:16:37Z</time>
      </trkpt>
      <trkpt lat="45.89145" lon="4.6263">
        <ele>297.18</ele>
        <time>2013-09-14T09:16:41Z</time>
      </trkpt>
      <trkpt lat="45.89142" lon="4.6263">
        <ele>297.18</ele>
        <time>2013-09-14T09:16:42Z</time>
      </trkpt>
      <trkpt lat="45.8914" lon="4.6263">
        <ele>297.18</ele>
        <time>2013-09-14T09:16:43Z</time>
      </trkpt>
      <trkpt lat="45.89138" lon="4.62629">
        <ele>297.67</ele>
        <time>2013-09-14T09:16:44Z</time>
      </trkpt>
      <trkpt lat="45.89136" lon="4.62627">
        <ele>297.67</ele>
        <time>2013-09-14T09:16:45Z</time>
      </trkpt>
      <trkpt lat="45.89135" lon="4.62625">
        <ele>298.15</ele>
        <time>2013-09-14T09:16:46Z</time>
      </trkpt>
      <trkpt lat="45.89133" lon="4.62623">
        <ele>298.15</ele>
        <time>2013-09-14T09:16:47Z</time>
      </trkpt>
      <trkpt lat="45.89131" lon="4.6262">
        <ele>298.15</ele>
        <time>2013-09-14T09:16:48Z</time>
      </trkpt>
      <trkpt lat="45.89111" lon="4.62592">
        <ele>298.63</ele>
        <time>2013-09-14T09:16:59Z</time>
      </trkpt>
      <trkpt lat="45.89088" lon="4.62574">
        <ele>299.59</ele>
        <time>2013-09-14T09:17:09Z</time>
      </trkpt>
      <trkpt lat="45.89068" lon="4.62579">
        <ele>300.55</ele>
        <time>2013-09-14T09:17:17Z</time>
      </trkpt>
      <trkpt lat="45.89044" lon="4.62593">
        <ele>301.51</ele>
        <time>2013-09-14T09:17:27Z</time>
      </trkpt>
      <trkpt lat="45.8902" lon="4.62608">
        <ele>301.51</ele>
        <time>2013-09-14T09:17:36Z</time>
      </trkpt>
      <trkpt lat="45.88991" lon="4.62601">
        <ele>301.03</ele>
        <time>2013-09-14T09:17:45Z</time>
      </trkpt>
      <trkpt lat="45.88959" lon="4.62604">
        <ele>301.99</ele>
        <time>2013-09-14T09:17:55Z</time>
      </trkpt>
      <trkpt lat="45.88929" lon="4.62628">
        <ele>302.47</ele>
        <time>2013-09-14T09:18:06Z</time>
      </trkpt>
      <trkpt lat="45.88917" lon="4.62669">
        <ele>304.39</ele>
        <time>2013-09-14T09:18:17Z</time>
      </trkpt>
      <trkpt lat="45.88913" lon="4.62703">
        <ele>305.84</ele>
        <time>2013-09-14T09:18:28Z</time>
      </trkpt>
      <trkpt lat="45.88909" lon="4.62739">
        <ele>305.84</ele>
        <time>2013-09-14T09:18:38Z</time>
      </trkpt>
      <trkpt lat="45.88901" lon="4.62773">
        <ele>304.88</ele>
        <time>2013-09-14T09:18:45Z</time>
      </trkpt>
      <trkpt lat="45.88891" lon="4.62803">
        <ele>303.91</ele>
        <time>2013-09-14T09:18:51Z</time>
      </trkpt>
      <trkpt lat="45.88891" lon="4.62809">
        <ele>304.39</ele>
        <time>2013-09-14T09:18:52Z</time>
      </trkpt>
      <trkpt lat="45.88891" lon="4.62814">
        <ele>303.91</ele>
        <time>2013-09-14T09:18:53Z</time>
      </trkpt>
      <trkpt lat="45.88892" lon="4.6282">
        <ele>303.91</ele>
        <time>2013-09-14T09:18:54Z</time>
      </trkpt>
      <trkpt lat="45.88893" lon="4.62824">
        <ele>303.91</ele>
        <time>2013-09-14T09:18:55Z</time>
      </trkpt>
      <trkpt lat="45.88893" lon="4.62828">
        <ele>303.91</ele>
        <time>2013-09-14T09:18:56Z</time>
      </trkpt>
      <trkpt lat="45.88894" lon="4.62832">
        <ele>303.43</ele>
        <time>2013-09-14T09:18:57Z</time>
      </trkpt>
      <trkpt lat="45.88894" lon="4.62835">
        <ele>303.91</ele>
        <time>2013-09-14T09:18:58Z</time>
      </trkpt>
      <trkpt lat="45.88894" lon="4.62837">
        <ele>303.91</ele>
        <time>2013-09-14T09:18:59Z</time>
      </trkpt>
      <trkpt lat="45.88895" lon="4.62838">
        <ele>299.59</ele>
        <time>2013-09-14T09:19:05Z</time>
      </trkpt>
      <trkpt lat="45.88895" lon="4.62838">
        <ele>304.39</ele>
        <time>2013-09-14T09:19:06Z</time>
      </trkpt>
      <trkpt lat="45.88895" lon="4.62838">
        <ele>303.43</ele>
        <time>2013-09-14T09:19:20Z</time>
      </trkpt>
      <trkpt lat="45.88895" lon="4.62838">
        <ele>304.39</ele>
        <time>2013-09-14T09:19:36Z</time>
      </trkpt>
      <trkpt lat="45.88894" lon="4.62838">
        <ele>303.43</ele>
        <time>2013-09-14T09:19:54Z</time>
      </trkpt>
      <trkpt lat="45.88894" lon="4.62838">
        <ele>303.43</ele>
        <time>2013-09-14T09:20:15Z</time>
      </trkpt>
      <trkpt lat="45.88895" lon="4.62838">
        <ele>304.39</ele>
        <time>2013-09-14T09:20:30Z</time>
      </trkpt>
      <trkpt lat="45.88895" lon="4.62838">
        <ele>303.43</ele>
        <time>2013-09-14T09:20:47Z</time>
      </trkpt>
      <trkpt lat="45.88895" lon="4.62838">
        <ele>303.91</ele>
        <time>2013-09-14T09:21:08Z</time>
      </trkpt>
      <trkpt lat="45.88895" lon="4.62838">
        <ele>303.91</ele>
        <time>2013-09-14T09:21:26Z</time>
      </trkpt>
      <trkpt lat="45.88895" lon="4.62838">
        <ele>304.39</ele>
        <time>2013-09-14T09:21:41Z</time>
      </trkpt>
      <trkpt lat="45.88895" lon="4.62838">
        <ele>304.39</ele>
        <time>2013-09-14T09:21:53Z</time>
      </trkpt>
      <trkpt lat="45.88895" lon="4.62839">
        <ele>303.91</ele>
        <time>2013-09-14T09:22:12Z</time>
      </trkpt>
      <trkpt lat="45.88896" lon="4.62841">
        <ele>304.39</ele>
        <time>2013-09-14T09:22:13Z</time>
      </trkpt>
      <trkpt lat="45.88896" lon="4.62843">
        <ele>303.91</ele>
        <time>2013-09-14T09:22:14Z</time>
      </trkpt>
      <trkpt lat="45.88909" lon="4.62858">
        <ele>304.88</ele>
        <time>2013-09-14T09:22:23Z</time>
      </trkpt>
      <trkpt lat="45.88928" lon="4.62884">
        <ele>305.36</ele>
        <time>2013-09-14T09:22:34Z</time>
      </trkpt>
      <trkpt lat="45.88943" lon="4.62912">
        <ele>307.28</ele>
        <time>2013-09-14T09:22:44Z</time>
      </trkpt>
      <trkpt lat="45.88959" lon="4.62944">
        <ele>308.72</ele>
        <time>2013-09-14T09:22:55Z</time>
      </trkpt>
      <trkpt lat="45.88971" lon="4.62966">
        <ele>309.2</ele>
        <time>2013-09-14T09:23:03Z</time>
      </trkpt>
      <trkpt lat="45.88991" lon="4.62996">
        <ele>309.68</ele>
        <time>2013-09-14T09:23:14Z</time>
      </trkpt>
      <trkpt lat="45.88995" lon="4.63002">
        <ele>309.68</ele>
        <time>2013-09-14T09:23:16Z</time>
      </trkpt>
      <trkpt lat="45.88996" lon="4.63005">
        <ele>309.68</ele>
        <time>2013-09-14T09:23:17Z</time>
      </trkpt>
      <trkpt lat="45.88997" lon="4.63008">
        <ele>310.16</ele>
        <time>2013-09-14T09:23:18Z</time>
      </trkpt>
      <trkpt lat="45.88998" lon="4.63011">
        <ele>310.16</ele>
        <time>2013-09-14T09:23:19Z</time>
      </trkpt>
      <trkpt lat="45.88999" lon="4.63014">
        <ele>309.68</ele>
        <time>2013-09-14T09:23:20Z</time>
      </trkpt>
      <trkpt lat="45.89001" lon="4.63017">
        <ele>310.16</ele>
        <time>2013-09-14T09:23:21Z</time>
      </trkpt>
      <trkpt lat="45.89002" lon="4.63021">
        <ele>310.16</ele>
        <time>2013-09-14T09:23:22Z</time>
      </trkpt>
      <trkpt lat="45.89004" lon="4.63024">
        <ele>310.16</ele>
        <time>2013-09-14T09:23:23Z</time>
      </trkpt>
      <trkpt lat="45.89005" lon="4.63027">
        <ele>310.16</ele>
        <time>2013-09-14T09:23:24Z</time>
      </trkpt>
      <trkpt lat="45.89006" lon="4.6303">
        <ele>310.16</ele>
        <time>2013-09-14T09:23:25Z</time>
      </trkpt>
      <trkpt lat="45.89014" lon="4.63056">
        <ele>311.6</ele>
        <time>2013-09-14T09:23:33Z</time>
      </trkpt>
      <trkpt lat="45.89029" lon="4.6308">
        <ele>312.09</ele>
        <time>2013-09-14T09:23:41Z</time>
      </trkpt>
      <trkpt lat="45.8903" lon="4.63083">
        <ele>313.05</ele>
        <time>2013-09-14T09:23:42Z</time>
      </trkpt>
      <trkpt lat="45.89032" lon="4.63087">
        <ele>313.05</ele>
        <time>2013-09-14T09:23:43Z</time>
      </trkpt>
      <trkpt lat="45.89034" lon="4.6309">
        <ele>312.57</ele>
        <time>2013-09-14T09:23:44Z</time>
      </trkpt>
      <trkpt lat="45.89036" lon="4.63094">
        <ele>312.57</ele>
        <time>2013-09-14T09:23:45Z</time>
      </trkpt>
      <trkpt lat="45.89038" lon="4.63098">
        <ele>312.57</ele>
        <time>2013-09-14T09:23:46Z</time>
      </trkpt>
      <trkpt lat="45.89044" lon="4.63109">
        <ele>313.53</ele>
        <time>2013-09-14T09:23:50Z</time>
      </trkpt>
      <trkpt lat="45.89046" lon="4.63111">
        <ele>313.05</ele>
        <time>2013-09-14T09:23:51Z</time>
      </trkpt>
      <trkpt lat="45.89074" lon="4.63154">
        <ele>314.01</ele>
        <time>2013-09-14T09:24:01Z</time>
      </trkpt>
      <trkpt lat="45.89107" lon="4.63206">
        <ele>313.53</ele>
        <time>2013-09-14T09:24:13Z</time>
      </trkpt>
      <trkpt lat="45.89123" lon="4.63232">
        <ele>313.53</ele>
        <time>2013-09-14T09:24:19Z</time>
      </trkpt>
      <trkpt lat="45.89129" lon="4.63243">
        <ele>313.05</ele>
        <time>2013-09-14T09:24:21Z</time>
      </trkpt>
      <trkpt lat="45.89131" lon="4.63249">
        <ele>313.53</ele>
        <time>2013-09-14T09:24:22Z</time>
      </trkpt>
      <trkpt lat="45.89132" lon="4.63255">
        <ele>313.05</ele>
        <time>2013-09-14T09:24:23Z</time>
      </trkpt>
      <trkpt lat="45.89133" lon="4.6326">
        <ele>313.53</ele>
        <time>2013-09-14T09:24:24Z</time>
      </trkpt>
      <trkpt lat="45.89132" lon="4.63266">
        <ele>313.53</ele>
        <time>2013-09-14T09:24:25Z</time>
      </trkpt>
      <trkpt lat="45.89132" lon="4.63272">
        <ele>313.53</ele>
        <time>2013-09-14T09:24:26Z</time>
      </trkpt>
      <trkpt lat="45.8912" lon="4.63309">
        <ele>314.01</ele>
        <time>2013-09-14T09:24:33Z</time>
      </trkpt>
      <trkpt lat="45.89126" lon="4.63345">
        <ele>313.05</ele>
        <time>2013-09-14T09:24:40Z</time>
      </trkpt>
      <trkpt lat="45.89133" lon="4.63355">
        <ele>313.05</ele>
        <time>2013-09-14T09:24:42Z</time>
      </trkpt>
      <trkpt lat="45.89139" lon="4.63358">
        <ele>312.57</ele>
        <time>2013-09-14T09:24:43Z</time>
      </trkpt>
      <trkpt lat="45.89145" lon="4.6336">
        <ele>312.09</ele>
        <time>2013-09-14T09:24:44Z</time>
      </trkpt>
      <trkpt lat="45.89194" lon="4.63369">
        <ele>311.12</ele>
        <time>2013-09-14T09:24:52Z</time>
      </trkpt>
      <trkpt lat="45.89208" lon="4.63377">
        <ele>310.64</ele>
        <time>2013-09-14T09:24:55Z</time>
      </trkpt>
      <trkpt lat="45.8921" lon="4.63382">
        <ele>310.64</ele>
        <time>2013-09-14T09:24:56Z</time>
      </trkpt>
      <trkpt lat="45.8921" lon="4.63389">
        <ele>310.64</ele>
        <time>2013-09-14T09:24:57Z</time>
      </trkpt>
      <trkpt lat="45.89209" lon="4.63395">
        <ele>310.64</ele>
        <time>2013-09-14T09:24:58Z</time>
      </trkpt>
      <trkpt lat="45.89207" lon="4.63402">
        <ele>310.16</ele>
        <time>2013-09-14T09:24:59Z</time>
      </trkpt>
      <trkpt lat="45.89205" lon="4.63409">
        <ele>310.16</ele>
        <time>2013-09-14T09:25:00Z</time>
      </trkpt>
      <trkpt lat="45.89203" lon="4.63417">
        <ele>310.16</ele>
        <time>2013-09-14T09:25:01Z</time>
      </trkpt>
      <trkpt lat="45.89195" lon="4.63491">
        <ele>308.24</ele>
        <time>2013-09-14T09:25:09Z</time>
      </trkpt>
      <trkpt lat="45.89196" lon="4.63501">
        <ele>307.76</ele>
        <time>2013-09-14T09:25:10Z</time>
      </trkpt>
      <trkpt lat="45.89197" lon="4.6351">
        <ele>308.24</ele>
        <time>2013-09-14T09:25:11Z</time>
      </trkpt>
      <trkpt lat="45.89199" lon="4.63517">
        <ele>307.28</ele>
        <time>2013-09-14T09:25:12Z</time>
      </trkpt>
      <trkpt lat="45.89201" lon="4.63523">
        <ele>307.28</ele>
        <time>2013-09-14T09:25:13Z</time>
      </trkpt>
      <trkpt lat="45.89203" lon="4.63528">
        <ele>307.76</ele>
        <time>2013-09-14T09:25:14Z</time>
      </trkpt>
      <trkpt lat="45.89204" lon="4.63531">
        <ele>307.28</ele>
        <time>2013-09-14T09:25:15Z</time>
      </trkpt>
      <trkpt lat="45.89205" lon="4.63533">
        <ele>306.8</ele>
        <time>2013-09-14T09:25:16Z</time>
      </trkpt>
      <trkpt lat="45.89205" lon="4.63536">
        <ele>307.28</ele>
        <time>2013-09-14T09:25:17Z</time>
      </trkpt>
      <trkpt lat="45.89205" lon="4.6354">
        <ele>306.8</ele>
        <time>2013-09-14T09:25:18Z</time>
      </trkpt>
      <trkpt lat="45.89205" lon="4.63543">
        <ele>306.8</ele>
        <time>2013-09-14T09:25:19Z</time>
      </trkpt>
      <trkpt lat="45.89204" lon="4.63547">
        <ele>306.8</ele>
        <time>2013-09-14T09:25:20Z</time>
      </trkpt>
      <trkpt lat="45.89202" lon="4.63551">
        <ele>306.32</ele>
        <time>2013-09-14T09:25:21Z</time>
      </trkpt>
      <trkpt lat="45.892" lon="4.63555">
        <ele>306.32</ele>
        <time>2013-09-14T09:25:22Z</time>
      </trkpt>
      <trkpt lat="45.89198" lon="4.63559">
        <ele>305.84</ele>
        <time>2013-09-14T09:25:23Z</time>
      </trkpt>
      <trkpt lat="45.89195" lon="4.63563">
        <ele>305.36</ele>
        <time>2013-09-14T09:25:24Z</time>
      </trkpt>
      <trkpt lat="45.89187" lon="4.63578">
        <ele>304.39</ele>
        <time>2013-09-14T09:25:31Z</time>
      </trkpt>
      <trkpt lat="45.89187" lon="4.6358">
        <ele>303.91</ele>
        <time>2013-09-14T09:25:45Z</time>
      </trkpt>
      <trkpt lat="45.89187" lon="4.63581">
        <ele>304.88</ele>
        <time>2013-09-14T09:25:46Z</time>
      </trkpt>
      <trkpt lat="45.89188" lon="4.63583">
        <ele>305.84</ele>
        <time>2013-09-14T09:25:47Z</time>
      </trkpt>
      <trkpt lat="45.89188" lon="4.63584">
        <ele>305.84</ele>
        <time>2013-09-14T09:25:48Z</time>
      </trkpt>
      <trkpt lat="45.89188" lon="4.63587">
        <ele>305.84</ele>
        <time>2013-09-14T09:25:49Z</time>
      </trkpt>
      <trkpt lat="45.89188" lon="4.63589">
        <ele>305.36</ele>
        <time>2013-09-14T09:25:50Z</time>
      </trkpt>
      <trkpt lat="45.89189" lon="4.63591">
        <ele>305.84</ele>
        <time>2013-09-14T09:25:51Z</time>
      </trkpt>
      <trkpt lat="45.89188" lon="4.63593">
        <ele>305.84</ele>
        <time>2013-09-14T09:25:52Z</time>
      </trkpt>
      <trkpt lat="45.89187" lon="4.63595">
        <ele>305.84</ele>
        <time>2013-09-14T09:25:53Z</time>
      </trkpt>
      <trkpt lat="45.89187" lon="4.63598">
        <ele>306.32</ele>
        <time>2013-09-14T09:25:54Z</time>
      </trkpt>
      <trkpt lat="45.89177" lon="4.63639">
        <ele>306.8</ele>
        <time>2013-09-14T09:26:06Z</time>
      </trkpt>
      <trkpt lat="45.8917" lon="4.63676">
        <ele>307.76</ele>
        <time>2013-09-14T09:26:14Z</time>
      </trkpt>
      <trkpt lat="45.89169" lon="4.63677">
        <ele>306.8</ele>
        <time>2013-09-14T09:26:15Z</time>
      </trkpt>
      <trkpt lat="45.89167" lon="4.63678">
        <ele>307.28</ele>
        <time>2013-09-14T09:26:16Z</time>
      </trkpt>
      <trkpt lat="45.89167" lon="4.6368">
        <ele>307.28</ele>
        <time>2013-09-14T09:26:17Z</time>
      </trkpt>
      <trkpt lat="45.89167" lon="4.63683">
        <ele>306.8</ele>
        <time>2013-09-14T09:26:18Z</time>
      </trkpt>
      <trkpt lat="45.89167" lon="4.63686">
        <ele>307.76</ele>
        <time>2013-09-14T09:26:19Z</time>
      </trkpt>
      <trkpt lat="45.89166" lon="4.6369">
        <ele>307.28</ele>
        <time>2013-09-14T09:26:20Z</time>
      </trkpt>
      <trkpt lat="45.89166" lon="4.63693">
        <ele>307.76</ele>
        <time>2013-09-14T09:26:21Z</time>
      </trkpt>
      <trkpt lat="45.89164" lon="4.63697">
        <ele>308.24</ele>
        <time>2013-09-14T09:26:22Z</time>
      </trkpt>
      <trkpt lat="45.89163" lon="4.63699">
        <ele>307.28</ele>
        <time>2013-09-14T09:26:23Z</time>
      </trkpt>
      <trkpt lat="45.89162" lon="4.63701">
        <ele>307.28</ele>
        <time>2013-09-14T09:26:24Z</time>
      </trkpt>
      <trkpt lat="45.89161" lon="4.63703">
        <ele>306.8</ele>
        <time>2013-09-14T09:26:25Z</time>
      </trkpt>
      <trkpt lat="45.89159" lon="4.63705">
        <ele>307.76</ele>
        <time>2013-09-14T09:26:26Z</time>
      </trkpt>
      <trkpt lat="45.89157" lon="4.63708">
        <ele>307.28</ele>
        <time>2013-09-14T09:26:34Z</time>
      </trkpt>
      <trkpt lat="45.89157" lon="4.63708">
        <ele>307.28</ele>
        <time>2013-09-14T09:26:52Z</time>
      </trkpt>
      <trkpt lat="45.89157" lon="4.63708">
        <ele>306.8</ele>
        <time>2013-09-14T09:27:08Z</time>
      </trkpt>
      <trkpt lat="45.89151" lon="4.63716">
        <ele>307.76</ele>
        <time>2013-09-14T09:27:26Z</time>
      </trkpt>
      <trkpt lat="45.89124" lon="4.63743">
        <ele>308.24</ele>
        <time>2013-09-14T09:27:36Z</time>
      </trkpt>
      <trkpt lat="45.89086" lon="4.63774">
        <ele>309.2</ele>
        <time>2013-09-14T09:27:48Z</time>
      </trkpt>
      <trkpt lat="45.8904" lon="4.63817">
        <ele>308.24</ele>
        <time>2013-09-14T09:28:02Z</time>
      </trkpt>
      <trkpt lat="45.8903" lon="4.63831">
        <ele>308.24</ele>
        <time>2013-09-14T09:28:05Z</time>
      </trkpt>
      <trkpt lat="45.89026" lon="4.63836">
        <ele>307.76</ele>
        <time>2013-09-14T09:28:06Z</time>
      </trkpt>
      <trkpt lat="45.89017" lon="4.63853">
        <ele>306.8</ele>
        <time>2013-09-14T09:28:09Z</time>
      </trkpt>
      <trkpt lat="45.89014" lon="4.63857">
        <ele>306.8</ele>
        <time>2013-09-14T09:28:10Z</time>
      </trkpt>
      <trkpt lat="45.8898" lon="4.63898">
        <ele>305.36</ele>
        <time>2013-09-14T09:28:19Z</time>
      </trkpt>
      <trkpt lat="45.88966" lon="4.63913">
        <ele>305.36</ele>
        <time>2013-09-14T09:28:23Z</time>
      </trkpt>
      <trkpt lat="45.88944" lon="4.63935">
        <ele>305.84</ele>
        <time>2013-09-14T09:28:29Z</time>
      </trkpt>
      <trkpt lat="45.88905" lon="4.63984">
        <ele>306.8</ele>
        <time>2013-09-14T09:28:41Z</time>
      </trkpt>
      <trkpt lat="45.8888" lon="4.64004">
        <ele>308.72</ele>
        <time>2013-09-14T09:28:50Z</time>
      </trkpt>
      <trkpt lat="45.88853" lon="4.64019">
        <ele>309.68</ele>
        <time>2013-09-14T09:28:59Z</time>
      </trkpt>
      <trkpt lat="45.88819" lon="4.64022">
        <ele>310.64</ele>
        <time>2013-09-14T09:29:10Z</time>
      </trkpt>
      <trkpt lat="45.8878" lon="4.64023">
        <ele>310.16</ele>
        <time>2013-09-14T09:29:21Z</time>
      </trkpt>
      <trkpt lat="45.8874" lon="4.64023">
        <ele>308.72</ele>
        <time>2013-09-14T09:29:31Z</time>
      </trkpt>
      <trkpt lat="45.88727" lon="4.64024">
        <ele>308.24</ele>
        <time>2013-09-14T09:29:34Z</time>
      </trkpt>
      <trkpt lat="45.88722" lon="4.64025">
        <ele>308.24</ele>
        <time>2013-09-14T09:29:35Z</time>
      </trkpt>
      <trkpt lat="45.88718" lon="4.64026">
        <ele>307.76</ele>
        <time>2013-09-14T09:29:36Z</time>
      </trkpt>
      <trkpt lat="45.88671" lon="4.64028">
        <ele>306.32</ele>
        <time>2013-09-14T09:29:46Z</time>
      </trkpt>
      <trkpt lat="45.88656" lon="4.64029">
        <ele>305.84</ele>
        <time>2013-09-14T09:29:49Z</time>
      </trkpt>
      <trkpt lat="45.88622" lon="4.64029">
        <ele>304.88</ele>
        <time>2013-09-14T09:29:56Z</time>
      </trkpt>
      <trkpt lat="45.88617" lon="4.64029">
        <ele>304.88</ele>
        <time>2013-09-14T09:29:57Z</time>
      </trkpt>
      <trkpt lat="45.88602" lon="4.64028">
        <ele>304.39</ele>
        <time>2013-09-14T09:30:00Z</time>
      </trkpt>
      <trkpt lat="45.88554" lon="4.64036">
        <ele>303.91</ele>
        <time>2013-09-14T09:30:10Z</time>
      </trkpt>
      <trkpt lat="45.88522" lon="4.64043">
        <ele>303.43</ele>
        <time>2013-09-14T09:30:17Z</time>
      </trkpt>
      <trkpt lat="45.88518" lon="4.64044">
        <ele>303.43</ele>
        <time>2013-09-14T09:30:18Z</time>
      </trkpt>
      <trkpt lat="45.88499" lon="4.6405">
        <ele>302.47</ele>
        <time>2013-09-14T09:30:22Z</time>
      </trkpt>
      <trkpt lat="45.88489" lon="4.64055">
        <ele>301.99</ele>
        <time>2013-09-14T09:30:24Z</time>
      </trkpt>
      <trkpt lat="45.88445" lon="4.64089">
        <ele>299.11</ele>
        <time>2013-09-14T09:30:34Z</time>
      </trkpt>
      <trkpt lat="45.88409" lon="4.64125">
        <ele>295.74</ele>
        <time>2013-09-14T09:30:42Z</time>
      </trkpt>
      <trkpt lat="45.88388" lon="4.64156">
        <ele>292.38</ele>
        <time>2013-09-14T09:30:46Z</time>
      </trkpt>
      <trkpt lat="45.88376" lon="4.64174">
        <ele>290.94</ele>
        <time>2013-09-14T09:30:48Z</time>
      </trkpt>
      <trkpt lat="45.88349" lon="4.64211">
        <ele>287.09</ele>
        <time>2013-09-14T09:30:52Z</time>
      </trkpt>
      <trkpt lat="45.88321" lon="4.64241">
        <ele>285.17</ele>
        <time>2013-09-14T09:30:56Z</time>
      </trkpt>
      <trkpt lat="45.88252" lon="4.64291">
        <ele>281.8</ele>
        <time>2013-09-14T09:31:05Z</time>
      </trkpt>
      <trkpt lat="45.88184" lon="4.64347">
        <ele>279.88</ele>
        <time>2013-09-14T09:31:14Z</time>
      </trkpt>
      <trkpt lat="45.88147" lon="4.64387">
        <ele>277.48</ele>
        <time>2013-09-14T09:31:21Z</time>
      </trkpt>
      <trkpt lat="45.88127" lon="4.64412">
        <ele>275.56</ele>
        <time>2013-09-14T09:31:29Z</time>
      </trkpt>
      <trkpt lat="45.88117" lon="4.64424">
        <ele>275.07</ele>
        <time>2013-09-14T09:31:32Z</time>
      </trkpt>
      <trkpt lat="45.88112" lon="4.64429">
        <ele>274.59</ele>
        <time>2013-09-14T09:31:33Z</time>
      </trkpt>
      <trkpt lat="45.88108" lon="4.64434">
        <ele>274.11</ele>
        <time>2013-09-14T09:31:34Z</time>
      </trkpt>
      <trkpt lat="45.88075" lon="4.6447">
        <ele>271.23</ele>
        <time>2013-09-14T09:31:41Z</time>
      </trkpt>
      <trkpt lat="45.88069" lon="4.64476">
        <ele>270.75</ele>
        <time>2013-09-14T09:31:42Z</time>
      </trkpt>
      <trkpt lat="45.88064" lon="4.64481">
        <ele>270.75</ele>
        <time>2013-09-14T09:31:43Z</time>
      </trkpt>
      <trkpt lat="45.88059" lon="4.64485">
        <ele>270.27</ele>
        <time>2013-09-14T09:31:44Z</time>
      </trkpt>
      <trkpt lat="45.88054" lon="4.64489">
        <ele>270.27</ele>
        <time>2013-09-14T09:31:45Z</time>
      </trkpt>
      <trkpt lat="45.88049" lon="4.64493">
        <ele>269.31</ele>
        <time>2013-09-14T09:31:46Z</time>
      </trkpt>
      <trkpt lat="45.88026" lon="4.6451">
        <ele>267.86</ele>
        <time>2013-09-14T09:31:53Z</time>
      </trkpt>
      <trkpt lat="45.88014" lon="4.64522">
        <ele>265.94</ele>
        <time>2013-09-14T09:31:58Z</time>
      </trkpt>
      <trkpt lat="45.88001" lon="4.64533">
        <ele>264.5</ele>
        <time>2013-09-14T09:32:01Z</time>
      </trkpt>
      <trkpt lat="45.87995" lon="4.64537">
        <ele>264.02</ele>
        <time>2013-09-14T09:32:02Z</time>
      </trkpt>
      <trkpt lat="45.8799" lon="4.6454">
        <ele>263.54</ele>
        <time>2013-09-14T09:32:03Z</time>
      </trkpt>
      <trkpt lat="45.87973" lon="4.6455">
        <ele>261.62</ele>
        <time>2013-09-14T09:32:06Z</time>
      </trkpt>
      <trkpt lat="45.87967" lon="4.64553">
        <ele>260.65</ele>
        <time>2013-09-14T09:32:07Z</time>
      </trkpt>
      <trkpt lat="45.87942" lon="4.64567">
        <ele>258.25</ele>
        <time>2013-09-14T09:32:13Z</time>
      </trkpt>
      <trkpt lat="45.87927" lon="4.64579">
        <ele>256.33</ele>
        <time>2013-09-14T09:32:16Z</time>
      </trkpt>
      <trkpt lat="45.87909" lon="4.6459">
        <ele>254.41</ele>
        <time>2013-09-14T09:32:19Z</time>
      </trkpt>
      <trkpt lat="45.87898" lon="4.64598">
        <ele>252.96</ele>
        <time>2013-09-14T09:32:21Z</time>
      </trkpt>
      <trkpt lat="45.87892" lon="4.646">
        <ele>252</ele>
        <time>2013-09-14T09:32:22Z</time>
      </trkpt>
      <trkpt lat="45.87886" lon="4.646">
        <ele>251.52</ele>
        <time>2013-09-14T09:32:23Z</time>
      </trkpt>
      <trkpt lat="45.87881" lon="4.64599">
        <ele>251.04</ele>
        <time>2013-09-14T09:32:24Z</time>
      </trkpt>
      <trkpt lat="45.87875" lon="4.64599">
        <ele>250.56</ele>
        <time>2013-09-14T09:32:25Z</time>
      </trkpt>
      <trkpt lat="45.8787" lon="4.64601">
        <ele>250.56</ele>
        <time>2013-09-14T09:32:26Z</time>
      </trkpt>
      <trkpt lat="45.87865" lon="4.64605">
        <ele>249.12</ele>
        <time>2013-09-14T09:32:27Z</time>
      </trkpt>
      <trkpt lat="45.8786" lon="4.64608">
        <ele>248.64</ele>
        <time>2013-09-14T09:32:28Z</time>
      </trkpt>
      <trkpt lat="45.87855" lon="4.64609">
        <ele>248.16</ele>
        <time>2013-09-14T09:32:29Z</time>
      </trkpt>
      <trkpt lat="45.87849" lon="4.64607">
        <ele>247.2</ele>
        <time>2013-09-14T09:32:30Z</time>
      </trkpt>
      <trkpt lat="45.87843" lon="4.64604">
        <ele>246.72</ele>
        <time>2013-09-14T09:32:31Z</time>
      </trkpt>
      <trkpt lat="45.87837" lon="4.646">
        <ele>245.75</ele>
        <time>2013-09-14T09:32:32Z</time>
      </trkpt>
      <trkpt lat="45.87822" lon="4.64589">
        <ele>244.31</ele>
        <time>2013-09-14T09:32:35Z</time>
      </trkpt>
      <trkpt lat="45.87818" lon="4.64585">
        <ele>243.35</ele>
        <time>2013-09-14T09:32:36Z</time>
      </trkpt>
      <trkpt lat="45.87815" lon="4.64581">
        <ele>242.39</ele>
        <time>2013-09-14T09:32:37Z</time>
      </trkpt>
      <trkpt lat="45.87811" lon="4.64577">
        <ele>241.91</ele>
        <time>2013-09-14T09:32:38Z</time>
      </trkpt>
      <trkpt lat="45.87808" lon="4.64572">
        <ele>241.43</ele>
        <time>2013-09-14T09:32:39Z</time>
      </trkpt>
      <trkpt lat="45.87807" lon="4.64566">
        <ele>241.43</ele>
        <time>2013-09-14T09:32:40Z</time>
      </trkpt>
      <trkpt lat="45.87807" lon="4.64559">
        <ele>240.47</ele>
        <time>2013-09-14T09:32:41Z</time>
      </trkpt>
      <trkpt lat="45.87809" lon="4.64551">
        <ele>240.47</ele>
        <time>2013-09-14T09:32:42Z</time>
      </trkpt>
      <trkpt lat="45.87811" lon="4.64544">
        <ele>239.51</ele>
        <time>2013-09-14T09:32:43Z</time>
      </trkpt>
      <trkpt lat="45.87813" lon="4.64537">
        <ele>239.99</ele>
        <time>2013-09-14T09:32:44Z</time>
      </trkpt>
      <trkpt lat="45.87816" lon="4.64531">
        <ele>239.99</ele>
        <time>2013-09-14T09:32:45Z</time>
      </trkpt>
      <trkpt lat="45.87819" lon="4.64526">
        <ele>239.51</ele>
        <time>2013-09-14T09:32:46Z</time>
      </trkpt>
      <trkpt lat="45.87845" lon="4.64486">
        <ele>238.54</ele>
        <time>2013-09-14T09:32:53Z</time>
      </trkpt>
      <trkpt lat="45.87849" lon="4.64481">
        <ele>238.54</ele>
        <time>2013-09-14T09:32:54Z</time>
      </trkpt>
      <trkpt lat="45.87877" lon="4.64446">
        <ele>236.62</ele>
        <time>2013-09-14T09:33:02Z</time>
      </trkpt>
      <trkpt lat="45.87892" lon="4.64414">
        <ele>232.78</ele>
        <time>2013-09-14T09:33:07Z</time>
      </trkpt>
      <trkpt lat="45.87901" lon="4.64393">
        <ele>229.41</ele>
        <time>2013-09-14T09:33:11Z</time>
      </trkpt>
      <trkpt lat="45.87902" lon="4.64389">
        <ele>229.41</ele>
        <time>2013-09-14T09:33:12Z</time>
      </trkpt>
      <trkpt lat="45.87903" lon="4.64386">
        <ele>228.93</ele>
        <time>2013-09-14T09:33:13Z</time>
      </trkpt>
      <trkpt lat="45.87902" lon="4.64384">
        <ele>227.97</ele>
        <time>2013-09-14T09:33:14Z</time>
      </trkpt>
      <trkpt lat="45.879" lon="4.64382">
        <ele>228.45</ele>
        <time>2013-09-14T09:33:15Z</time>
      </trkpt>
      <trkpt lat="45.87897" lon="4.64383">
        <ele>227.49</ele>
        <time>2013-09-14T09:33:16Z</time>
      </trkpt>
      <trkpt lat="45.87881" lon="4.64395">
        <ele>227.01</ele>
        <time>2013-09-14T09:33:20Z</time>
      </trkpt>
      <trkpt lat="45.87877" lon="4.644">
        <ele>226.53</ele>
        <time>2013-09-14T09:33:21Z</time>
      </trkpt>
      <trkpt lat="45.87873" lon="4.64405">
        <ele>226.05</ele>
        <time>2013-09-14T09:33:22Z</time>
      </trkpt>
      <trkpt lat="45.87867" lon="4.64415">
        <ele>226.05</ele>
        <time>2013-09-14T09:33:24Z</time>
      </trkpt>
      <trkpt lat="45.87864" lon="4.64419">
        <ele>225.57</ele>
        <time>2013-09-14T09:33:25Z</time>
      </trkpt>
      <trkpt lat="45.8786" lon="4.64422">
        <ele>225.09</ele>
        <time>2013-09-14T09:33:26Z</time>
      </trkpt>
      <trkpt lat="45.87855" lon="4.64425">
        <ele>224.61</ele>
        <time>2013-09-14T09:33:27Z</time>
      </trkpt>
      <trkpt lat="45.87849" lon="4.64428">
        <ele>224.12</ele>
        <time>2013-09-14T09:33:28Z</time>
      </trkpt>
      <trkpt lat="45.87831" lon="4.64437">
        <ele>221.24</ele>
        <time>2013-09-14T09:33:31Z</time>
      </trkpt>
      <trkpt lat="45.87826" lon="4.6444">
        <ele>220.76</ele>
        <time>2013-09-14T09:33:32Z</time>
      </trkpt>
      <trkpt lat="45.87821" lon="4.64443">
        <ele>220.28</ele>
        <time>2013-09-14T09:33:33Z</time>
      </trkpt>
      <trkpt lat="45.87818" lon="4.64443">
        <ele>220.28</ele>
        <time>2013-09-14T09:33:34Z</time>
      </trkpt>
      <trkpt lat="45.87815" lon="4.64443">
        <ele>220.28</ele>
        <time>2013-09-14T09:33:35Z</time>
      </trkpt>
      <trkpt lat="45.87807" lon="4.64428">
        <ele>219.8</ele>
        <time>2013-09-14T09:33:39Z</time>
      </trkpt>
      <trkpt lat="45.87809" lon="4.64424">
        <ele>219.8</ele>
        <time>2013-09-14T09:33:40Z</time>
      </trkpt>
      <trkpt lat="45.87833" lon="4.64393">
        <ele>219.32</ele>
        <time>2013-09-14T09:33:48Z</time>
      </trkpt>
      <trkpt lat="45.87842" lon="4.64382">
        <ele>219.32</ele>
        <time>2013-09-14T09:33:51Z</time>
      </trkpt>
      <trkpt lat="45.87842" lon="4.64377">
        <ele>220.28</ele>
        <time>2013-09-14T09:33:52Z</time>
      </trkpt>
      <trkpt lat="45.87841" lon="4.64372">
        <ele>219.8</ele>
        <time>2013-09-14T09:33:53Z</time>
      </trkpt>
      <trkpt lat="45.87835" lon="4.6436">
        <ele>219.32</ele>
        <time>2013-09-14T09:33:55Z</time>
      </trkpt>
      <trkpt lat="45.87832" lon="4.64354">
        <ele>219.8</ele>
        <time>2013-09-14T09:33:56Z</time>
      </trkpt>
      <trkpt lat="45.87829" lon="4.64349">
        <ele>219.8</ele>
        <time>2013-09-14T09:33:57Z</time>
      </trkpt>
      <trkpt lat="45.87812" lon="4.64324">
        <ele>220.28</ele>
        <time>2013-09-14T09:34:05Z</time>
      </trkpt>
      <trkpt lat="45.8781" lon="4.64322">
        <ele>219.8</ele>
        <time>2013-09-14T09:34:07Z</time>
      </trkpt>
      <trkpt lat="45.87808" lon="4.64322">
        <ele>219.8</ele>
        <time>2013-09-14T09:34:08Z</time>
      </trkpt>
      <trkpt lat="45.87806" lon="4.64324">
        <ele>220.28</ele>
        <time>2013-09-14T09:34:09Z</time>
      </trkpt>
      <trkpt lat="45.87789" lon="4.64346">
        <ele>219.8</ele>
        <time>2013-09-14T09:34:16Z</time>
      </trkpt>
      <trkpt lat="45.87761" lon="4.64388">
        <ele>219.8</ele>
        <time>2013-09-14T09:34:26Z</time>
      </trkpt>
      <trkpt lat="45.87758" lon="4.64392">
        <ele>219.8</ele>
        <time>2013-09-14T09:34:27Z</time>
      </trkpt>
      <trkpt lat="45.87725" lon="4.64432">
        <ele>218.84</ele>
        <time>2013-09-14T09:34:37Z</time>
      </trkpt>
      <trkpt lat="45.87723" lon="4.64433">
        <ele>218.84</ele>
        <time>2013-09-14T09:34:38Z</time>
      </trkpt>
      <trkpt lat="45.8772" lon="4.64432">
        <ele>218.84</ele>
        <time>2013-09-14T09:34:39Z</time>
      </trkpt>
      <trkpt lat="45.87712" lon="4.64428">
        <ele>218.36</ele>
        <time>2013-09-14T09:34:41Z</time>
      </trkpt>
      <trkpt lat="45.87672" lon="4.64415">
        <ele>217.88</ele>
        <time>2013-09-14T09:34:50Z</time>
      </trkpt>
      <trkpt lat="45.87667" lon="4.64414">
        <ele>217.4</ele>
        <time>2013-09-14T09:34:51Z</time>
      </trkpt>
      <trkpt lat="45.87662" lon="4.64414">
        <ele>217.4</ele>
        <time>2013-09-14T09:34:52Z</time>
      </trkpt>
      <trkpt lat="45.87651" lon="4.64417">
        <ele>217.88</ele>
        <time>2013-09-14T09:34:54Z</time>
      </trkpt>
      <trkpt lat="45.87647" lon="4.6442">
        <ele>217.88</ele>
        <time>2013-09-14T09:34:55Z</time>
      </trkpt>
      <trkpt lat="45.87643" lon="4.64422">
        <ele>217.88</ele>
        <time>2013-09-14T09:34:56Z</time>
      </trkpt>
      <trkpt lat="45.8764" lon="4.64423">
        <ele>218.36</ele>
        <time>2013-09-14T09:34:57Z</time>
      </trkpt>
      <trkpt lat="45.87637" lon="4.64425">
        <ele>218.36</ele>
        <time>2013-09-14T09:34:58Z</time>
      </trkpt>
      <trkpt lat="45.87634" lon="4.64426">
        <ele>218.36</ele>
        <time>2013-09-14T09:34:59Z</time>
      </trkpt>
      <trkpt lat="45.87632" lon="4.64428">
        <ele>218.84</ele>
        <time>2013-09-14T09:35:00Z</time>
      </trkpt>
      <trkpt lat="45.87621" lon="4.64436">
        <ele>217.88</ele>
        <time>2013-09-14T09:35:04Z</time>
      </trkpt>
      <trkpt lat="45.87604" lon="4.6445">
        <ele>216.91</ele>
        <time>2013-09-14T09:35:11Z</time>
      </trkpt>
      <trkpt lat="45.87602" lon="4.64452">
        <ele>216.91</ele>
        <time>2013-09-14T09:35:19Z</time>
      </trkpt>
      <trkpt lat="45.87602" lon="4.64452">
        <ele>216.91</ele>
        <time>2013-09-14T09:35:36Z</time>
      </trkpt>
      <trkpt lat="45.87602" lon="4.64452">
        <ele>216.91</ele>
        <time>2013-09-14T09:35:55Z</time>
      </trkpt>
      <trkpt lat="45.87602" lon="4.64451">
        <ele>217.4</ele>
        <time>2013-09-14T09:36:10Z</time>
      </trkpt>
      <trkpt lat="45.87602" lon="4.64453">
        <ele>216.91</ele>
        <time>2013-09-14T09:36:20Z</time>
      </trkpt>
      <trkpt lat="45.87603" lon="4.64454">
        <ele>216.43</ele>
        <time>2013-09-14T09:36:21Z</time>
      </trkpt>
      <trkpt lat="45.87603" lon="4.64456">
        <ele>217.4</ele>
        <time>2013-09-14T09:36:22Z</time>
      </trkpt>
      <trkpt lat="45.87604" lon="4.64457">
        <ele>216.43</ele>
        <time>2013-09-14T09:36:23Z</time>
      </trkpt>
      <trkpt lat="45.87605" lon="4.64457">
        <ele>216.91</ele>
        <time>2013-09-14T09:36:24Z</time>
      </trkpt>
      <trkpt lat="45.87606" lon="4.64456">
        <ele>216.91</ele>
        <time>2013-09-14T09:36:25Z</time>
      </trkpt>
      <trkpt lat="45.87607" lon="4.64452">
        <ele>216.91</ele>
        <time>2013-09-14T09:36:29Z</time>
      </trkpt>
      <trkpt lat="45.87606" lon="4.64452">
        <ele>216.91</ele>
        <time>2013-09-14T09:36:30Z</time>
      </trkpt>
      <trkpt lat="45.87605" lon="4.64452">
        <ele>216.91</ele>
        <time>2013-09-14T09:36:31Z</time>
      </trkpt>
      <trkpt lat="45.87602" lon="4.64453">
        <ele>216.91</ele>
        <time>2013-09-14T09:36:33Z</time>
      </trkpt>
      <trkpt lat="45.87601" lon="4.64452">
        <ele>216.91</ele>
        <time>2013-09-14T09:36:34Z</time>
      </trkpt>
      <trkpt lat="45.876" lon="4.64451">
        <ele>217.4</ele>
        <time>2013-09-14T09:36:35Z</time>
      </trkpt>
      <trkpt lat="45.876" lon="4.6445">
        <ele>216.91</ele>
        <time>2013-09-14T09:36:38Z</time>
      </trkpt>
      <trkpt lat="45.87602" lon="4.64449">
        <ele>215.95</ele>
        <time>2013-09-14T09:36:39Z</time>
      </trkpt>
      <trkpt lat="45.87603" lon="4.64448">
        <ele>215.95</ele>
        <time>2013-09-14T09:36:40Z</time>
      </trkpt>
      <trkpt lat="45.87604" lon="4.64446">
        <ele>216.43</ele>
        <time>2013-09-14T09:36:41Z</time>
      </trkpt>
      <trkpt lat="45.87604" lon="4.64443">
        <ele>215.95</ele>
        <time>2013-09-14T09:36:42Z</time>
      </trkpt>
      <trkpt lat="45.87604" lon="4.6444">
        <ele>215.95</ele>
        <time>2013-09-14T09:36:43Z</time>
      </trkpt>
      <trkpt lat="45.87602" lon="4.64432">
        <ele>215.95</ele>
        <time>2013-09-14T09:36:45Z</time>
      </trkpt>
      <trkpt lat="45.87601" lon="4.64428">
        <ele>216.43</ele>
        <time>2013-09-14T09:36:46Z</time>
      </trkpt>
      <trkpt lat="45.87599" lon="4.64424">
        <ele>215.95</ele>
        <time>2013-09-14T09:36:47Z</time>
      </trkpt>
      <trkpt lat="45.87591" lon="4.64408">
        <ele>216.43</ele>
        <time>2013-09-14T09:36:52Z</time>
      </trkpt>
      <trkpt lat="45.87574" lon="4.64409">
        <ele>217.88</ele>
        <time>2013-09-14T09:37:00Z</time>
      </trkpt>
      <trkpt lat="45.87573" lon="4.64408">
        <ele>217.88</ele>
        <time>2013-09-14T09:37:09Z</time>
      </trkpt>
      <trkpt lat="45.87573" lon="4.64404">
        <ele>219.32</ele>
        <time>2013-09-14T09:37:16Z</time>
      </trkpt>
      <trkpt lat="45.87573" lon="4.64402">
        <ele>219.32</ele>
        <time>2013-09-14T09:37:25Z</time>
      </trkpt>
      <trkpt lat="45.87573" lon="4.64396">
        <ele>219.32</ele>
        <time>2013-09-14T09:37:35Z</time>
      </trkpt>
      <trkpt lat="45.87572" lon="4.64395">
        <ele>219.32</ele>
        <time>2013-09-14T09:37:37Z</time>
      </trkpt>
      <trkpt lat="45.87571" lon="4.64394">
        <ele>219.32</ele>
        <time>2013-09-14T09:37:38Z</time>
      </trkpt>
      <trkpt lat="45.87569" lon="4.64394">
        <ele>219.32</ele>
        <time>2013-09-14T09:37:44Z</time>
      </trkpt>
      <trkpt lat="45.87568" lon="4.64393">
        <ele>218.36</ele>
        <time>2013-09-14T09:37:45Z</time>
      </trkpt>
      <trkpt lat="45.87553" lon="4.64385">
        <ele>219.32</ele>
        <time>2013-09-14T09:37:52Z</time>
      </trkpt>
      <trkpt lat="45.87541" lon="4.64379">
        <ele>218.36</ele>
        <time>2013-09-14T09:37:58Z</time>
      </trkpt>
      <trkpt lat="45.87539" lon="4.64376">
        <ele>218.36</ele>
        <time>2013-09-14T09:37:59Z</time>
      </trkpt>
      <trkpt lat="45.87537" lon="4.64374">
        <ele>218.36</ele>
        <time>2013-09-14T09:38:00Z</time>
      </trkpt>
      <trkpt lat="45.87534" lon="4.64372">
        <ele>217.88</ele>
        <time>2013-09-14T09:38:01Z</time>
      </trkpt>
      <trkpt lat="45.8753" lon="4.64371">
        <ele>218.36</ele>
        <time>2013-09-14T09:38:02Z</time>
      </trkpt>
      <trkpt lat="45.87507" lon="4.64363">
        <ele>218.36</ele>
        <time>2013-09-14T09:38:08Z</time>
      </trkpt>
      <trkpt lat="45.87504" lon="4.6436">
        <ele>217.88</ele>
        <time>2013-09-14T09:38:09Z</time>
      </trkpt>
      <trkpt lat="45.875" lon="4.64357">
        <ele>217.88</ele>
        <time>2013-09-14T09:38:10Z</time>
      </trkpt>
      <trkpt lat="45.87492" lon="4.64352">
        <ele>218.36</ele>
        <time>2013-09-14T09:38:12Z</time>
      </trkpt>
      <trkpt lat="45.87488" lon="4.6435">
        <ele>218.84</ele>
        <time>2013-09-14T09:38:13Z</time>
      </trkpt>
      <trkpt lat="45.87483" lon="4.64349">
        <ele>218.84</ele>
        <time>2013-09-14T09:38:14Z</time>
      </trkpt>
      <trkpt lat="45.87455" lon="4.64347">
        <ele>219.8</ele>
        <time>2013-09-14T09:38:23Z</time>
      </trkpt>
      <trkpt lat="45.87453" lon="4.64345">
        <ele>220.28</ele>
        <time>2013-09-14T09:38:24Z</time>
      </trkpt>
      <trkpt lat="45.87451" lon="4.64345">
        <ele>220.28</ele>
        <time>2013-09-14T09:38:25Z</time>
      </trkpt>
      <trkpt lat="45.87448" lon="4.64344">
        <ele>219.8</ele>
        <time>2013-09-14T09:38:26Z</time>
      </trkpt>
      <trkpt lat="45.87445" lon="4.64344">
        <ele>220.28</ele>
        <time>2013-09-14T09:38:27Z</time>
      </trkpt>
      <trkpt lat="45.874" lon="4.64346">
        <ele>218.84</ele>
        <time>2013-09-14T09:38:38Z</time>
      </trkpt>
      <trkpt lat="45.87375" lon="4.64349">
        <ele>217.88</ele>
        <time>2013-09-14T09:38:43Z</time>
      </trkpt>
      <trkpt lat="45.87371" lon="4.64352">
        <ele>217.4</ele>
        <time>2013-09-14T09:38:44Z</time>
      </trkpt>
      <trkpt lat="45.87366" lon="4.64356">
        <ele>217.4</ele>
        <time>2013-09-14T09:38:45Z</time>
      </trkpt>
      <trkpt lat="45.87362" lon="4.6436">
        <ele>217.88</ele>
        <time>2013-09-14T09:38:46Z</time>
      </trkpt>
      <trkpt lat="45.87358" lon="4.64363">
        <ele>217.4</ele>
        <time>2013-09-14T09:38:47Z</time>
      </trkpt>
      <trkpt lat="45.87307" lon="4.64405">
        <ele>216.43</ele>
        <time>2013-09-14T09:38:58Z</time>
      </trkpt>
      <trkpt lat="45.87258" lon="4.64444">
        <ele>217.88</ele>
        <time>2013-09-14T09:39:09Z</time>
      </trkpt>
      <trkpt lat="45.87216" lon="4.64481">
        <ele>219.8</ele>
        <time>2013-09-14T09:39:21Z</time>
      </trkpt>
      <trkpt lat="45.87193" lon="4.64498">
        <ele>222.68</ele>
        <time>2013-09-14T09:39:30Z</time>
      </trkpt>
      <trkpt lat="45.87189" lon="4.64501">
        <ele>223.64</ele>
        <time>2013-09-14T09:39:32Z</time>
      </trkpt>
      <trkpt lat="45.87169" lon="4.64513">
        <ele>226.05</ele>
        <time>2013-09-14T09:39:43Z</time>
      </trkpt>
      <trkpt lat="45.8715" lon="4.64526">
        <ele>227.49</ele>
        <time>2013-09-14T09:39:54Z</time>
      </trkpt>
      <trkpt lat="45.87123" lon="4.64536">
        <ele>229.41</ele>
        <time>2013-09-14T09:40:06Z</time>
      </trkpt>
      <trkpt lat="45.87096" lon="4.64544">
        <ele>230.85</ele>
        <time>2013-09-14T09:40:18Z</time>
      </trkpt>
      <trkpt lat="45.8707" lon="4.64553">
        <ele>232.78</ele>
        <time>2013-09-14T09:40:31Z</time>
      </trkpt>
      <trkpt lat="45.8705" lon="4.64564">
        <ele>235.18</ele>
        <time>2013-09-14T09:40:42Z</time>
      </trkpt>
      <trkpt lat="45.8704" lon="4.64571">
        <ele>236.14</ele>
        <time>2013-09-14T09:40:50Z</time>
      </trkpt>
      <trkpt lat="45.87039" lon="4.64571">
        <ele>236.14</ele>
        <time>2013-09-14T09:40:51Z</time>
      </trkpt>
      <trkpt lat="45.87038" lon="4.64572">
        <ele>236.14</ele>
        <time>2013-09-14T09:40:52Z</time>
      </trkpt>
      <trkpt lat="45.87024" lon="4.64582">
        <ele>239.51</ele>
        <time>2013-09-14T09:41:03Z</time>
      </trkpt>
      <trkpt lat="45.87023" lon="4.64582">
        <ele>239.02</ele>
        <time>2013-09-14T09:41:04Z</time>
      </trkpt>
      <trkpt lat="45.87022" lon="4.64583">
        <ele>239.51</ele>
        <time>2013-09-14T09:41:05Z</time>
      </trkpt>
      <trkpt lat="45.8702" lon="4.64584">
        <ele>239.51</ele>
        <time>2013-09-14T09:41:06Z</time>
      </trkpt>
      <trkpt lat="45.87019" lon="4.64585">
        <ele>239.99</ele>
        <time>2013-09-14T09:41:07Z</time>
      </trkpt>
      <trkpt lat="45.87018" lon="4.64586">
        <ele>239.99</ele>
        <time>2013-09-14T09:41:08Z</time>
      </trkpt>
      <trkpt lat="45.87004" lon="4.64595">
        <ele>242.87</ele>
        <time>2013-09-14T09:41:20Z</time>
      </trkpt>
      <trkpt lat="45.8699" lon="4.64609">
        <ele>245.75</ele>
        <time>2013-09-14T09:41:32Z</time>
      </trkpt>
      <trkpt lat="45.86978" lon="4.6462">
        <ele>248.64</ele>
        <time>2013-09-14T09:41:42Z</time>
      </trkpt>
      <trkpt lat="45.86965" lon="4.64631">
        <ele>251.04</ele>
        <time>2013-09-14T09:41:54Z</time>
      </trkpt>
      <trkpt lat="45.86954" lon="4.64641">
        <ele>252.96</ele>
        <time>2013-09-14T09:42:05Z</time>
      </trkpt>
      <trkpt lat="45.86946" lon="4.64647">
        <ele>254.41</ele>
        <time>2013-09-14T09:42:14Z</time>
      </trkpt>
      <trkpt lat="45.86939" lon="4.64654">
        <ele>255.37</ele>
        <time>2013-09-14T09:42:22Z</time>
      </trkpt>
      <trkpt lat="45.86931" lon="4.64662">
        <ele>255.85</ele>
        <time>2013-09-14T09:42:29Z</time>
      </trkpt>
      <trkpt lat="45.86929" lon="4.64663">
        <ele>256.33</ele>
        <time>2013-09-14T09:42:30Z</time>
      </trkpt>
      <trkpt lat="45.86928" lon="4.64664">
        <ele>256.33</ele>
        <time>2013-09-14T09:42:31Z</time>
      </trkpt>
      <trkpt lat="45.86926" lon="4.64665">
        <ele>256.33</ele>
        <time>2013-09-14T09:42:32Z</time>
      </trkpt>
      <trkpt lat="45.86925" lon="4.64667">
        <ele>257.29</ele>
        <time>2013-09-14T09:42:33Z</time>
      </trkpt>
      <trkpt lat="45.86911" lon="4.64677">
        <ele>258.25</ele>
        <time>2013-09-14T09:42:44Z</time>
      </trkpt>
      <trkpt lat="45.86902" lon="4.6468">
        <ele>258.73</ele>
        <time>2013-09-14T09:42:51Z</time>
      </trkpt>
      <trkpt lat="45.86881" lon="4.64687">
        <ele>260.17</ele>
        <time>2013-09-14T09:43:00Z</time>
      </trkpt>
      <trkpt lat="45.86879" lon="4.64687">
        <ele>260.17</ele>
        <time>2013-09-14T09:43:01Z</time>
      </trkpt>
      <trkpt lat="45.86877" lon="4.64687">
        <ele>260.17</ele>
        <time>2013-09-14T09:43:02Z</time>
      </trkpt>
      <trkpt lat="45.86853" lon="4.64695">
        <ele>261.14</ele>
        <time>2013-09-14T09:43:13Z</time>
      </trkpt>
      <trkpt lat="45.86831" lon="4.64708">
        <ele>261.62</ele>
        <time>2013-09-14T09:43:23Z</time>
      </trkpt>
      <trkpt lat="45.86825" lon="4.64714">
        <ele>262.1</ele>
        <time>2013-09-14T09:43:26Z</time>
      </trkpt>
      <trkpt lat="45.86823" lon="4.64716">
        <ele>262.1</ele>
        <time>2013-09-14T09:43:27Z</time>
      </trkpt>
      <trkpt lat="45.86801" lon="4.64735">
        <ele>262.58</ele>
        <time>2013-09-14T09:43:37Z</time>
      </trkpt>
      <trkpt lat="45.86776" lon="4.64755">
        <ele>263.06</ele>
        <time>2013-09-14T09:43:47Z</time>
      </trkpt>
      <trkpt lat="45.8674" lon="4.6478">
        <ele>263.06</ele>
        <time>2013-09-14T09:43:59Z</time>
      </trkpt>
      <trkpt lat="45.86703" lon="4.648">
        <ele>263.54</ele>
        <time>2013-09-14T09:44:11Z</time>
      </trkpt>
      <trkpt lat="45.86672" lon="4.64818">
        <ele>264.98</ele>
        <time>2013-09-14T09:44:22Z</time>
      </trkpt>
      <trkpt lat="45.86636" lon="4.64838">
        <ele>265.94</ele>
        <time>2013-09-14T09:44:34Z</time>
      </trkpt>
      <trkpt lat="45.86595" lon="4.64861">
        <ele>268.35</ele>
        <time>2013-09-14T09:44:49Z</time>
      </trkpt>
      <trkpt lat="45.86561" lon="4.64879">
        <ele>269.31</ele>
        <time>2013-09-14T09:45:01Z</time>
      </trkpt>
      <trkpt lat="45.86537" lon="4.64895">
        <ele>271.23</ele>
        <time>2013-09-14T09:45:11Z</time>
      </trkpt>
      <trkpt lat="45.86516" lon="4.6492">
        <ele>273.15</ele>
        <time>2013-09-14T09:45:21Z</time>
      </trkpt>
      <trkpt lat="45.86497" lon="4.64948">
        <ele>274.11</ele>
        <time>2013-09-14T09:45:31Z</time>
      </trkpt>
      <trkpt lat="45.86477" lon="4.64975">
        <ele>275.07</ele>
        <time>2013-09-14T09:45:42Z</time>
      </trkpt>
      <trkpt lat="45.86461" lon="4.65">
        <ele>276.04</ele>
        <time>2013-09-14T09:45:51Z</time>
      </trkpt>
      <trkpt lat="45.86443" lon="4.65028">
        <ele>277</ele>
        <time>2013-09-14T09:46:01Z</time>
      </trkpt>
      <trkpt lat="45.86424" lon="4.6506">
        <ele>277.48</ele>
        <time>2013-09-14T09:46:11Z</time>
      </trkpt>
      <trkpt lat="45.86409" lon="4.65097">
        <ele>277</ele>
        <time>2013-09-14T09:46:19Z</time>
      </trkpt>
      <trkpt lat="45.86381" lon="4.65173">
        <ele>274.11</ele>
        <time>2013-09-14T09:46:30Z</time>
      </trkpt>
      <trkpt lat="45.86353" lon="4.65271">
        <ele>271.71</ele>
        <time>2013-09-14T09:46:42Z</time>
      </trkpt>
      <trkpt lat="45.86333" lon="4.65355">
        <ele>271.23</ele>
        <time>2013-09-14T09:46:53Z</time>
      </trkpt>
      <trkpt lat="45.86308" lon="4.65459">
        <ele>271.23</ele>
        <time>2013-09-14T09:47:07Z</time>
      </trkpt>
      <trkpt lat="45.86285" lon="4.6553">
        <ele>271.71</ele>
        <time>2013-09-14T09:47:18Z</time>
      </trkpt>
      <trkpt lat="45.86257" lon="4.65616">
        <ele>270.27</ele>
        <time>2013-09-14T09:47:31Z</time>
      </trkpt>
      <trkpt lat="45.86222" lon="4.65696">
        <ele>267.86</ele>
        <time>2013-09-14T09:47:42Z</time>
      </trkpt>
      <trkpt lat="45.86182" lon="4.65785">
        <ele>266.42</ele>
        <time>2013-09-14T09:47:55Z</time>
      </trkpt>
      <trkpt lat="45.86145" lon="4.65872">
        <ele>266.42</ele>
        <time>2013-09-14T09:48:08Z</time>
      </trkpt>
      <trkpt lat="45.86105" lon="4.65963">
        <ele>264.5</ele>
        <time>2013-09-14T09:48:21Z</time>
      </trkpt>
      <trkpt lat="45.86072" lon="4.66042">
        <ele>265.94</ele>
        <time>2013-09-14T09:48:33Z</time>
      </trkpt>
      <trkpt lat="45.86064" lon="4.66062">
        <ele>265.94</ele>
        <time>2013-09-14T09:48:37Z</time>
      </trkpt>
      <trkpt lat="45.86037" lon="4.66096">
        <ele>266.9</ele>
        <time>2013-09-14T09:48:45Z</time>
      </trkpt>
      <trkpt lat="45.86012" lon="4.66114">
        <ele>267.38</ele>
        <time>2013-09-14T09:48:52Z</time>
      </trkpt>
      <trkpt lat="45.85983" lon="4.66154">
        <ele>268.35</ele>
        <time>2013-09-14T09:49:02Z</time>
      </trkpt>
      <trkpt lat="45.8598" lon="4.66159">
        <ele>267.86</ele>
        <time>2013-09-14T09:49:03Z</time>
      </trkpt>
      <trkpt lat="45.85951" lon="4.66214">
        <ele>268.83</ele>
        <time>2013-09-14T09:49:14Z</time>
      </trkpt>
      <trkpt lat="45.85948" lon="4.66219">
        <ele>268.35</ele>
        <time>2013-09-14T09:49:15Z</time>
      </trkpt>
      <trkpt lat="45.85917" lon="4.66281">
        <ele>268.83</ele>
        <time>2013-09-14T09:49:28Z</time>
      </trkpt>
      <trkpt lat="45.85887" lon="4.66348">
        <ele>267.38</ele>
        <time>2013-09-14T09:49:40Z</time>
      </trkpt>
      <trkpt lat="45.85862" lon="4.66436">
        <ele>263.54</ele>
        <time>2013-09-14T09:49:50Z</time>
      </trkpt>
      <trkpt lat="45.85853" lon="4.66482">
        <ele>260.65</ele>
        <time>2013-09-14T09:49:54Z</time>
      </trkpt>
      <trkpt lat="45.85847" lon="4.66518">
        <ele>257.77</ele>
        <time>2013-09-14T09:49:57Z</time>
      </trkpt>
      <trkpt lat="45.85845" lon="4.6653">
        <ele>257.77</ele>
        <time>2013-09-14T09:49:58Z</time>
      </trkpt>
      <trkpt lat="45.85841" lon="4.6654">
        <ele>257.29</ele>
        <time>2013-09-14T09:49:59Z</time>
      </trkpt>
      <trkpt lat="45.85836" lon="4.66548">
        <ele>256.33</ele>
        <time>2013-09-14T09:50:00Z</time>
      </trkpt>
      <trkpt lat="45.85829" lon="4.66554">
        <ele>256.81</ele>
        <time>2013-09-14T09:50:01Z</time>
      </trkpt>
      <trkpt lat="45.85822" lon="4.6656">
        <ele>255.37</ele>
        <time>2013-09-14T09:50:02Z</time>
      </trkpt>
      <trkpt lat="45.85817" lon="4.66568">
        <ele>254.41</ele>
        <time>2013-09-14T09:50:03Z</time>
      </trkpt>
      <trkpt lat="45.85815" lon="4.66578">
        <ele>252.96</ele>
        <time>2013-09-14T09:50:04Z</time>
      </trkpt>
      <trkpt lat="45.85815" lon="4.6659">
        <ele>252</ele>
        <time>2013-09-14T09:50:05Z</time>
      </trkpt>
      <trkpt lat="45.85818" lon="4.66602">
        <ele>251.04</ele>
        <time>2013-09-14T09:50:06Z</time>
      </trkpt>
      <trkpt lat="45.85823" lon="4.66614">
        <ele>250.56</ele>
        <time>2013-09-14T09:50:07Z</time>
      </trkpt>
      <trkpt lat="45.85829" lon="4.66626">
        <ele>248.64</ele>
        <time>2013-09-14T09:50:08Z</time>
      </trkpt>
      <trkpt lat="45.85835" lon="4.66637">
        <ele>247.68</ele>
        <time>2013-09-14T09:50:09Z</time>
      </trkpt>
      <trkpt lat="45.85842" lon="4.66646">
        <ele>246.23</ele>
        <time>2013-09-14T09:50:10Z</time>
      </trkpt>
      <trkpt lat="45.85849" lon="4.66654">
        <ele>244.79</ele>
        <time>2013-09-14T09:50:11Z</time>
      </trkpt>
      <trkpt lat="45.85857" lon="4.66659">
        <ele>244.31</ele>
        <time>2013-09-14T09:50:12Z</time>
      </trkpt>
      <trkpt lat="45.85863" lon="4.66663">
        <ele>243.35</ele>
        <time>2013-09-14T09:50:13Z</time>
      </trkpt>
      <trkpt lat="45.85868" lon="4.66669">
        <ele>242.39</ele>
        <time>2013-09-14T09:50:14Z</time>
      </trkpt>
      <trkpt lat="45.85871" lon="4.66676">
        <ele>241.91</ele>
        <time>2013-09-14T09:50:15Z</time>
      </trkpt>
      <trkpt lat="45.85871" lon="4.66684">
        <ele>241.43</ele>
        <time>2013-09-14T09:50:16Z</time>
      </trkpt>
      <trkpt lat="45.8587" lon="4.66692">
        <ele>240.47</ele>
        <time>2013-09-14T09:50:17Z</time>
      </trkpt>
      <trkpt lat="45.85868" lon="4.66697">
        <ele>239.02</ele>
        <time>2013-09-14T09:50:18Z</time>
      </trkpt>
      <trkpt lat="45.85865" lon="4.66701">
        <ele>237.58</ele>
        <time>2013-09-14T09:50:19Z</time>
      </trkpt>
      <trkpt lat="45.8586" lon="4.66705">
        <ele>236.62</ele>
        <time>2013-09-14T09:50:20Z</time>
      </trkpt>
      <trkpt lat="45.85853" lon="4.66708">
        <ele>235.18</ele>
        <time>2013-09-14T09:50:21Z</time>
      </trkpt>
      <trkpt lat="45.85828" lon="4.66717">
        <ele>233.74</ele>
        <time>2013-09-14T09:50:23Z</time>
      </trkpt>
      <trkpt lat="45.85818" lon="4.66724">
        <ele>233.26</ele>
        <time>2013-09-14T09:50:24Z</time>
      </trkpt>
      <trkpt lat="45.85811" lon="4.66735">
        <ele>232.78</ele>
        <time>2013-09-14T09:50:25Z</time>
      </trkpt>
      <trkpt lat="45.85805" lon="4.66747">
        <ele>231.81</ele>
        <time>2013-09-14T09:50:26Z</time>
      </trkpt>
      <trkpt lat="45.858" lon="4.6676">
        <ele>231.33</ele>
        <time>2013-09-14T09:50:27Z</time>
      </trkpt>
      <trkpt lat="45.85796" lon="4.66773">
        <ele>229.89</ele>
        <time>2013-09-14T09:50:28Z</time>
      </trkpt>
      <trkpt lat="45.85789" lon="4.66785">
        <ele>229.89</ele>
        <time>2013-09-14T09:50:29Z</time>
      </trkpt>
      <trkpt lat="45.85784" lon="4.66797">
        <ele>229.41</ele>
        <time>2013-09-14T09:50:30Z</time>
      </trkpt>
      <trkpt lat="45.85769" lon="4.6683">
        <ele>227.97</ele>
        <time>2013-09-14T09:50:33Z</time>
      </trkpt>
      <trkpt lat="45.85749" lon="4.66874">
        <ele>224.12</ele>
        <time>2013-09-14T09:50:37Z</time>
      </trkpt>
      <trkpt lat="45.8574" lon="4.66891">
        <ele>221.72</ele>
        <time>2013-09-14T09:50:39Z</time>
      </trkpt>
      <trkpt lat="45.85732" lon="4.66902">
        <ele>219.8</ele>
        <time>2013-09-14T09:50:41Z</time>
      </trkpt>
      <trkpt lat="45.85727" lon="4.66907">
        <ele>218.84</ele>
        <time>2013-09-14T09:50:42Z</time>
      </trkpt>
      <trkpt lat="45.85723" lon="4.6691">
        <ele>217.88</ele>
        <time>2013-09-14T09:50:43Z</time>
      </trkpt>
      <trkpt lat="45.85718" lon="4.66912">
        <ele>217.88</ele>
        <time>2013-09-14T09:50:44Z</time>
      </trkpt>
      <trkpt lat="45.85713" lon="4.66912">
        <ele>216.91</ele>
        <time>2013-09-14T09:50:45Z</time>
      </trkpt>
      <trkpt lat="45.85709" lon="4.66911">
        <ele>216.43</ele>
        <time>2013-09-14T09:50:46Z</time>
      </trkpt>
      <trkpt lat="45.85704" lon="4.6691">
        <ele>215.95</ele>
        <time>2013-09-14T09:50:47Z</time>
      </trkpt>
      <trkpt lat="45.85696" lon="4.6691">
        <ele>214.99</ele>
        <time>2013-09-14T09:50:50Z</time>
      </trkpt>
      <trkpt lat="45.85691" lon="4.66914">
        <ele>214.51</ele>
        <time>2013-09-14T09:50:56Z</time>
      </trkpt>
      <trkpt lat="45.85668" lon="4.66918">
        <ele>216.43</ele>
        <time>2013-09-14T09:51:04Z</time>
      </trkpt>
      <trkpt lat="45.85626" lon="4.66924">
        <ele>214.03</ele>
        <time>2013-09-14T09:51:11Z</time>
      </trkpt>
      <trkpt lat="45.85561" lon="4.66943">
        <ele>213.55</ele>
        <time>2013-09-14T09:51:20Z</time>
      </trkpt>
      <trkpt lat="45.8555" lon="4.66944">
        <ele>213.55</ele>
        <time>2013-09-14T09:51:22Z</time>
      </trkpt>
      <trkpt lat="45.85545" lon="4.66945">
        <ele>213.07</ele>
        <time>2013-09-14T09:51:23Z</time>
      </trkpt>
      <trkpt lat="45.85541" lon="4.66948">
        <ele>213.55</ele>
        <time>2013-09-14T09:51:24Z</time>
      </trkpt>
      <trkpt lat="45.85537" lon="4.66952">
        <ele>213.55</ele>
        <time>2013-09-14T09:51:25Z</time>
      </trkpt>
      <trkpt lat="45.85534" lon="4.66957">
        <ele>214.03</ele>
        <time>2013-09-14T09:51:26Z</time>
      </trkpt>
      <trkpt lat="45.85533" lon="4.66963">
        <ele>213.55</ele>
        <time>2013-09-14T09:51:27Z</time>
      </trkpt>
      <trkpt lat="45.85533" lon="4.66968">
        <ele>213.55</ele>
        <time>2013-09-14T09:51:28Z</time>
      </trkpt>
      <trkpt lat="45.85535" lon="4.66974">
        <ele>213.55</ele>
        <time>2013-09-14T09:51:29Z</time>
      </trkpt>
      <trkpt lat="45.85537" lon="4.66979">
        <ele>213.55</ele>
        <time>2013-09-14T09:51:30Z</time>
      </trkpt>
      <trkpt lat="45.85539" lon="4.66986">
        <ele>213.07</ele>
        <time>2013-09-14T09:51:31Z</time>
      </trkpt>
      <trkpt lat="45.85541" lon="4.66992">
        <ele>213.07</ele>
        <time>2013-09-14T09:51:32Z</time>
      </trkpt>
      <trkpt lat="45.85559" lon="4.67057">
        <ele>212.11</ele>
        <time>2013-09-14T09:51:42Z</time>
      </trkpt>
      <trkpt lat="45.85576" lon="4.67118">
        <ele>211.63</ele>
        <time>2013-09-14T09:51:50Z</time>
      </trkpt>
      <trkpt lat="45.85592" lon="4.67157">
        <ele>211.63</ele>
        <time>2013-09-14T09:51:56Z</time>
      </trkpt>
      <trkpt lat="45.85599" lon="4.67185">
        <ele>211.63</ele>
        <time>2013-09-14T09:52:01Z</time>
      </trkpt>
      <trkpt lat="45.85601" lon="4.6719">
        <ele>212.11</ele>
        <time>2013-09-14T09:52:02Z</time>
      </trkpt>
      <trkpt lat="45.85604" lon="4.67194">
        <ele>212.11</ele>
        <time>2013-09-14T09:52:03Z</time>
      </trkpt>
      <trkpt lat="45.85607" lon="4.67199">
        <ele>211.63</ele>
        <time>2013-09-14T09:52:04Z</time>
      </trkpt>
      <trkpt lat="45.85609" lon="4.67203">
        <ele>211.63</ele>
        <time>2013-09-14T09:52:05Z</time>
      </trkpt>
      <trkpt lat="45.8561" lon="4.67208">
        <ele>211.63</ele>
        <time>2013-09-14T09:52:06Z</time>
      </trkpt>
      <trkpt lat="45.85612" lon="4.67212">
        <ele>211.63</ele>
        <time>2013-09-14T09:52:07Z</time>
      </trkpt>
      <trkpt lat="45.85626" lon="4.67252">
        <ele>209.7</ele>
        <time>2013-09-14T09:52:18Z</time>
      </trkpt>
      <trkpt lat="45.85636" lon="4.67261">
        <ele>209.22</ele>
        <time>2013-09-14T09:52:21Z</time>
      </trkpt>
      <trkpt lat="45.85642" lon="4.67264">
        <ele>209.22</ele>
        <time>2013-09-14T09:52:22Z</time>
      </trkpt>
      <trkpt lat="45.85649" lon="4.67267">
        <ele>209.22</ele>
        <time>2013-09-14T09:52:23Z</time>
      </trkpt>
      <trkpt lat="45.85676" lon="4.67279">
        <ele>208.74</ele>
        <time>2013-09-14T09:52:26Z</time>
      </trkpt>
      <trkpt lat="45.85717" lon="4.67301">
        <ele>208.26</ele>
        <time>2013-09-14T09:52:31Z</time>
      </trkpt>
      <trkpt lat="45.85723" lon="4.67306">
        <ele>208.26</ele>
        <time>2013-09-14T09:52:32Z</time>
      </trkpt>
      <trkpt lat="45.85727" lon="4.6731">
        <ele>208.74</ele>
        <time>2013-09-14T09:52:33Z</time>
      </trkpt>
      <trkpt lat="45.8574" lon="4.67316">
        <ele>207.78</ele>
        <time>2013-09-14T09:52:34Z</time>
      </trkpt>
      <trkpt lat="45.85753" lon="4.67321">
        <ele>208.26</ele>
        <time>2013-09-14T09:52:35Z</time>
      </trkpt>
      <trkpt lat="45.85762" lon="4.67326">
        <ele>208.26</ele>
        <time>2013-09-14T09:52:36Z</time>
      </trkpt>
      <trkpt lat="45.85766" lon="4.67331">
        <ele>207.78</ele>
        <time>2013-09-14T09:52:37Z</time>
      </trkpt>
      <trkpt lat="45.85769" lon="4.67336">
        <ele>208.26</ele>
        <time>2013-09-14T09:52:38Z</time>
      </trkpt>
      <trkpt lat="45.85772" lon="4.67357">
        <ele>209.22</ele>
        <time>2013-09-14T09:52:43Z</time>
      </trkpt>
      <trkpt lat="45.8576" lon="4.67386">
        <ele>210.19</ele>
        <time>2013-09-14T09:52:51Z</time>
      </trkpt>
      <trkpt lat="45.8575" lon="4.6741">
        <ele>210.67</ele>
        <time>2013-09-14T09:52:56Z</time>
      </trkpt>
      <trkpt lat="45.85747" lon="4.67415">
        <ele>210.67</ele>
        <time>2013-09-14T09:52:57Z</time>
      </trkpt>
      <trkpt lat="45.85746" lon="4.6742">
        <ele>210.67</ele>
        <time>2013-09-14T09:52:58Z</time>
      </trkpt>
      <trkpt lat="45.85728" lon="4.67458">
        <ele>212.11</ele>
        <time>2013-09-14T09:53:07Z</time>
      </trkpt>
      <trkpt lat="45.85696" lon="4.67508">
        <ele>212.11</ele>
        <time>2013-09-14T09:53:18Z</time>
      </trkpt>
      <trkpt lat="45.85685" lon="4.67521">
        <ele>212.11</ele>
        <time>2013-09-14T09:53:21Z</time>
      </trkpt>
      <trkpt lat="45.85681" lon="4.67524">
        <ele>211.63</ele>
        <time>2013-09-14T09:53:22Z</time>
      </trkpt>
      <trkpt lat="45.85629" lon="4.67573">
        <ele>212.11</ele>
        <time>2013-09-14T09:53:34Z</time>
      </trkpt>
      <trkpt lat="45.85625" lon="4.67578">
        <ele>211.63</ele>
        <time>2013-09-14T09:53:35Z</time>
      </trkpt>
      <trkpt lat="45.8562" lon="4.67582">
        <ele>211.15</ele>
        <time>2013-09-14T09:53:36Z</time>
      </trkpt>
      <trkpt lat="45.8557" lon="4.67639">
        <ele>209.7</ele>
        <time>2013-09-14T09:53:47Z</time>
      </trkpt>
      <trkpt lat="45.85545" lon="4.67662">
        <ele>209.22</ele>
        <time>2013-09-14T09:53:52Z</time>
      </trkpt>
      <trkpt lat="45.85504" lon="4.67728">
        <ele>208.74</ele>
        <time>2013-09-14T09:54:02Z</time>
      </trkpt>
      <trkpt lat="45.85486" lon="4.67793">
        <ele>208.26</ele>
        <time>2013-09-14T09:54:10Z</time>
      </trkpt>
      <trkpt lat="45.85487" lon="4.67802">
        <ele>208.26</ele>
        <time>2013-09-14T09:54:11Z</time>
      </trkpt>
      <trkpt lat="45.85489" lon="4.6781">
        <ele>207.78</ele>
        <time>2013-09-14T09:54:12Z</time>
      </trkpt>
      <trkpt lat="45.85508" lon="4.67891">
        <ele>208.26</ele>
        <time>2013-09-14T09:54:22Z</time>
      </trkpt>
      <trkpt lat="45.85526" lon="4.67936">
        <ele>208.74</ele>
        <time>2013-09-14T09:54:31Z</time>
      </trkpt>
      <trkpt lat="45.85537" lon="4.67955">
        <ele>208.74</ele>
        <time>2013-09-14T09:54:39Z</time>
      </trkpt>
      <trkpt lat="45.85539" lon="4.67962">
        <ele>208.74</ele>
        <time>2013-09-14T09:54:51Z</time>
      </trkpt>
      <trkpt lat="45.85545" lon="4.67999">
        <ele>207.3</ele>
        <time>2013-09-14T09:54:57Z</time>
      </trkpt>
      <trkpt lat="45.85568" lon="4.68075">
        <ele>206.34</ele>
        <time>2013-09-14T09:55:07Z</time>
      </trkpt>
      <trkpt lat="45.8559" lon="4.68129">
        <ele>205.86</ele>
        <time>2013-09-14T09:55:16Z</time>
      </trkpt>
      <trkpt lat="45.85596" lon="4.68141">
        <ele>206.34</ele>
        <time>2013-09-14T09:55:18Z</time>
      </trkpt>
      <trkpt lat="45.85599" lon="4.68146">
        <ele>206.34</ele>
        <time>2013-09-14T09:55:19Z</time>
      </trkpt>
      <trkpt lat="45.85602" lon="4.68152">
        <ele>206.34</ele>
        <time>2013-09-14T09:55:20Z</time>
      </trkpt>
      <trkpt lat="45.85619" lon="4.6818">
        <ele>206.34</ele>
        <time>2013-09-14T09:55:25Z</time>
      </trkpt>
      <trkpt lat="45.85646" lon="4.68223">
        <ele>206.34</ele>
        <time>2013-09-14T09:55:33Z</time>
      </trkpt>
      <trkpt lat="45.85694" lon="4.68281">
        <ele>206.34</ele>
        <time>2013-09-14T09:55:46Z</time>
      </trkpt>
      <trkpt lat="45.85724" lon="4.68317">
        <ele>206.34</ele>
        <time>2013-09-14T09:55:54Z</time>
      </trkpt>
      <trkpt lat="45.85727" lon="4.68323">
        <ele>205.86</ele>
        <time>2013-09-14T09:55:55Z</time>
      </trkpt>
      <trkpt lat="45.85729" lon="4.68329">
        <ele>206.34</ele>
        <time>2013-09-14T09:55:56Z</time>
      </trkpt>
      <trkpt lat="45.85756" lon="4.68403">
        <ele>205.86</ele>
        <time>2013-09-14T09:56:07Z</time>
      </trkpt>
      <trkpt lat="45.85766" lon="4.68431">
        <ele>205.86</ele>
        <time>2013-09-14T09:56:11Z</time>
      </trkpt>
      <trkpt lat="45.85783" lon="4.68515">
        <ele>205.86</ele>
        <time>2013-09-14T09:56:22Z</time>
      </trkpt>
      <trkpt lat="45.85786" lon="4.6853">
        <ele>204.9</ele>
        <time>2013-09-14T09:56:24Z</time>
      </trkpt>
      <trkpt lat="45.85789" lon="4.68537">
        <ele>205.38</ele>
        <time>2013-09-14T09:56:25Z</time>
      </trkpt>
      <trkpt lat="45.858" lon="4.68566">
        <ele>205.38</ele>
        <time>2013-09-14T09:56:29Z</time>
      </trkpt>
      <trkpt lat="45.85806" lon="4.68586">
        <ele>204.42</ele>
        <time>2013-09-14T09:56:32Z</time>
      </trkpt>
      <trkpt lat="45.85811" lon="4.68614">
        <ele>204.9</ele>
        <time>2013-09-14T09:56:36Z</time>
      </trkpt>
      <trkpt lat="45.85812" lon="4.68627">
        <ele>204.9</ele>
        <time>2013-09-14T09:56:38Z</time>
      </trkpt>
      <trkpt lat="45.85813" lon="4.68634">
        <ele>204.9</ele>
        <time>2013-09-14T09:56:39Z</time>
      </trkpt>
      <trkpt lat="45.85814" lon="4.6864">
        <ele>205.38</ele>
        <time>2013-09-14T09:56:40Z</time>
      </trkpt>
      <trkpt lat="45.85814" lon="4.68646">
        <ele>205.38</ele>
        <time>2013-09-14T09:56:41Z</time>
      </trkpt>
      <trkpt lat="45.85815" lon="4.68653">
        <ele>205.38</ele>
        <time>2013-09-14T09:56:42Z</time>
      </trkpt>
      <trkpt lat="45.85816" lon="4.6866">
        <ele>205.38</ele>
        <time>2013-09-14T09:56:43Z</time>
      </trkpt>
      <trkpt lat="45.85816" lon="4.68667">
        <ele>205.86</ele>
        <time>2013-09-14T09:56:44Z</time>
      </trkpt>
      <trkpt lat="45.85815" lon="4.68674">
        <ele>205.38</ele>
        <time>2013-09-14T09:56:45Z</time>
      </trkpt>
      <trkpt lat="45.85815" lon="4.6868">
        <ele>205.38</ele>
        <time>2013-09-14T09:56:46Z</time>
      </trkpt>
      <trkpt lat="45.85814" lon="4.68687">
        <ele>205.38</ele>
        <time>2013-09-14T09:56:47Z</time>
      </trkpt>
      <trkpt lat="45.85814" lon="4.68694">
        <ele>205.38</ele>
        <time>2013-09-14T09:56:48Z</time>
      </trkpt>
      <trkpt lat="45.85807" lon="4.6876">
        <ele>205.38</ele>
        <time>2013-09-14T09:56:58Z</time>
      </trkpt>
      <trkpt lat="45.85806" lon="4.68766">
        <ele>205.38</ele>
        <time>2013-09-14T09:56:59Z</time>
      </trkpt>
      <trkpt lat="45.85806" lon="4.68772">
        <ele>204.9</ele>
        <time>2013-09-14T09:57:00Z</time>
      </trkpt>
      <trkpt lat="45.85806" lon="4.68778">
        <ele>204.9</ele>
        <time>2013-09-14T09:57:01Z</time>
      </trkpt>
      <trkpt lat="45.85806" lon="4.68784">
        <ele>204.42</ele>
        <time>2013-09-14T09:57:02Z</time>
      </trkpt>
      <trkpt lat="45.85806" lon="4.6879">
        <ele>204.42</ele>
        <time>2013-09-14T09:57:03Z</time>
      </trkpt>
      <trkpt lat="45.85806" lon="4.68796">
        <ele>204.9</ele>
        <time>2013-09-14T09:57:04Z</time>
      </trkpt>
      <trkpt lat="45.85806" lon="4.68801">
        <ele>204.42</ele>
        <time>2013-09-14T09:57:05Z</time>
      </trkpt>
      <trkpt lat="45.85809" lon="4.68834">
        <ele>203.46</ele>
        <time>2013-09-14T09:57:14Z</time>
      </trkpt>
      <trkpt lat="45.85811" lon="4.68837">
        <ele>203.94</ele>
        <time>2013-09-14T09:57:24Z</time>
      </trkpt>
      <trkpt lat="45.8581" lon="4.68839">
        <ele>203.94</ele>
        <time>2013-09-14T09:57:33Z</time>
      </trkpt>
      <trkpt lat="45.8581" lon="4.68842">
        <ele>203.46</ele>
        <time>2013-09-14T09:57:35Z</time>
      </trkpt>
      <trkpt lat="45.85808" lon="4.6885">
        <ele>203.46</ele>
        <time>2013-09-14T09:57:38Z</time>
      </trkpt>
      <trkpt lat="45.85807" lon="4.68887">
        <ele>203.94</ele>
        <time>2013-09-14T09:57:48Z</time>
      </trkpt>
      <trkpt lat="45.85803" lon="4.68942">
        <ele>203.94</ele>
        <time>2013-09-14T09:57:58Z</time>
      </trkpt>
      <trkpt lat="45.85802" lon="4.68948">
        <ele>203.94</ele>
        <time>2013-09-14T09:57:59Z</time>
      </trkpt>
      <trkpt lat="45.85793" lon="4.69043">
        <ele>203.46</ele>
        <time>2013-09-14T09:58:13Z</time>
      </trkpt>
      <trkpt lat="45.8578" lon="4.69116">
        <ele>203.46</ele>
        <time>2013-09-14T09:58:23Z</time>
      </trkpt>
      <trkpt lat="45.8577" lon="4.69177">
        <ele>202.98</ele>
        <time>2013-09-14T09:58:32Z</time>
      </trkpt>
      <trkpt lat="45.85768" lon="4.6919">
        <ele>203.46</ele>
        <time>2013-09-14T09:58:34Z</time>
      </trkpt>
      <trkpt lat="45.85762" lon="4.69221">
        <ele>202.98</ele>
        <time>2013-09-14T09:58:42Z</time>
      </trkpt>
      <trkpt lat="45.85763" lon="4.69229">
        <ele>203.46</ele>
        <time>2013-09-14T09:58:51Z</time>
      </trkpt>
      <trkpt lat="45.85762" lon="4.69232">
        <ele>202.98</ele>
        <time>2013-09-14T09:59:00Z</time>
      </trkpt>
      <trkpt lat="45.85762" lon="4.69234">
        <ele>203.46</ele>
        <time>2013-09-14T09:59:01Z</time>
      </trkpt>
      <trkpt lat="45.85763" lon="4.69236">
        <ele>202.98</ele>
        <time>2013-09-14T09:59:02Z</time>
      </trkpt>
      <trkpt lat="45.85763" lon="4.69238">
        <ele>202.98</ele>
        <time>2013-09-14T09:59:03Z</time>
      </trkpt>
      <trkpt lat="45.85761" lon="4.69271">
        <ele>202.98</ele>
        <time>2013-09-14T09:59:11Z</time>
      </trkpt>
      <trkpt lat="45.85758" lon="4.69326">
        <ele>203.46</ele>
        <time>2013-09-14T09:59:20Z</time>
      </trkpt>
      <trkpt lat="45.85758" lon="4.69417">
        <ele>203.46</ele>
        <time>2013-09-14T09:59:33Z</time>
      </trkpt>
      <trkpt lat="45.85767" lon="4.69499">
        <ele>202.98</ele>
        <time>2013-09-14T09:59:44Z</time>
      </trkpt>
      <trkpt lat="45.85786" lon="4.69605">
        <ele>203.46</ele>
        <time>2013-09-14T09:59:58Z</time>
      </trkpt>
      <trkpt lat="45.85809" lon="4.69679">
        <ele>203.46</ele>
        <time>2013-09-14T10:00:09Z</time>
      </trkpt>
      <trkpt lat="45.85813" lon="4.69693">
        <ele>203.46</ele>
        <time>2013-09-14T10:00:11Z</time>
      </trkpt>
      <trkpt lat="45.85815" lon="4.69708">
        <ele>203.46</ele>
        <time>2013-09-14T10:00:13Z</time>
      </trkpt>
      <trkpt lat="45.85824" lon="4.698">
        <ele>202.98</ele>
        <time>2013-09-14T10:00:25Z</time>
      </trkpt>
      <trkpt lat="45.85829" lon="4.69902">
        <ele>202.98</ele>
        <time>2013-09-14T10:00:38Z</time>
      </trkpt>
      <trkpt lat="45.8583" lon="4.70002">
        <ele>202.98</ele>
        <time>2013-09-14T10:00:51Z</time>
      </trkpt>
      <trkpt lat="45.85835" lon="4.70103">
        <ele>202.49</ele>
        <time>2013-09-14T10:01:04Z</time>
      </trkpt>
      <trkpt lat="45.85837" lon="4.70182">
        <ele>202.49</ele>
        <time>2013-09-14T10:01:14Z</time>
      </trkpt>
      <trkpt lat="45.85839" lon="4.7019">
        <ele>202.01</ele>
        <time>2013-09-14T10:01:15Z</time>
      </trkpt>
      <trkpt lat="45.85841" lon="4.70198">
        <ele>202.98</ele>
        <time>2013-09-14T10:01:16Z</time>
      </trkpt>
      <trkpt lat="45.85856" lon="4.70242">
        <ele>202.49</ele>
        <time>2013-09-14T10:01:22Z</time>
      </trkpt>
      <trkpt lat="45.85887" lon="4.70322">
        <ele>202.49</ele>
        <time>2013-09-14T10:01:33Z</time>
      </trkpt>
      <trkpt lat="45.85895" lon="4.70353">
        <ele>202.01</ele>
        <time>2013-09-14T10:01:37Z</time>
      </trkpt>
      <trkpt lat="45.85896" lon="4.70361">
        <ele>202.49</ele>
        <time>2013-09-14T10:01:38Z</time>
      </trkpt>
      <trkpt lat="45.85896" lon="4.70369">
        <ele>202.01</ele>
        <time>2013-09-14T10:01:39Z</time>
      </trkpt>
      <trkpt lat="45.85896" lon="4.70417">
        <ele>202.01</ele>
        <time>2013-09-14T10:01:45Z</time>
      </trkpt>
      <trkpt lat="45.85897" lon="4.70425">
        <ele>202.01</ele>
        <time>2013-09-14T10:01:46Z</time>
      </trkpt>
      <trkpt lat="45.85899" lon="4.70433">
        <ele>202.01</ele>
        <time>2013-09-14T10:01:47Z</time>
      </trkpt>
      <trkpt lat="45.859" lon="4.70441">
        <ele>202.49</ele>
        <time>2013-09-14T10:01:48Z</time>
      </trkpt>
      <trkpt lat="45.85902" lon="4.70449">
        <ele>202.01</ele>
        <time>2013-09-14T10:01:49Z</time>
      </trkpt>
      <trkpt lat="45.85936" lon="4.70555">
        <ele>201.53</ele>
        <time>2013-09-14T10:02:03Z</time>
      </trkpt>
      <trkpt lat="45.85958" lon="4.7062">
        <ele>201.05</ele>
        <time>2013-09-14T10:02:12Z</time>
      </trkpt>
      <trkpt lat="45.85962" lon="4.70627">
        <ele>201.05</ele>
        <time>2013-09-14T10:02:13Z</time>
      </trkpt>
      <trkpt lat="45.86009" lon="4.70706">
        <ele>201.05</ele>
        <time>2013-09-14T10:02:25Z</time>
      </trkpt>
      <trkpt lat="45.86067" lon="4.70787">
        <ele>201.05</ele>
        <time>2013-09-14T10:02:37Z</time>
      </trkpt>
      <trkpt lat="45.861" lon="4.70832">
        <ele>197.69</ele>
        <time>2013-09-14T10:02:44Z</time>
      </trkpt>
      <trkpt lat="45.86105" lon="4.70839">
        <ele>201.53</ele>
        <time>2013-09-14T10:02:45Z</time>
      </trkpt>
      <trkpt lat="45.86168" lon="4.70925">
        <ele>201.53</ele>
        <time>2013-09-14T10:02:59Z</time>
      </trkpt>
      <trkpt lat="45.86174" lon="4.70929">
        <ele>201.53</ele>
        <time>2013-09-14T10:03:00Z</time>
      </trkpt>
      <trkpt lat="45.86179" lon="4.70933">
        <ele>202.01</ele>
        <time>2013-09-14T10:03:01Z</time>
      </trkpt>
      <trkpt lat="45.86185" lon="4.70935">
        <ele>201.05</ele>
        <time>2013-09-14T10:03:02Z</time>
      </trkpt>
      <trkpt lat="45.86197" lon="4.70941">
        <ele>201.05</ele>
        <time>2013-09-14T10:03:04Z</time>
      </trkpt>
      <trkpt lat="45.86202" lon="4.70946">
        <ele>201.05</ele>
        <time>2013-09-14T10:03:05Z</time>
      </trkpt>
      <trkpt lat="45.86207" lon="4.70952">
        <ele>201.05</ele>
        <time>2013-09-14T10:03:06Z</time>
      </trkpt>
      <trkpt lat="45.86211" lon="4.70958">
        <ele>200.57</ele>
        <time>2013-09-14T10:03:07Z</time>
      </trkpt>
      <trkpt lat="45.86216" lon="4.70965">
        <ele>200.57</ele>
        <time>2013-09-14T10:03:08Z</time>
      </trkpt>
      <trkpt lat="45.86223" lon="4.70977">
        <ele>200.57</ele>
        <time>2013-09-14T10:03:10Z</time>
      </trkpt>
      <trkpt lat="45.86225" lon="4.70984">
        <ele>201.05</ele>
        <time>2013-09-14T10:03:11Z</time>
      </trkpt>
      <trkpt lat="45.86224" lon="4.70991">
        <ele>201.05</ele>
        <time>2013-09-14T10:03:12Z</time>
      </trkpt>
      <trkpt lat="45.86222" lon="4.70996">
        <ele>201.05</ele>
        <time>2013-09-14T10:03:13Z</time>
      </trkpt>
      <trkpt lat="45.86219" lon="4.71001">
        <ele>201.05</ele>
        <time>2013-09-14T10:03:14Z</time>
      </trkpt>
      <trkpt lat="45.86215" lon="4.71005">
        <ele>202.01</ele>
        <time>2013-09-14T10:03:15Z</time>
      </trkpt>
      <trkpt lat="45.8619" lon="4.71035">
        <ele>201.53</ele>
        <time>2013-09-14T10:03:22Z</time>
      </trkpt>
      <trkpt lat="45.86185" lon="4.71038">
        <ele>201.53</ele>
        <time>2013-09-14T10:03:23Z</time>
      </trkpt>
      <trkpt lat="45.86176" lon="4.71043">
        <ele>201.05</ele>
        <time>2013-09-14T10:03:25Z</time>
      </trkpt>
      <trkpt lat="45.86144" lon="4.71054">
        <ele>201.53</ele>
        <time>2013-09-14T10:03:32Z</time>
      </trkpt>
      <trkpt lat="45.8614" lon="4.71058">
        <ele>201.53</ele>
        <time>2013-09-14T10:03:33Z</time>
      </trkpt>
      <trkpt lat="45.86136" lon="4.71062">
        <ele>201.53</ele>
        <time>2013-09-14T10:03:34Z</time>
      </trkpt>
      <trkpt lat="45.86133" lon="4.71068">
        <ele>201.05</ele>
        <time>2013-09-14T10:03:35Z</time>
      </trkpt>
      <trkpt lat="45.8613" lon="4.71074">
        <ele>202.01</ele>
        <time>2013-09-14T10:03:36Z</time>
      </trkpt>
      <trkpt lat="45.86128" lon="4.71081">
        <ele>201.53</ele>
        <time>2013-09-14T10:03:37Z</time>
      </trkpt>
      <trkpt lat="45.86112" lon="4.71122">
        <ele>201.53</ele>
        <time>2013-09-14T10:03:44Z</time>
      </trkpt>
      <trkpt lat="45.86109" lon="4.71128">
        <ele>201.53</ele>
        <time>2013-09-14T10:03:45Z</time>
      </trkpt>
      <trkpt lat="45.86106" lon="4.71133">
        <ele>201.53</ele>
        <time>2013-09-14T10:03:46Z</time>
      </trkpt>
      <trkpt lat="45.86103" lon="4.71138">
        <ele>201.53</ele>
        <time>2013-09-14T10:03:47Z</time>
      </trkpt>
      <trkpt lat="45.86099" lon="4.71141">
        <ele>201.53</ele>
        <time>2013-09-14T10:03:48Z</time>
      </trkpt>
      <trkpt lat="45.86096" lon="4.71145">
        <ele>202.01</ele>
        <time>2013-09-14T10:03:49Z</time>
      </trkpt>
      <trkpt lat="45.86094" lon="4.71147">
        <ele>201.53</ele>
        <time>2013-09-14T10:03:50Z</time>
      </trkpt>
      <trkpt lat="45.86092" lon="4.71152">
        <ele>202.49</ele>
        <time>2013-09-14T10:03:51Z</time>
      </trkpt>
      <trkpt lat="45.8609" lon="4.71156">
        <ele>202.49</ele>
        <time>2013-09-14T10:03:52Z</time>
      </trkpt>
      <trkpt lat="45.86089" lon="4.71162">
        <ele>202.49</ele>
        <time>2013-09-14T10:03:53Z</time>
      </trkpt>
      <trkpt lat="45.8608" lon="4.71227">
        <ele>202.01</ele>
        <time>2013-09-14T10:04:04Z</time>
      </trkpt>
      <trkpt lat="45.8608" lon="4.71251">
        <ele>201.53</ele>
        <time>2013-09-14T10:04:08Z</time>
      </trkpt>
      <trkpt lat="45.86083" lon="4.71255">
        <ele>202.98</ele>
        <time>2013-09-14T10:04:09Z</time>
      </trkpt>
      <trkpt lat="45.86085" lon="4.71258">
        <ele>202.49</ele>
        <time>2013-09-14T10:04:10Z</time>
      </trkpt>
      <trkpt lat="45.86087" lon="4.71263">
        <ele>202.98</ele>
        <time>2013-09-14T10:04:11Z</time>
      </trkpt>
      <trkpt lat="45.8609" lon="4.71267">
        <ele>202.98</ele>
        <time>2013-09-14T10:04:12Z</time>
      </trkpt>
      <trkpt lat="45.86093" lon="4.71271">
        <ele>202.98</ele>
        <time>2013-09-14T10:04:13Z</time>
      </trkpt>
      <trkpt lat="45.86095" lon="4.71277">
        <ele>202.98</ele>
        <time>2013-09-14T10:04:14Z</time>
      </trkpt>
      <trkpt lat="45.86097" lon="4.71282">
        <ele>202.49</ele>
        <time>2013-09-14T10:04:15Z</time>
      </trkpt>
      <trkpt lat="45.86098" lon="4.71289">
        <ele>202.98</ele>
        <time>2013-09-14T10:04:16Z</time>
      </trkpt>
      <trkpt lat="45.86105" lon="4.71323">
        <ele>202.98</ele>
        <time>2013-09-14T10:04:21Z</time>
      </trkpt>
      <trkpt lat="45.86108" lon="4.71342">
        <ele>202.49</ele>
        <time>2013-09-14T10:04:24Z</time>
      </trkpt>
      <trkpt lat="45.86109" lon="4.71348">
        <ele>202.98</ele>
        <time>2013-09-14T10:04:25Z</time>
      </trkpt>
      <trkpt lat="45.86109" lon="4.71353">
        <ele>202.49</ele>
        <time>2013-09-14T10:04:26Z</time>
      </trkpt>
      <trkpt lat="45.8611" lon="4.71359">
        <ele>202.98</ele>
        <time>2013-09-14T10:04:27Z</time>
      </trkpt>
      <trkpt lat="45.86111" lon="4.71365">
        <ele>202.98</ele>
        <time>2013-09-14T10:04:28Z</time>
      </trkpt>
      <trkpt lat="45.86112" lon="4.71372">
        <ele>202.98</ele>
        <time>2013-09-14T10:04:29Z</time>
      </trkpt>
      <trkpt lat="45.86112" lon="4.71378">
        <ele>202.98</ele>
        <time>2013-09-14T10:04:30Z</time>
      </trkpt>
      <trkpt lat="45.86118" lon="4.71442">
        <ele>202.98</ele>
        <time>2013-09-14T10:04:40Z</time>
      </trkpt>
      <trkpt lat="45.86117" lon="4.71447">
        <ele>202.49</ele>
        <time>2013-09-14T10:04:41Z</time>
      </trkpt>
      <trkpt lat="45.86115" lon="4.71452">
        <ele>202.49</ele>
        <time>2013-09-14T10:04:42Z</time>
      </trkpt>
      <trkpt lat="45.8611" lon="4.71463">
        <ele>202.01</ele>
        <time>2013-09-14T10:04:44Z</time>
      </trkpt>
      <trkpt lat="45.86085" lon="4.71524">
        <ele>202.49</ele>
        <time>2013-09-14T10:04:56Z</time>
      </trkpt>
      <trkpt lat="45.8608" lon="4.71533">
        <ele>201.53</ele>
        <time>2013-09-14T10:05:03Z</time>
      </trkpt>
      <trkpt lat="45.8607" lon="4.71561">
        <ele>202.01</ele>
        <time>2013-09-14T10:05:11Z</time>
      </trkpt>
      <trkpt lat="45.86047" lon="4.71618">
        <ele>202.01</ele>
        <time>2013-09-14T10:05:23Z</time>
      </trkpt>
      <trkpt lat="45.86037" lon="4.71638">
        <ele>202.49</ele>
        <time>2013-09-14T10:05:29Z</time>
      </trkpt>
      <trkpt lat="45.86035" lon="4.71636">
        <ele>202.49</ele>
        <time>2013-09-14T10:05:30Z</time>
      </trkpt>
      <trkpt lat="45.86007" lon="4.71609">
        <ele>203.94</ele>
        <time>2013-09-14T10:05:41Z</time>
      </trkpt>
      <trkpt lat="45.86001" lon="4.71609">
        <ele>204.42</ele>
        <time>2013-09-14T10:05:42Z</time>
      </trkpt>
      <trkpt lat="45.85989" lon="4.71627">
        <ele>205.38</ele>
        <time>2013-09-14T10:05:48Z</time>
      </trkpt>
      <trkpt lat="45.85979" lon="4.71647">
        <ele>207.3</ele>
        <time>2013-09-14T10:05:57Z</time>
      </trkpt>
      <trkpt lat="45.85963" lon="4.71648">
        <ele>209.7</ele>
        <time>2013-09-14T10:06:07Z</time>
      </trkpt>
      <trkpt lat="45.85949" lon="4.71636">
        <ele>211.63</ele>
        <time>2013-09-14T10:06:16Z</time>
      </trkpt>
      <trkpt lat="45.85933" lon="4.71627">
        <ele>214.03</ele>
        <time>2013-09-14T10:06:27Z</time>
      </trkpt>
      <trkpt lat="45.85919" lon="4.7162">
        <ele>215.47</ele>
        <time>2013-09-14T10:06:37Z</time>
      </trkpt>
      <trkpt lat="45.8591" lon="4.71613">
        <ele>217.4</ele>
        <time>2013-09-14T10:06:45Z</time>
      </trkpt>
      <trkpt lat="45.859" lon="4.71604">
        <ele>219.32</ele>
        <time>2013-09-14T10:06:54Z</time>
      </trkpt>
      <trkpt lat="45.85891" lon="4.71597">
        <ele>221.72</ele>
        <time>2013-09-14T10:07:02Z</time>
      </trkpt>
      <trkpt lat="45.85884" lon="4.71583">
        <ele>223.64</ele>
        <time>2013-09-14T10:07:11Z</time>
      </trkpt>
      <trkpt lat="45.85884" lon="4.71581">
        <ele>224.12</ele>
        <time>2013-09-14T10:07:12Z</time>
      </trkpt>
      <trkpt lat="45.85884" lon="4.71579">
        <ele>223.64</ele>
        <time>2013-09-14T10:07:13Z</time>
      </trkpt>
      <trkpt lat="45.85877" lon="4.7157">
        <ele>224.61</ele>
        <time>2013-09-14T10:07:20Z</time>
      </trkpt>
      <trkpt lat="45.85876" lon="4.7157">
        <ele>225.09</ele>
        <time>2013-09-14T10:07:21Z</time>
      </trkpt>
      <trkpt lat="45.85874" lon="4.7157">
        <ele>223.64</ele>
        <time>2013-09-14T10:07:22Z</time>
      </trkpt>
      <trkpt lat="45.85872" lon="4.71571">
        <ele>224.61</ele>
        <time>2013-09-14T10:07:31Z</time>
      </trkpt>
      <trkpt lat="45.85872" lon="4.71571">
        <ele>224.12</ele>
        <time>2013-09-14T10:07:38Z</time>
      </trkpt>
      <trkpt lat="45.85872" lon="4.71571">
        <ele>220.28</ele>
        <time>2013-09-14T10:07:41Z</time>
      </trkpt>
      <trkpt lat="45.85869" lon="4.71571">
        <ele>224.12</ele>
        <time>2013-09-14T10:07:54Z</time>
      </trkpt>
      <trkpt lat="45.85868" lon="4.71571">
        <ele>224.12</ele>
        <time>2013-09-14T10:08:06Z</time>
      </trkpt>
      <trkpt lat="45.85868" lon="4.71571">
        <ele>224.12</ele>
        <time>2013-09-14T10:08:23Z</time>
      </trkpt>
      <trkpt lat="45.85868" lon="4.71571">
        <ele>223.64</ele>
        <time>2013-09-14T10:08:41Z</time>
      </trkpt>
      <trkpt lat="45.85868" lon="4.71571">
        <ele>223.64</ele>
        <time>2013-09-14T10:08:57Z</time>
      </trkpt>
      <trkpt lat="45.85868" lon="4.71571">
        <ele>223.64</ele>
        <time>2013-09-14T10:09:14Z</time>
      </trkpt>
      <trkpt lat="45.85867" lon="4.71571">
        <ele>223.16</ele>
        <time>2013-09-14T10:09:26Z</time>
      </trkpt>
      <trkpt lat="45.85867" lon="4.71571">
        <ele>223.16</ele>
        <time>2013-09-14T10:09:41Z</time>
      </trkpt>
      <trkpt lat="45.85867" lon="4.71571">
        <ele>222.68</ele>
        <time>2013-09-14T10:10:03Z</time>
      </trkpt>
      <trkpt lat="45.85867" lon="4.71571">
        <ele>223.16</ele>
        <time>2013-09-14T10:10:18Z</time>
      </trkpt>
      <trkpt lat="45.85867" lon="4.71571">
        <ele>223.16</ele>
        <time>2013-09-14T10:10:31Z</time>
      </trkpt>
      <trkpt lat="45.85867" lon="4.71571">
        <ele>222.68</ele>
        <time>2013-09-14T10:10:43Z</time>
      </trkpt>
      <trkpt lat="45.85867" lon="4.71571">
        <ele>222.68</ele>
        <time>2013-09-14T10:11:00Z</time>
      </trkpt>
      <trkpt lat="45.85866" lon="4.71572">
        <ele>222.68</ele>
        <time>2013-09-14T10:11:11Z</time>
      </trkpt>
      <trkpt lat="45.85866" lon="4.71572">
        <ele>222.2</ele>
        <time>2013-09-14T10:11:31Z</time>
      </trkpt>
      <trkpt lat="45.85866" lon="4.71572">
        <ele>222.2</ele>
        <time>2013-09-14T10:11:51Z</time>
      </trkpt>
      <trkpt lat="45.85866" lon="4.71572">
        <ele>221.72</ele>
        <time>2013-09-14T10:12:12Z</time>
      </trkpt>
      <trkpt lat="45.85866" lon="4.71572">
        <ele>221.72</ele>
        <time>2013-09-14T10:12:33Z</time>
      </trkpt>
      <trkpt lat="45.85866" lon="4.71572">
        <ele>221.24</ele>
        <time>2013-09-14T10:12:51Z</time>
      </trkpt>
      <trkpt lat="45.85866" lon="4.71572">
        <ele>221.72</ele>
        <time>2013-09-14T10:13:07Z</time>
      </trkpt>
      <trkpt lat="45.85866" lon="4.71572">
        <ele>221.24</ele>
        <time>2013-09-14T10:13:27Z</time>
      </trkpt>
      <trkpt lat="45.85865" lon="4.71572">
        <ele>221.24</ele>
        <time>2013-09-14T10:13:51Z</time>
      </trkpt>
      <trkpt lat="45.85864" lon="4.71575">
        <ele>222.2</ele>
        <time>2013-09-14T10:14:08Z</time>
      </trkpt>
      <trkpt lat="45.85864" lon="4.71578">
        <ele>221.72</ele>
        <time>2013-09-14T10:14:09Z</time>
      </trkpt>
      <trkpt lat="45.85864" lon="4.71581">
        <ele>221.72</ele>
        <time>2013-09-14T10:14:10Z</time>
      </trkpt>
      <trkpt lat="45.85865" lon="4.71583">
        <ele>221.72</ele>
        <time>2013-09-14T10:14:11Z</time>
      </trkpt>
      <trkpt lat="45.85865" lon="4.71586">
        <ele>221.72</ele>
        <time>2013-09-14T10:14:12Z</time>
      </trkpt>
      <trkpt lat="45.85864" lon="4.7159">
        <ele>222.2</ele>
        <time>2013-09-14T10:14:13Z</time>
      </trkpt>
      <trkpt lat="45.85864" lon="4.71593">
        <ele>222.2</ele>
        <time>2013-09-14T10:14:14Z</time>
      </trkpt>
      <trkpt lat="45.85864" lon="4.71595">
        <ele>222.68</ele>
        <time>2013-09-14T10:14:15Z</time>
      </trkpt>
      <trkpt lat="45.85864" lon="4.71597">
        <ele>222.2</ele>
        <time>2013-09-14T10:14:16Z</time>
      </trkpt>
      <trkpt lat="45.85864" lon="4.71599">
        <ele>223.16</ele>
        <time>2013-09-14T10:14:17Z</time>
      </trkpt>
      <trkpt lat="45.85865" lon="4.71601">
        <ele>223.64</ele>
        <time>2013-09-14T10:14:18Z</time>
      </trkpt>
      <trkpt lat="45.85875" lon="4.71624">
        <ele>225.09</ele>
        <time>2013-09-14T10:14:30Z</time>
      </trkpt>
      <trkpt lat="45.85879" lon="4.71633">
        <ele>226.05</ele>
        <time>2013-09-14T10:14:34Z</time>
      </trkpt>
      <trkpt lat="45.85878" lon="4.71635">
        <ele>226.53</ele>
        <time>2013-09-14T10:14:35Z</time>
      </trkpt>
      <trkpt lat="45.85887" lon="4.71659">
        <ele>227.97</ele>
        <time>2013-09-14T10:14:46Z</time>
      </trkpt>
      <trkpt lat="45.85895" lon="4.71686">
        <ele>230.37</ele>
        <time>2013-09-14T10:14:59Z</time>
      </trkpt>
      <trkpt lat="45.85897" lon="4.71703">
        <ele>231.81</ele>
        <time>2013-09-14T10:15:07Z</time>
      </trkpt>
      <trkpt lat="45.85896" lon="4.71706">
        <ele>232.3</ele>
        <time>2013-09-14T10:15:08Z</time>
      </trkpt>
      <trkpt lat="45.85895" lon="4.7171">
        <ele>231.81</ele>
        <time>2013-09-14T10:15:09Z</time>
      </trkpt>
      <trkpt lat="45.85893" lon="4.71713">
        <ele>232.3</ele>
        <time>2013-09-14T10:15:10Z</time>
      </trkpt>
      <trkpt lat="45.85892" lon="4.71715">
        <ele>232.78</ele>
        <time>2013-09-14T10:15:11Z</time>
      </trkpt>
      <trkpt lat="45.85881" lon="4.71743">
        <ele>234.7</ele>
        <time>2013-09-14T10:15:23Z</time>
      </trkpt>
      <trkpt lat="45.85875" lon="4.71773">
        <ele>237.1</ele>
        <time>2013-09-14T10:15:35Z</time>
      </trkpt>
      <trkpt lat="45.85878" lon="4.71785">
        <ele>237.58</ele>
        <time>2013-09-14T10:15:40Z</time>
      </trkpt>
      <trkpt lat="45.85879" lon="4.71787">
        <ele>237.58</ele>
        <time>2013-09-14T10:15:41Z</time>
      </trkpt>
      <trkpt lat="45.8588" lon="4.71789">
        <ele>237.58</ele>
        <time>2013-09-14T10:15:42Z</time>
      </trkpt>
      <trkpt lat="45.85881" lon="4.7179">
        <ele>238.06</ele>
        <time>2013-09-14T10:15:43Z</time>
      </trkpt>
      <trkpt lat="45.85883" lon="4.71792">
        <ele>238.06</ele>
        <time>2013-09-14T10:15:44Z</time>
      </trkpt>
      <trkpt lat="45.85885" lon="4.71793">
        <ele>237.58</ele>
        <time>2013-09-14T10:15:45Z</time>
      </trkpt>
      <trkpt lat="45.85886" lon="4.71795">
        <ele>238.06</ele>
        <time>2013-09-14T10:15:46Z</time>
      </trkpt>
      <trkpt lat="45.85901" lon="4.71812">
        <ele>240.47</ele>
        <time>2013-09-14T10:15:57Z</time>
      </trkpt>
      <trkpt lat="45.859" lon="4.71836">
        <ele>241.43</ele>
        <time>2013-09-14T10:16:06Z</time>
      </trkpt>
      <trkpt lat="45.85888" lon="4.71857">
        <ele>242.39</ele>
        <time>2013-09-14T10:16:15Z</time>
      </trkpt>
      <trkpt lat="45.85886" lon="4.71857">
        <ele>241.91</ele>
        <time>2013-09-14T10:16:16Z</time>
      </trkpt>
      <trkpt lat="45.85869" lon="4.71851">
        <ele>244.79</ele>
        <time>2013-09-14T10:16:26Z</time>
      </trkpt>
      <trkpt lat="45.85854" lon="4.71861">
        <ele>246.23</ele>
        <time>2013-09-14T10:16:36Z</time>
      </trkpt>
      <trkpt lat="45.85848" lon="4.71882">
        <ele>249.12</ele>
        <time>2013-09-14T10:16:47Z</time>
      </trkpt>
      <trkpt lat="45.85848" lon="4.71889">
        <ele>249.6</ele>
        <time>2013-09-14T10:16:55Z</time>
      </trkpt>
      <trkpt lat="45.85847" lon="4.71902">
        <ele>251.04</ele>
        <time>2013-09-14T10:17:05Z</time>
      </trkpt>
      <trkpt lat="45.85847" lon="4.7191">
        <ele>252.48</ele>
        <time>2013-09-14T10:17:16Z</time>
      </trkpt>
      <trkpt lat="45.85849" lon="4.71919">
        <ele>253.93</ele>
        <time>2013-09-14T10:17:25Z</time>
      </trkpt>
      <trkpt lat="45.85849" lon="4.71922">
        <ele>254.41</ele>
        <time>2013-09-14T10:17:27Z</time>
      </trkpt>
      <trkpt lat="45.8585" lon="4.71938">
        <ele>256.33</ele>
        <time>2013-09-14T10:17:40Z</time>
      </trkpt>
      <trkpt lat="45.85848" lon="4.71947">
        <ele>257.29</ele>
        <time>2013-09-14T10:17:47Z</time>
      </trkpt>
      <trkpt lat="45.85847" lon="4.71956">
        <ele>258.25</ele>
        <time>2013-09-14T10:17:59Z</time>
      </trkpt>
      <trkpt lat="45.85844" lon="4.7197">
        <ele>260.17</ele>
        <time>2013-09-14T10:18:10Z</time>
      </trkpt>
      <trkpt lat="45.85842" lon="4.7198">
        <ele>261.62</ele>
        <time>2013-09-14T10:18:18Z</time>
      </trkpt>
      <trkpt lat="45.85839" lon="4.7199">
        <ele>263.06</ele>
        <time>2013-09-14T10:18:26Z</time>
      </trkpt>
      <trkpt lat="45.85837" lon="4.71994">
        <ele>263.06</ele>
        <time>2013-09-14T10:18:37Z</time>
      </trkpt>
      <trkpt lat="45.85835" lon="4.72005">
        <ele>264.5</ele>
        <time>2013-09-14T10:18:47Z</time>
      </trkpt>
      <trkpt lat="45.85832" lon="4.72021">
        <ele>266.9</ele>
        <time>2013-09-14T10:18:59Z</time>
      </trkpt>
      <trkpt lat="45.85829" lon="4.72038">
        <ele>268.83</ele>
        <time>2013-09-14T10:19:11Z</time>
      </trkpt>
      <trkpt lat="45.85829" lon="4.72045">
        <ele>269.31</ele>
        <time>2013-09-14T10:19:16Z</time>
      </trkpt>
      <trkpt lat="45.85827" lon="4.72049">
        <ele>269.31</ele>
        <time>2013-09-14T10:19:24Z</time>
      </trkpt>
      <trkpt lat="45.85825" lon="4.72054">
        <ele>269.79</ele>
        <time>2013-09-14T10:19:28Z</time>
      </trkpt>
      <trkpt lat="45.85818" lon="4.72081">
        <ele>271.23</ele>
        <time>2013-09-14T10:19:43Z</time>
      </trkpt>
      <trkpt lat="45.85818" lon="4.72083">
        <ele>271.23</ele>
        <time>2013-09-14T10:19:44Z</time>
      </trkpt>
      <trkpt lat="45.85813" lon="4.721">
        <ele>271.71</ele>
        <time>2013-09-14T10:19:54Z</time>
      </trkpt>
      <trkpt lat="45.85813" lon="4.72102">
        <ele>272.67</ele>
        <time>2013-09-14T10:19:55Z</time>
      </trkpt>
      <trkpt lat="45.85812" lon="4.72104">
        <ele>272.67</ele>
        <time>2013-09-14T10:19:56Z</time>
      </trkpt>
      <trkpt lat="45.85812" lon="4.72105">
        <ele>273.15</ele>
        <time>2013-09-14T10:19:57Z</time>
      </trkpt>
      <trkpt lat="45.85812" lon="4.72107">
        <ele>273.15</ele>
        <time>2013-09-14T10:19:58Z</time>
      </trkpt>
      <trkpt lat="45.85812" lon="4.72109">
        <ele>273.15</ele>
        <time>2013-09-14T10:19:59Z</time>
      </trkpt>
      <trkpt lat="45.85811" lon="4.72111">
        <ele>273.15</ele>
        <time>2013-09-14T10:20:00Z</time>
      </trkpt>
      <trkpt lat="45.8581" lon="4.72115">
        <ele>274.11</ele>
        <time>2013-09-14T10:20:11Z</time>
      </trkpt>
      <trkpt lat="45.85809" lon="4.72126">
        <ele>275.07</ele>
        <time>2013-09-14T10:20:23Z</time>
      </trkpt>
      <trkpt lat="45.85804" lon="4.72149">
        <ele>276.04</ele>
        <time>2013-09-14T10:20:36Z</time>
      </trkpt>
      <trkpt lat="45.85799" lon="4.72163">
        <ele>277.96</ele>
        <time>2013-09-14T10:20:45Z</time>
      </trkpt>
      <trkpt lat="45.85798" lon="4.72163">
        <ele>277.96</ele>
        <time>2013-09-14T10:20:46Z</time>
      </trkpt>
      <trkpt lat="45.85796" lon="4.72163">
        <ele>277.48</ele>
        <time>2013-09-14T10:20:47Z</time>
      </trkpt>
      <trkpt lat="45.85794" lon="4.72163">
        <ele>277.48</ele>
        <time>2013-09-14T10:20:48Z</time>
      </trkpt>
      <trkpt lat="45.85792" lon="4.72163">
        <ele>277.96</ele>
        <time>2013-09-14T10:20:49Z</time>
      </trkpt>
      <trkpt lat="45.8579" lon="4.72163">
        <ele>277.48</ele>
        <time>2013-09-14T10:20:50Z</time>
      </trkpt>
      <trkpt lat="45.85787" lon="4.72162">
        <ele>277.48</ele>
        <time>2013-09-14T10:20:51Z</time>
      </trkpt>
      <trkpt lat="45.85784" lon="4.72162">
        <ele>277.96</ele>
        <time>2013-09-14T10:20:52Z</time>
      </trkpt>
      <trkpt lat="45.85748" lon="4.72159">
        <ele>277.48</ele>
        <time>2013-09-14T10:21:01Z</time>
      </trkpt>
      <trkpt lat="45.85693" lon="4.72174">
        <ele>277.48</ele>
        <time>2013-09-14T10:21:13Z</time>
      </trkpt>
      <trkpt lat="45.85676" lon="4.72182">
        <ele>277.48</ele>
        <time>2013-09-14T10:21:17Z</time>
      </trkpt>
      <trkpt lat="45.85672" lon="4.72184">
        <ele>277.48</ele>
        <time>2013-09-14T10:21:18Z</time>
      </trkpt>
      <trkpt lat="45.85668" lon="4.72186">
        <ele>277</ele>
        <time>2013-09-14T10:21:19Z</time>
      </trkpt>
      <trkpt lat="45.85634" lon="4.7221">
        <ele>276.04</ele>
        <time>2013-09-14T10:21:28Z</time>
      </trkpt>
      <trkpt lat="45.85627" lon="4.72214">
        <ele>276.04</ele>
        <time>2013-09-14T10:21:30Z</time>
      </trkpt>
      <trkpt lat="45.85601" lon="4.72227">
        <ele>275.56</ele>
        <time>2013-09-14T10:21:36Z</time>
      </trkpt>
      <trkpt lat="45.85596" lon="4.72229">
        <ele>275.56</ele>
        <time>2013-09-14T10:21:37Z</time>
      </trkpt>
      <trkpt lat="45.85572" lon="4.7224">
        <ele>275.56</ele>
        <time>2013-09-14T10:21:42Z</time>
      </trkpt>
      <trkpt lat="45.85504" lon="4.72253">
        <ele>274.11</ele>
        <time>2013-09-14T10:21:55Z</time>
      </trkpt>
      <trkpt lat="45.85443" lon="4.72258">
        <ele>271.23</ele>
        <time>2013-09-14T10:22:04Z</time>
      </trkpt>
      <trkpt lat="45.85436" lon="4.72258">
        <ele>271.23</ele>
        <time>2013-09-14T10:22:05Z</time>
      </trkpt>
      <trkpt lat="45.8543" lon="4.72257">
        <ele>271.23</ele>
        <time>2013-09-14T10:22:06Z</time>
      </trkpt>
      <trkpt lat="45.85423" lon="4.72254">
        <ele>270.75</ele>
        <time>2013-09-14T10:22:07Z</time>
      </trkpt>
      <trkpt lat="45.85355" lon="4.72235">
        <ele>272.67</ele>
        <time>2013-09-14T10:22:19Z</time>
      </trkpt>
      <trkpt lat="45.8535" lon="4.72234">
        <ele>273.15</ele>
        <time>2013-09-14T10:22:20Z</time>
      </trkpt>
      <trkpt lat="45.85345" lon="4.72234">
        <ele>273.63</ele>
        <time>2013-09-14T10:22:21Z</time>
      </trkpt>
      <trkpt lat="45.85332" lon="4.72234">
        <ele>274.11</ele>
        <time>2013-09-14T10:22:24Z</time>
      </trkpt>
      <trkpt lat="45.85327" lon="4.72234">
        <ele>274.11</ele>
        <time>2013-09-14T10:22:25Z</time>
      </trkpt>
      <trkpt lat="45.85323" lon="4.72235">
        <ele>274.59</ele>
        <time>2013-09-14T10:22:26Z</time>
      </trkpt>
      <trkpt lat="45.85303" lon="4.7225">
        <ele>276.52</ele>
        <time>2013-09-14T10:22:33Z</time>
      </trkpt>
      <trkpt lat="45.85284" lon="4.72286">
        <ele>278.92</ele>
        <time>2013-09-14T10:22:42Z</time>
      </trkpt>
      <trkpt lat="45.85254" lon="4.72299">
        <ele>279.4</ele>
        <time>2013-09-14T10:22:52Z</time>
      </trkpt>
      <trkpt lat="45.85221" lon="4.72292">
        <ele>280.84</ele>
        <time>2013-09-14T10:23:02Z</time>
      </trkpt>
      <trkpt lat="45.85188" lon="4.72278">
        <ele>281.32</ele>
        <time>2013-09-14T10:23:13Z</time>
      </trkpt>
      <trkpt lat="45.8518" lon="4.72273">
        <ele>280.84</ele>
        <time>2013-09-14T10:23:15Z</time>
      </trkpt>
      <trkpt lat="45.85177" lon="4.72269">
        <ele>280.36</ele>
        <time>2013-09-14T10:23:16Z</time>
      </trkpt>
      <trkpt lat="45.85169" lon="4.72259">
        <ele>280.36</ele>
        <time>2013-09-14T10:23:18Z</time>
      </trkpt>
      <trkpt lat="45.85158" lon="4.72239">
        <ele>279.4</ele>
        <time>2013-09-14T10:23:21Z</time>
      </trkpt>
      <trkpt lat="45.85154" lon="4.72233">
        <ele>279.4</ele>
        <time>2013-09-14T10:23:22Z</time>
      </trkpt>
      <trkpt lat="45.85149" lon="4.72229">
        <ele>278.44</ele>
        <time>2013-09-14T10:23:23Z</time>
      </trkpt>
      <trkpt lat="45.85144" lon="4.72227">
        <ele>278.92</ele>
        <time>2013-09-14T10:23:24Z</time>
      </trkpt>
      <trkpt lat="45.85138" lon="4.72225">
        <ele>278.44</ele>
        <time>2013-09-14T10:23:25Z</time>
      </trkpt>
      <trkpt lat="45.85132" lon="4.72225">
        <ele>278.44</ele>
        <time>2013-09-14T10:23:26Z</time>
      </trkpt>
      <trkpt lat="45.85126" lon="4.72226">
        <ele>277.96</ele>
        <time>2013-09-14T10:23:27Z</time>
      </trkpt>
      <trkpt lat="45.8512" lon="4.72225">
        <ele>278.44</ele>
        <time>2013-09-14T10:23:28Z</time>
      </trkpt>
      <trkpt lat="45.85087" lon="4.7222">
        <ele>277.96</ele>
        <time>2013-09-14T10:23:34Z</time>
      </trkpt>
      <trkpt lat="45.85067" lon="4.72219">
        <ele>277.96</ele>
        <time>2013-09-14T10:23:38Z</time>
      </trkpt>
      <trkpt lat="45.85032" lon="4.72219">
        <ele>278.44</ele>
        <time>2013-09-14T10:23:45Z</time>
      </trkpt>
      <trkpt lat="45.85018" lon="4.72219">
        <ele>277.96</ele>
        <time>2013-09-14T10:23:48Z</time>
      </trkpt>
      <trkpt lat="45.85013" lon="4.72218">
        <ele>277.96</ele>
        <time>2013-09-14T10:23:49Z</time>
      </trkpt>
      <trkpt lat="45.84957" lon="4.7221">
        <ele>278.44</ele>
        <time>2013-09-14T10:24:01Z</time>
      </trkpt>
      <trkpt lat="45.84908" lon="4.72201">
        <ele>278.92</ele>
        <time>2013-09-14T10:24:12Z</time>
      </trkpt>
      <trkpt lat="45.849" lon="4.72203">
        <ele>279.88</ele>
        <time>2013-09-14T10:24:14Z</time>
      </trkpt>
      <trkpt lat="45.8486" lon="4.72228">
        <ele>280.84</ele>
        <time>2013-09-14T10:24:25Z</time>
      </trkpt>
      <trkpt lat="45.84828" lon="4.72246">
        <ele>280.84</ele>
        <time>2013-09-14T10:24:34Z</time>
      </trkpt>
      <trkpt lat="45.84825" lon="4.72247">
        <ele>281.32</ele>
        <time>2013-09-14T10:24:35Z</time>
      </trkpt>
      <trkpt lat="45.84821" lon="4.72249">
        <ele>280.84</ele>
        <time>2013-09-14T10:24:36Z</time>
      </trkpt>
      <trkpt lat="45.84803" lon="4.72272">
        <ele>279.88</ele>
        <time>2013-09-14T10:24:43Z</time>
      </trkpt>
      <trkpt lat="45.84785" lon="4.72299">
        <ele>277.96</ele>
        <time>2013-09-14T10:24:49Z</time>
      </trkpt>
      <trkpt lat="45.84781" lon="4.72302">
        <ele>277.96</ele>
        <time>2013-09-14T10:24:50Z</time>
      </trkpt>
      <trkpt lat="45.84778" lon="4.72304">
        <ele>278.92</ele>
        <time>2013-09-14T10:24:51Z</time>
      </trkpt>
      <trkpt lat="45.84774" lon="4.72306">
        <ele>277.96</ele>
        <time>2013-09-14T10:24:52Z</time>
      </trkpt>
      <trkpt lat="45.8477" lon="4.72307">
        <ele>277.96</ele>
        <time>2013-09-14T10:24:53Z</time>
      </trkpt>
      <trkpt lat="45.8475" lon="4.72311">
        <ele>277.48</ele>
        <time>2013-09-14T10:24:57Z</time>
      </trkpt>
      <trkpt lat="45.84745" lon="4.72311">
        <ele>277</ele>
        <time>2013-09-14T10:24:58Z</time>
      </trkpt>
      <trkpt lat="45.8474" lon="4.7231">
        <ele>277</ele>
        <time>2013-09-14T10:24:59Z</time>
      </trkpt>
      <trkpt lat="45.84735" lon="4.7231">
        <ele>277</ele>
        <time>2013-09-14T10:25:00Z</time>
      </trkpt>
      <trkpt lat="45.8473" lon="4.7231">
        <ele>276.52</ele>
        <time>2013-09-14T10:25:01Z</time>
      </trkpt>
      <trkpt lat="45.84696" lon="4.72308">
        <ele>276.04</ele>
        <time>2013-09-14T10:25:09Z</time>
      </trkpt>
      <trkpt lat="45.84691" lon="4.72309">
        <ele>275.56</ele>
        <time>2013-09-14T10:25:10Z</time>
      </trkpt>
      <trkpt lat="45.84686" lon="4.72311">
        <ele>275.07</ele>
        <time>2013-09-14T10:25:11Z</time>
      </trkpt>
      <trkpt lat="45.84646" lon="4.72318">
        <ele>272.67</ele>
        <time>2013-09-14T10:25:18Z</time>
      </trkpt>
      <trkpt lat="45.8464" lon="4.72319">
        <ele>272.19</ele>
        <time>2013-09-14T10:25:19Z</time>
      </trkpt>
      <trkpt lat="45.84602" lon="4.72324">
        <ele>268.83</ele>
        <time>2013-09-14T10:25:24Z</time>
      </trkpt>
      <trkpt lat="45.84594" lon="4.72327">
        <ele>268.35</ele>
        <time>2013-09-14T10:25:25Z</time>
      </trkpt>
      <trkpt lat="45.84587" lon="4.72333">
        <ele>266.9</ele>
        <time>2013-09-14T10:25:26Z</time>
      </trkpt>
      <trkpt lat="45.8458" lon="4.7234">
        <ele>266.42</ele>
        <time>2013-09-14T10:25:27Z</time>
      </trkpt>
      <trkpt lat="45.84573" lon="4.72348">
        <ele>265.94</ele>
        <time>2013-09-14T10:25:28Z</time>
      </trkpt>
      <trkpt lat="45.84547" lon="4.72377">
        <ele>262.58</ele>
        <time>2013-09-14T10:25:32Z</time>
      </trkpt>
      <trkpt lat="45.84532" lon="4.72391">
        <ele>260.17</ele>
        <time>2013-09-14T10:25:35Z</time>
      </trkpt>
      <trkpt lat="45.84523" lon="4.72399">
        <ele>259.21</ele>
        <time>2013-09-14T10:25:38Z</time>
      </trkpt>
      <trkpt lat="45.84523" lon="4.72401">
        <ele>259.21</ele>
        <time>2013-09-14T10:25:39Z</time>
      </trkpt>
      <trkpt lat="45.84529" lon="4.72407">
        <ele>260.17</ele>
        <time>2013-09-14T10:25:43Z</time>
      </trkpt>
      <trkpt lat="45.8455" lon="4.72424">
        <ele>262.1</ele>
        <time>2013-09-14T10:25:54Z</time>
      </trkpt>
      <trkpt lat="45.84557" lon="4.72429">
        <ele>262.58</ele>
        <time>2013-09-14T10:25:57Z</time>
      </trkpt>
      <trkpt lat="45.84568" lon="4.72426">
        <ele>263.54</ele>
        <time>2013-09-14T10:26:02Z</time>
      </trkpt>
      <trkpt lat="45.8458" lon="4.72443">
        <ele>264.98</ele>
        <time>2013-09-14T10:26:11Z</time>
      </trkpt>
      <trkpt lat="45.84602" lon="4.72469">
        <ele>267.38</ele>
        <time>2013-09-14T10:26:26Z</time>
      </trkpt>
      <trkpt lat="45.84614" lon="4.72482">
        <ele>267.86</ele>
        <time>2013-09-14T10:26:34Z</time>
      </trkpt>
      <trkpt lat="45.84615" lon="4.72516">
        <ele>266.9</ele>
        <time>2013-09-14T10:26:44Z</time>
      </trkpt>
      <trkpt lat="45.84615" lon="4.72532">
        <ele>264.5</ele>
        <time>2013-09-14T10:26:48Z</time>
      </trkpt>
      <trkpt lat="45.8463" lon="4.7254">
        <ele>265.46</ele>
        <time>2013-09-14T10:26:56Z</time>
      </trkpt>
      <trkpt lat="45.84652" lon="4.7254">
        <ele>267.38</ele>
        <time>2013-09-14T10:27:06Z</time>
      </trkpt>
      <trkpt lat="45.84675" lon="4.72542">
        <ele>270.27</ele>
        <time>2013-09-14T10:27:18Z</time>
      </trkpt>
      <trkpt lat="45.84691" lon="4.72543">
        <ele>272.19</ele>
        <time>2013-09-14T10:27:25Z</time>
      </trkpt>
      <trkpt lat="45.84693" lon="4.72546">
        <ele>272.67</ele>
        <time>2013-09-14T10:27:27Z</time>
      </trkpt>
      <trkpt lat="45.84695" lon="4.72546">
        <ele>272.67</ele>
        <time>2013-09-14T10:27:28Z</time>
      </trkpt>
      <trkpt lat="45.84699" lon="4.72544">
        <ele>273.63</ele>
        <time>2013-09-14T10:27:36Z</time>
      </trkpt>
      <trkpt lat="45.84699" lon="4.72545">
        <ele>273.15</ele>
        <time>2013-09-14T10:27:49Z</time>
      </trkpt>
      <trkpt lat="45.847" lon="4.72546">
        <ele>273.15</ele>
        <time>2013-09-14T10:28:00Z</time>
      </trkpt>
      <trkpt lat="45.847" lon="4.72546">
        <ele>272.67</ele>
        <time>2013-09-14T10:28:27Z</time>
      </trkpt>
      <trkpt lat="45.847" lon="4.72546">
        <ele>272.67</ele>
        <time>2013-09-14T10:28:42Z</time>
      </trkpt>
      <trkpt lat="45.847" lon="4.72546">
        <ele>272.67</ele>
        <time>2013-09-14T10:28:55Z</time>
      </trkpt>
      <trkpt lat="45.847" lon="4.72547">
        <ele>268.35</ele>
        <time>2013-09-14T10:28:58Z</time>
      </trkpt>
      <trkpt lat="45.847" lon="4.72547">
        <ele>275.56</ele>
        <time>2013-09-14T10:28:59Z</time>
      </trkpt>
      <trkpt lat="45.847" lon="4.72547">
        <ele>269.31</ele>
        <time>2013-09-14T10:29:00Z</time>
      </trkpt>
      <trkpt lat="45.847" lon="4.72547">
        <ele>269.31</ele>
        <time>2013-09-14T10:29:01Z</time>
      </trkpt>
      <trkpt lat="45.847" lon="4.72548">
        <ele>274.11</ele>
        <time>2013-09-14T10:29:02Z</time>
      </trkpt>
      <trkpt lat="45.84699" lon="4.72548">
        <ele>271.23</ele>
        <time>2013-09-14T10:29:03Z</time>
      </trkpt>
      <trkpt lat="45.84699" lon="4.72547">
        <ele>273.63</ele>
        <time>2013-09-14T10:29:04Z</time>
      </trkpt>
      <trkpt lat="45.84699" lon="4.72547">
        <ele>270.75</ele>
        <time>2013-09-14T10:29:06Z</time>
      </trkpt>
      <trkpt lat="45.84698" lon="4.72547">
        <ele>277.48</ele>
        <time>2013-09-14T10:29:07Z</time>
      </trkpt>
      <trkpt lat="45.84698" lon="4.72547">
        <ele>273.63</ele>
        <time>2013-09-14T10:29:08Z</time>
      </trkpt>
      <trkpt lat="45.84698" lon="4.72547">
        <ele>272.19</ele>
        <time>2013-09-14T10:29:22Z</time>
      </trkpt>
      <trkpt lat="45.84697" lon="4.72547">
        <ele>272.67</ele>
        <time>2013-09-14T10:29:35Z</time>
      </trkpt>
      <trkpt lat="45.84699" lon="4.72547">
        <ele>273.15</ele>
        <time>2013-09-14T10:29:48Z</time>
      </trkpt>
      <trkpt lat="45.84699" lon="4.72547">
        <ele>272.67</ele>
        <time>2013-09-14T10:30:02Z</time>
      </trkpt>
      <trkpt lat="45.84699" lon="4.72547">
        <ele>272.19</ele>
        <time>2013-09-14T10:30:22Z</time>
      </trkpt>
      <trkpt lat="45.84699" lon="4.72547">
        <ele>273.63</ele>
        <time>2013-09-14T10:30:32Z</time>
      </trkpt>
      <trkpt lat="45.84701" lon="4.72548">
        <ele>273.15</ele>
        <time>2013-09-14T10:30:42Z</time>
      </trkpt>
      <trkpt lat="45.84702" lon="4.72549">
        <ele>273.63</ele>
        <time>2013-09-14T10:30:44Z</time>
      </trkpt>
      <trkpt lat="45.84702" lon="4.72551">
        <ele>273.63</ele>
        <time>2013-09-14T10:30:45Z</time>
      </trkpt>
      <trkpt lat="45.84709" lon="4.72561">
        <ele>274.59</ele>
        <time>2013-09-14T10:30:57Z</time>
      </trkpt>
      <trkpt lat="45.84713" lon="4.7257">
        <ele>276.52</ele>
        <time>2013-09-14T10:31:07Z</time>
      </trkpt>
      <trkpt lat="45.84717" lon="4.72578">
        <ele>278.92</ele>
        <time>2013-09-14T10:31:19Z</time>
      </trkpt>
      <trkpt lat="45.84725" lon="4.72588">
        <ele>280.36</ele>
        <time>2013-09-14T10:31:28Z</time>
      </trkpt>
      <trkpt lat="45.84727" lon="4.7259">
        <ele>281.32</ele>
        <time>2013-09-14T10:31:29Z</time>
      </trkpt>
      <trkpt lat="45.84737" lon="4.72594">
        <ele>281.32</ele>
        <time>2013-09-14T10:31:40Z</time>
      </trkpt>
      <trkpt lat="45.84736" lon="4.72601">
        <ele>281.8</ele>
        <time>2013-09-14T10:31:53Z</time>
      </trkpt>
      <trkpt lat="45.84744" lon="4.72597">
        <ele>284.21</ele>
        <time>2013-09-14T10:32:42Z</time>
      </trkpt>
    </trkseg>
  </trk>
</gpx>